<?xml version="1.0" encoding="UTF-8" standalone="no" ?>
<gpx xmlns="http://www.topografix.com/GPX/1/1" xmlns:xsi="http://www.w3.org/2001/XMLSchema-instance" xsi:schemaLocation="http://www.topografix.com/GPX/1/1 http://www.topografix.com/GPX/1/1/gpx.xsd" version="1.1" creator="VisuGPX - https://www.visugpx.com">
  <metadata>
    <name>Enduro Roubion 2018</name>
    <desc><![CDATA[4eme etape Championnat Urge 2018 - Enduro Roubion]]></desc>
  </metadata>
  <trk>
    <name><![CDATA[Enduro Roubion 2018  - 81/118]]></name>
    <trkseg>
      <trkpt lat="44.08288" lon="7.04164">
        <ele>1425</ele>
        <time>2018-06-10T07:31:24Z</time>
      </trkpt>
      <trkpt lat="44.08288" lon="7.04164">
        <ele>1425</ele>
        <time>2018-06-10T07:31:25Z</time>
      </trkpt>
      <trkpt lat="44.08291" lon="7.04163">
        <ele>1425</ele>
        <time>2018-06-10T07:31:31Z</time>
      </trkpt>
      <trkpt lat="44.08301" lon="7.04171">
        <ele>1425</ele>
        <time>2018-06-10T07:31:35Z</time>
      </trkpt>
      <trkpt lat="44.08317" lon="7.04189">
        <ele>1425</ele>
        <time>2018-06-10T07:31:40Z</time>
      </trkpt>
      <trkpt lat="44.08365" lon="7.0423">
        <ele>1426.4</ele>
        <time>2018-06-10T07:31:55Z</time>
      </trkpt>
      <trkpt lat="44.08421" lon="7.04242">
        <ele>1428.7</ele>
        <time>2018-06-10T07:32:12Z</time>
      </trkpt>
      <trkpt lat="44.08428" lon="7.04242">
        <ele>1429.1</ele>
        <time>2018-06-10T07:32:14Z</time>
      </trkpt>
      <trkpt lat="44.08467" lon="7.04245">
        <ele>1430.2</ele>
        <time>2018-06-10T07:32:25Z</time>
      </trkpt>
      <trkpt lat="44.08516" lon="7.04261">
        <ele>1432</ele>
        <time>2018-06-10T07:32:39Z</time>
      </trkpt>
      <trkpt lat="44.08551" lon="7.04286">
        <ele>1433.4</ele>
        <time>2018-06-10T07:32:50Z</time>
      </trkpt>
      <trkpt lat="44.086" lon="7.04293">
        <ele>1435.1</ele>
        <time>2018-06-10T07:33:04Z</time>
      </trkpt>
      <trkpt lat="44.08621" lon="7.04292">
        <ele>1436.3</ele>
        <time>2018-06-10T07:33:10Z</time>
      </trkpt>
      <trkpt lat="44.08651" lon="7.04297">
        <ele>1437.8</ele>
        <time>2018-06-10T07:33:18Z</time>
      </trkpt>
      <trkpt lat="44.08686" lon="7.04325">
        <ele>1439.5</ele>
        <time>2018-06-10T07:33:29Z</time>
      </trkpt>
      <trkpt lat="44.08716" lon="7.04351">
        <ele>1441.1</ele>
        <time>2018-06-10T07:33:39Z</time>
      </trkpt>
      <trkpt lat="44.08741" lon="7.04369">
        <ele>1441.8</ele>
        <time>2018-06-10T07:33:47Z</time>
      </trkpt>
      <trkpt lat="44.08783" lon="7.04358">
        <ele>1442</ele>
        <time>2018-06-10T07:34:03Z</time>
      </trkpt>
      <trkpt lat="44.08793" lon="7.04305">
        <ele>1450.6</ele>
        <time>2018-06-10T07:34:18Z</time>
      </trkpt>
      <trkpt lat="44.08793" lon="7.04282">
        <ele>1452.8</ele>
        <time>2018-06-10T07:34:26Z</time>
      </trkpt>
      <trkpt lat="44.08793" lon="7.04255">
        <ele>1455.3</ele>
        <time>2018-06-10T07:34:34Z</time>
      </trkpt>
      <trkpt lat="44.08793" lon="7.04237">
        <ele>1457</ele>
        <time>2018-06-10T07:34:40Z</time>
      </trkpt>
      <trkpt lat="44.08794" lon="7.04224">
        <ele>1458.3</ele>
        <time>2018-06-10T07:34:45Z</time>
      </trkpt>
      <trkpt lat="44.08798" lon="7.04206">
        <ele>1459.9</ele>
        <time>2018-06-10T07:34:51Z</time>
      </trkpt>
      <trkpt lat="44.08805" lon="7.04189">
        <ele>1461.6</ele>
        <time>2018-06-10T07:34:57Z</time>
      </trkpt>
      <trkpt lat="44.08813" lon="7.04172">
        <ele>1463.3</ele>
        <time>2018-06-10T07:35:02Z</time>
      </trkpt>
      <trkpt lat="44.08817" lon="7.04157">
        <ele>1464.6</ele>
        <time>2018-06-10T07:35:07Z</time>
      </trkpt>
      <trkpt lat="44.0882" lon="7.04143">
        <ele>1465.8</ele>
        <time>2018-06-10T07:35:11Z</time>
      </trkpt>
      <trkpt lat="44.08822" lon="7.04132">
        <ele>1466.7</ele>
        <time>2018-06-10T07:35:15Z</time>
      </trkpt>
      <trkpt lat="44.08825" lon="7.04115">
        <ele>1468.1</ele>
        <time>2018-06-10T07:35:20Z</time>
      </trkpt>
      <trkpt lat="44.08829" lon="7.041">
        <ele>1469.3</ele>
        <time>2018-06-10T07:35:25Z</time>
      </trkpt>
      <trkpt lat="44.0883" lon="7.04086">
        <ele>1470.4</ele>
        <time>2018-06-10T07:35:30Z</time>
      </trkpt>
      <trkpt lat="44.0883" lon="7.04083">
        <ele>1470.6</ele>
        <time>2018-06-10T07:35:31Z</time>
      </trkpt>
      <trkpt lat="44.08833" lon="7.04068">
        <ele>1471.8</ele>
        <time>2018-06-10T07:35:36Z</time>
      </trkpt>
      <trkpt lat="44.08841" lon="7.04049">
        <ele>1473.4</ele>
        <time>2018-06-10T07:35:42Z</time>
      </trkpt>
      <trkpt lat="44.08848" lon="7.04033">
        <ele>1474.8</ele>
        <time>2018-06-10T07:35:48Z</time>
      </trkpt>
      <trkpt lat="44.08853" lon="7.04019">
        <ele>1476</ele>
        <time>2018-06-10T07:35:53Z</time>
      </trkpt>
      <trkpt lat="44.08859" lon="7.03999">
        <ele>1477.5</ele>
        <time>2018-06-10T07:36:00Z</time>
      </trkpt>
      <trkpt lat="44.08862" lon="7.03987">
        <ele>1478.4</ele>
        <time>2018-06-10T07:36:04Z</time>
      </trkpt>
      <trkpt lat="44.08862" lon="7.03983">
        <ele>1478.7</ele>
        <time>2018-06-10T07:36:05Z</time>
      </trkpt>
      <trkpt lat="44.08863" lon="7.03966">
        <ele>1479.9</ele>
        <time>2018-06-10T07:36:11Z</time>
      </trkpt>
      <trkpt lat="44.08863" lon="7.03948">
        <ele>1481.2</ele>
        <time>2018-06-10T07:36:17Z</time>
      </trkpt>
      <trkpt lat="44.08862" lon="7.03931">
        <ele>1482.5</ele>
        <time>2018-06-10T07:36:23Z</time>
      </trkpt>
      <trkpt lat="44.08864" lon="7.03915">
        <ele>1483.8</ele>
        <time>2018-06-10T07:36:28Z</time>
      </trkpt>
      <trkpt lat="44.08866" lon="7.03899">
        <ele>1485</ele>
        <time>2018-06-10T07:36:33Z</time>
      </trkpt>
      <trkpt lat="44.08868" lon="7.03879">
        <ele>1486.5</ele>
        <time>2018-06-10T07:36:40Z</time>
      </trkpt>
      <trkpt lat="44.0887" lon="7.03863">
        <ele>1487.7</ele>
        <time>2018-06-10T07:36:46Z</time>
      </trkpt>
      <trkpt lat="44.08875" lon="7.03849">
        <ele>1488.9</ele>
        <time>2018-06-10T07:36:52Z</time>
      </trkpt>
      <trkpt lat="44.08883" lon="7.03836">
        <ele>1490.2</ele>
        <time>2018-06-10T07:36:58Z</time>
      </trkpt>
      <trkpt lat="44.08885" lon="7.03834">
        <ele>1490.4</ele>
        <time>2018-06-10T07:36:59Z</time>
      </trkpt>
      <trkpt lat="44.08901" lon="7.03851">
        <ele>1492.1</ele>
        <time>2018-06-10T07:37:09Z</time>
      </trkpt>
      <trkpt lat="44.089" lon="7.0386">
        <ele>1492.3</ele>
        <time>2018-06-10T07:37:12Z</time>
      </trkpt>
      <trkpt lat="44.08903" lon="7.0388">
        <ele>1492.8</ele>
        <time>2018-06-10T07:37:19Z</time>
      </trkpt>
      <trkpt lat="44.08908" lon="7.03899">
        <ele>1493.4</ele>
        <time>2018-06-10T07:37:26Z</time>
      </trkpt>
      <trkpt lat="44.08919" lon="7.03914">
        <ele>1494.2</ele>
        <time>2018-06-10T07:37:33Z</time>
      </trkpt>
      <trkpt lat="44.08934" lon="7.03917">
        <ele>1494.9</ele>
        <time>2018-06-10T07:37:39Z</time>
      </trkpt>
      <trkpt lat="44.08952" lon="7.03919">
        <ele>1495.8</ele>
        <time>2018-06-10T07:37:47Z</time>
      </trkpt>
      <trkpt lat="44.08954" lon="7.0392">
        <ele>1495.9</ele>
        <time>2018-06-10T07:37:48Z</time>
      </trkpt>
      <trkpt lat="44.08967" lon="7.03921">
        <ele>1496.5</ele>
        <time>2018-06-10T07:37:54Z</time>
      </trkpt>
      <trkpt lat="44.08982" lon="7.03918">
        <ele>1497.3</ele>
        <time>2018-06-10T07:38:01Z</time>
      </trkpt>
      <trkpt lat="44.08992" lon="7.03911">
        <ele>1497.9</ele>
        <time>2018-06-10T07:38:06Z</time>
      </trkpt>
      <trkpt lat="44.09" lon="7.03901">
        <ele>1498.6</ele>
        <time>2018-06-10T07:38:11Z</time>
      </trkpt>
      <trkpt lat="44.09007" lon="7.03886">
        <ele>1499.2</ele>
        <time>2018-06-10T07:38:17Z</time>
      </trkpt>
      <trkpt lat="44.09017" lon="7.03866">
        <ele>1500</ele>
        <time>2018-06-10T07:38:25Z</time>
      </trkpt>
      <trkpt lat="44.09028" lon="7.03845">
        <ele>1500.9</ele>
        <time>2018-06-10T07:38:34Z</time>
      </trkpt>
      <trkpt lat="44.09039" lon="7.03832">
        <ele>1501.5</ele>
        <time>2018-06-10T07:38:41Z</time>
      </trkpt>
      <trkpt lat="44.09051" lon="7.03819">
        <ele>1502.2</ele>
        <time>2018-06-10T07:38:48Z</time>
      </trkpt>
      <trkpt lat="44.0906" lon="7.03808">
        <ele>1502.7</ele>
        <time>2018-06-10T07:38:54Z</time>
      </trkpt>
      <trkpt lat="44.09068" lon="7.03796">
        <ele>1503.2</ele>
        <time>2018-06-10T07:39:00Z</time>
      </trkpt>
      <trkpt lat="44.09074" lon="7.03783">
        <ele>1503.7</ele>
        <time>2018-06-10T07:39:07Z</time>
      </trkpt>
      <trkpt lat="44.09081" lon="7.03769">
        <ele>1504.2</ele>
        <time>2018-06-10T07:39:13Z</time>
      </trkpt>
      <trkpt lat="44.0909" lon="7.03753">
        <ele>1504.9</ele>
        <time>2018-06-10T07:39:21Z</time>
      </trkpt>
      <trkpt lat="44.09098" lon="7.03741">
        <ele>1505.5</ele>
        <time>2018-06-10T07:39:27Z</time>
      </trkpt>
      <trkpt lat="44.09105" lon="7.03732">
        <ele>1506</ele>
        <time>2018-06-10T07:39:32Z</time>
      </trkpt>
      <trkpt lat="44.09115" lon="7.03717">
        <ele>1506.5</ele>
        <time>2018-06-10T07:39:39Z</time>
      </trkpt>
      <trkpt lat="44.09124" lon="7.03705">
        <ele>1506.9</ele>
        <time>2018-06-10T07:39:45Z</time>
      </trkpt>
      <trkpt lat="44.09135" lon="7.03693">
        <ele>1507.3</ele>
        <time>2018-06-10T07:39:51Z</time>
      </trkpt>
      <trkpt lat="44.09144" lon="7.03681">
        <ele>1507.6</ele>
        <time>2018-06-10T07:39:57Z</time>
      </trkpt>
      <trkpt lat="44.09157" lon="7.03671">
        <ele>1507.8</ele>
        <time>2018-06-10T07:40:04Z</time>
      </trkpt>
      <trkpt lat="44.09171" lon="7.03664">
        <ele>1508.5</ele>
        <time>2018-06-10T07:40:10Z</time>
      </trkpt>
      <trkpt lat="44.09182" lon="7.0366">
        <ele>1509.6</ele>
        <time>2018-06-10T07:40:16Z</time>
      </trkpt>
      <trkpt lat="44.09194" lon="7.03655">
        <ele>1510.7</ele>
        <time>2018-06-10T07:40:22Z</time>
      </trkpt>
      <trkpt lat="44.09206" lon="7.03646">
        <ele>1512</ele>
        <time>2018-06-10T07:40:29Z</time>
      </trkpt>
      <trkpt lat="44.09215" lon="7.03635">
        <ele>1513.2</ele>
        <time>2018-06-10T07:40:36Z</time>
      </trkpt>
      <trkpt lat="44.09224" lon="7.0362">
        <ele>1514.6</ele>
        <time>2018-06-10T07:40:43Z</time>
      </trkpt>
      <trkpt lat="44.09232" lon="7.03607">
        <ele>1515.8</ele>
        <time>2018-06-10T07:40:50Z</time>
      </trkpt>
      <trkpt lat="44.09241" lon="7.03597">
        <ele>1516.9</ele>
        <time>2018-06-10T07:40:57Z</time>
      </trkpt>
      <trkpt lat="44.09244" lon="7.03596">
        <ele>1517.3</ele>
        <time>2018-06-10T07:40:59Z</time>
      </trkpt>
      <trkpt lat="44.09252" lon="7.03591">
        <ele>1518.1</ele>
        <time>2018-06-10T07:41:03Z</time>
      </trkpt>
      <trkpt lat="44.09263" lon="7.03585">
        <ele>1519.2</ele>
        <time>2018-06-10T07:41:09Z</time>
      </trkpt>
      <trkpt lat="44.09273" lon="7.03579">
        <ele>1520</ele>
        <time>2018-06-10T07:41:14Z</time>
      </trkpt>
      <trkpt lat="44.09284" lon="7.03569">
        <ele>1521</ele>
        <time>2018-06-10T07:41:20Z</time>
      </trkpt>
      <trkpt lat="44.09296" lon="7.03558">
        <ele>1522</ele>
        <time>2018-06-10T07:41:26Z</time>
      </trkpt>
      <trkpt lat="44.09309" lon="7.03546">
        <ele>1522.9</ele>
        <time>2018-06-10T07:41:33Z</time>
      </trkpt>
      <trkpt lat="44.09323" lon="7.03538">
        <ele>1523.8</ele>
        <time>2018-06-10T07:41:40Z</time>
      </trkpt>
      <trkpt lat="44.09336" lon="7.03522">
        <ele>1525</ele>
        <time>2018-06-10T07:41:48Z</time>
      </trkpt>
      <trkpt lat="44.09343" lon="7.03505">
        <ele>1525.8</ele>
        <time>2018-06-10T07:41:55Z</time>
      </trkpt>
      <trkpt lat="44.09346" lon="7.03476">
        <ele>1526.7</ele>
        <time>2018-06-10T07:42:06Z</time>
      </trkpt>
      <trkpt lat="44.09345" lon="7.03473">
        <ele>1526.9</ele>
        <time>2018-06-10T07:42:07Z</time>
      </trkpt>
      <trkpt lat="44.09344" lon="7.03463">
        <ele>1528.3</ele>
        <time>2018-06-10T07:42:12Z</time>
      </trkpt>
      <trkpt lat="44.09345" lon="7.03458">
        <ele>1528.5</ele>
        <time>2018-06-10T07:42:14Z</time>
      </trkpt>
      <trkpt lat="44.09354" lon="7.03385">
        <ele>1528.3</ele>
        <time>2018-06-10T07:42:36Z</time>
      </trkpt>
      <trkpt lat="44.09359" lon="7.03347">
        <ele>1530.4</ele>
        <time>2018-06-10T07:42:45Z</time>
      </trkpt>
      <trkpt lat="44.09362" lon="7.03338">
        <ele>1530.4</ele>
        <time>2018-06-10T07:42:47Z</time>
      </trkpt>
      <trkpt lat="44.09379" lon="7.03285">
        <ele>1530.2</ele>
        <time>2018-06-10T07:43:03Z</time>
      </trkpt>
      <trkpt lat="44.09387" lon="7.0327">
        <ele>1529</ele>
        <time>2018-06-10T07:43:08Z</time>
      </trkpt>
      <trkpt lat="44.09388" lon="7.03267">
        <ele>1528.7</ele>
        <time>2018-06-10T07:43:09Z</time>
      </trkpt>
      <trkpt lat="44.09397" lon="7.0319">
        <ele>1528.4</ele>
        <time>2018-06-10T07:43:24Z</time>
      </trkpt>
      <trkpt lat="44.09403" lon="7.03136">
        <ele>1529.6</ele>
        <time>2018-06-10T07:43:35Z</time>
      </trkpt>
      <trkpt lat="44.09417" lon="7.03061">
        <ele>1531.7</ele>
        <time>2018-06-10T07:43:48Z</time>
      </trkpt>
      <trkpt lat="44.09426" lon="7.03027">
        <ele>1531.4</ele>
        <time>2018-06-10T07:43:54Z</time>
      </trkpt>
      <trkpt lat="44.09436" lon="7.03008">
        <ele>1531</ele>
        <time>2018-06-10T07:43:58Z</time>
      </trkpt>
      <trkpt lat="44.09469" lon="7.02944">
        <ele>1530.8</ele>
        <time>2018-06-10T07:44:14Z</time>
      </trkpt>
      <trkpt lat="44.09494" lon="7.02987">
        <ele>1526.5</ele>
        <time>2018-06-10T07:44:30Z</time>
      </trkpt>
      <trkpt lat="44.0949" lon="7.03012">
        <ele>1523.2</ele>
        <time>2018-06-10T07:44:36Z</time>
      </trkpt>
      <trkpt lat="44.09509" lon="7.03085">
        <ele>1516.9</ele>
        <time>2018-06-10T07:44:54Z</time>
      </trkpt>
      <trkpt lat="44.09533" lon="7.03158">
        <ele>1513.4</ele>
        <time>2018-06-10T07:45:11Z</time>
      </trkpt>
      <trkpt lat="44.09534" lon="7.03162">
        <ele>1513.3</ele>
        <time>2018-06-10T07:45:12Z</time>
      </trkpt>
      <trkpt lat="44.09541" lon="7.03238">
        <ele>1503.2</ele>
        <time>2018-06-10T07:45:28Z</time>
      </trkpt>
      <trkpt lat="44.09546" lon="7.03269">
        <ele>1498.9</ele>
        <time>2018-06-10T07:45:35Z</time>
      </trkpt>
      <trkpt lat="44.09582" lon="7.03324">
        <ele>1494.7</ele>
        <time>2018-06-10T07:45:52Z</time>
      </trkpt>
      <trkpt lat="44.09635" lon="7.03314">
        <ele>1509.9</ele>
        <time>2018-06-10T07:46:06Z</time>
      </trkpt>
      <trkpt lat="44.09681" lon="7.03295">
        <ele>1519.2</ele>
        <time>2018-06-10T07:46:17Z</time>
      </trkpt>
      <trkpt lat="44.09734" lon="7.03271">
        <ele>1519.6</ele>
        <time>2018-06-10T07:46:29Z</time>
      </trkpt>
      <trkpt lat="44.09742" lon="7.03264">
        <ele>1521.2</ele>
        <time>2018-06-10T07:46:31Z</time>
      </trkpt>
      <trkpt lat="44.09746" lon="7.03262">
        <ele>1521.8</ele>
        <time>2018-06-10T07:46:32Z</time>
      </trkpt>
      <trkpt lat="44.09766" lon="7.03279">
        <ele>1522.1</ele>
        <time>2018-06-10T07:46:39Z</time>
      </trkpt>
      <trkpt lat="44.09761" lon="7.03295">
        <ele>1519.3</ele>
        <time>2018-06-10T07:46:42Z</time>
      </trkpt>
      <trkpt lat="44.09742" lon="7.03364">
        <ele>1507.4</ele>
        <time>2018-06-10T07:47:01Z</time>
      </trkpt>
      <trkpt lat="44.09738" lon="7.03386">
        <ele>1503.5</ele>
        <time>2018-06-10T07:47:08Z</time>
      </trkpt>
      <trkpt lat="44.09738" lon="7.03423">
        <ele>1499.6</ele>
        <time>2018-06-10T07:47:19Z</time>
      </trkpt>
      <trkpt lat="44.09736" lon="7.03448">
        <ele>1496.9</ele>
        <time>2018-06-10T07:47:27Z</time>
      </trkpt>
      <trkpt lat="44.09738" lon="7.03464">
        <ele>1495.7</ele>
        <time>2018-06-10T07:47:33Z</time>
      </trkpt>
      <trkpt lat="44.0974" lon="7.03467">
        <ele>1495.5</ele>
        <time>2018-06-10T07:47:34Z</time>
      </trkpt>
      <trkpt lat="44.09758" lon="7.03481">
        <ele>1501.2</ele>
        <time>2018-06-10T07:47:43Z</time>
      </trkpt>
      <trkpt lat="44.09777" lon="7.03488">
        <ele>1508</ele>
        <time>2018-06-10T07:47:51Z</time>
      </trkpt>
      <trkpt lat="44.09796" lon="7.03492">
        <ele>1514.1</ele>
        <time>2018-06-10T07:47:58Z</time>
      </trkpt>
      <trkpt lat="44.09816" lon="7.03498">
        <ele>1517.6</ele>
        <time>2018-06-10T07:48:06Z</time>
      </trkpt>
      <trkpt lat="44.09831" lon="7.035">
        <ele>1519.4</ele>
        <time>2018-06-10T07:48:12Z</time>
      </trkpt>
      <trkpt lat="44.09849" lon="7.03498">
        <ele>1521</ele>
        <time>2018-06-10T07:48:20Z</time>
      </trkpt>
      <trkpt lat="44.0987" lon="7.03495">
        <ele>1522.5</ele>
        <time>2018-06-10T07:48:29Z</time>
      </trkpt>
      <trkpt lat="44.09883" lon="7.03491">
        <ele>1523.5</ele>
        <time>2018-06-10T07:48:34Z</time>
      </trkpt>
      <trkpt lat="44.09904" lon="7.03485">
        <ele>1526.3</ele>
        <time>2018-06-10T07:48:43Z</time>
      </trkpt>
      <trkpt lat="44.09915" lon="7.03492">
        <ele>1527.6</ele>
        <time>2018-06-10T07:48:48Z</time>
      </trkpt>
      <trkpt lat="44.09915" lon="7.03496">
        <ele>1527.6</ele>
        <time>2018-06-10T07:48:49Z</time>
      </trkpt>
      <trkpt lat="44.09914" lon="7.03503">
        <ele>1527.2</ele>
        <time>2018-06-10T07:48:51Z</time>
      </trkpt>
      <trkpt lat="44.09909" lon="7.03513">
        <ele>1525.6</ele>
        <time>2018-06-10T07:48:54Z</time>
      </trkpt>
      <trkpt lat="44.09898" lon="7.03534">
        <ele>1522.8</ele>
        <time>2018-06-10T07:49:01Z</time>
      </trkpt>
      <trkpt lat="44.09878" lon="7.0359">
        <ele>1519.9</ele>
        <time>2018-06-10T07:49:17Z</time>
      </trkpt>
      <trkpt lat="44.09862" lon="7.03629">
        <ele>1521</ele>
        <time>2018-06-10T07:49:30Z</time>
      </trkpt>
      <trkpt lat="44.09857" lon="7.0364">
        <ele>1520.9</ele>
        <time>2018-06-10T07:49:34Z</time>
      </trkpt>
      <trkpt lat="44.09851" lon="7.03651">
        <ele>1521.6</ele>
        <time>2018-06-10T07:49:39Z</time>
      </trkpt>
      <trkpt lat="44.09843" lon="7.03665">
        <ele>1522.3</ele>
        <time>2018-06-10T07:49:45Z</time>
      </trkpt>
      <trkpt lat="44.09835" lon="7.03676">
        <ele>1522.1</ele>
        <time>2018-06-10T07:49:50Z</time>
      </trkpt>
      <trkpt lat="44.09829" lon="7.03688">
        <ele>1522.9</ele>
        <time>2018-06-10T07:49:56Z</time>
      </trkpt>
      <trkpt lat="44.09827" lon="7.03705">
        <ele>1525</ele>
        <time>2018-06-10T07:50:03Z</time>
      </trkpt>
      <trkpt lat="44.09821" lon="7.03726">
        <ele>1528.5</ele>
        <time>2018-06-10T07:50:10Z</time>
      </trkpt>
      <trkpt lat="44.09801" lon="7.03738">
        <ele>1527.7</ele>
        <time>2018-06-10T07:50:19Z</time>
      </trkpt>
      <trkpt lat="44.09794" lon="7.03743">
        <ele>1525.4</ele>
        <time>2018-06-10T07:50:23Z</time>
      </trkpt>
      <trkpt lat="44.09784" lon="7.03751">
        <ele>1524.7</ele>
        <time>2018-06-10T07:50:29Z</time>
      </trkpt>
      <trkpt lat="44.09772" lon="7.03763">
        <ele>1522.2</ele>
        <time>2018-06-10T07:50:35Z</time>
      </trkpt>
      <trkpt lat="44.09762" lon="7.03769">
        <ele>1522.2</ele>
        <time>2018-06-10T07:50:40Z</time>
      </trkpt>
      <trkpt lat="44.0975" lon="7.03778">
        <ele>1521.7</ele>
        <time>2018-06-10T07:50:47Z</time>
      </trkpt>
      <trkpt lat="44.09738" lon="7.03792">
        <ele>1519.5</ele>
        <time>2018-06-10T07:50:54Z</time>
      </trkpt>
      <trkpt lat="44.09732" lon="7.03799">
        <ele>1519.6</ele>
        <time>2018-06-10T07:50:58Z</time>
      </trkpt>
      <trkpt lat="44.09724" lon="7.03808">
        <ele>1519.5</ele>
        <time>2018-06-10T07:51:03Z</time>
      </trkpt>
      <trkpt lat="44.09715" lon="7.03817">
        <ele>1520.3</ele>
        <time>2018-06-10T07:51:08Z</time>
      </trkpt>
      <trkpt lat="44.09702" lon="7.0383">
        <ele>1521.1</ele>
        <time>2018-06-10T07:51:14Z</time>
      </trkpt>
      <trkpt lat="44.0969" lon="7.03846">
        <ele>1521.6</ele>
        <time>2018-06-10T07:51:21Z</time>
      </trkpt>
      <trkpt lat="44.0968" lon="7.03864">
        <ele>1526.2</ele>
        <time>2018-06-10T07:51:28Z</time>
      </trkpt>
      <trkpt lat="44.09673" lon="7.03889">
        <ele>1532.1</ele>
        <time>2018-06-10T07:51:37Z</time>
      </trkpt>
      <trkpt lat="44.09673" lon="7.03905">
        <ele>1538.6</ele>
        <time>2018-06-10T07:51:43Z</time>
      </trkpt>
      <trkpt lat="44.09672" lon="7.03922">
        <ele>1544.3</ele>
        <time>2018-06-10T07:51:48Z</time>
      </trkpt>
      <trkpt lat="44.09671" lon="7.03941">
        <ele>1550.8</ele>
        <time>2018-06-10T07:51:54Z</time>
      </trkpt>
      <trkpt lat="44.09662" lon="7.03953">
        <ele>1553.9</ele>
        <time>2018-06-10T07:51:59Z</time>
      </trkpt>
      <trkpt lat="44.09653" lon="7.03963">
        <ele>1552.6</ele>
        <time>2018-06-10T07:52:04Z</time>
      </trkpt>
      <trkpt lat="44.09646" lon="7.03977">
        <ele>1551.1</ele>
        <time>2018-06-10T07:52:09Z</time>
      </trkpt>
      <trkpt lat="44.09637" lon="7.03995">
        <ele>1549.9</ele>
        <time>2018-06-10T07:52:16Z</time>
      </trkpt>
      <trkpt lat="44.09626" lon="7.04013">
        <ele>1549.3</ele>
        <time>2018-06-10T07:52:23Z</time>
      </trkpt>
      <trkpt lat="44.0962" lon="7.04024">
        <ele>1549.7</ele>
        <time>2018-06-10T07:52:27Z</time>
      </trkpt>
      <trkpt lat="44.09615" lon="7.04034">
        <ele>1549.5</ele>
        <time>2018-06-10T07:52:31Z</time>
      </trkpt>
      <trkpt lat="44.09612" lon="7.04042">
        <ele>1549.3</ele>
        <time>2018-06-10T07:52:34Z</time>
      </trkpt>
      <trkpt lat="44.09608" lon="7.0405">
        <ele>1548.8</ele>
        <time>2018-06-10T07:52:38Z</time>
      </trkpt>
      <trkpt lat="44.09603" lon="7.04062">
        <ele>1548.4</ele>
        <time>2018-06-10T07:52:43Z</time>
      </trkpt>
      <trkpt lat="44.09594" lon="7.04078">
        <ele>1549</ele>
        <time>2018-06-10T07:52:50Z</time>
      </trkpt>
      <trkpt lat="44.09588" lon="7.04091">
        <ele>1549.6</ele>
        <time>2018-06-10T07:52:56Z</time>
      </trkpt>
      <trkpt lat="44.09583" lon="7.04101">
        <ele>1552.1</ele>
        <time>2018-06-10T07:53:01Z</time>
      </trkpt>
      <trkpt lat="44.09578" lon="7.04113">
        <ele>1553.8</ele>
        <time>2018-06-10T07:53:06Z</time>
      </trkpt>
      <trkpt lat="44.09572" lon="7.04127">
        <ele>1555.7</ele>
        <time>2018-06-10T07:53:12Z</time>
      </trkpt>
      <trkpt lat="44.09566" lon="7.04147">
        <ele>1559.2</ele>
        <time>2018-06-10T07:53:20Z</time>
      </trkpt>
      <trkpt lat="44.09561" lon="7.04163">
        <ele>1562.2</ele>
        <time>2018-06-10T07:53:27Z</time>
      </trkpt>
      <trkpt lat="44.09559" lon="7.04176">
        <ele>1564.5</ele>
        <time>2018-06-10T07:53:32Z</time>
      </trkpt>
      <trkpt lat="44.09554" lon="7.04191">
        <ele>1568.8</ele>
        <time>2018-06-10T07:53:38Z</time>
      </trkpt>
      <trkpt lat="44.09549" lon="7.04206">
        <ele>1571.2</ele>
        <time>2018-06-10T07:53:44Z</time>
      </trkpt>
      <trkpt lat="44.09549" lon="7.0421">
        <ele>1572.8</ele>
        <time>2018-06-10T07:53:46Z</time>
      </trkpt>
      <trkpt lat="44.09556" lon="7.04209">
        <ele>1576.3</ele>
        <time>2018-06-10T07:53:54Z</time>
      </trkpt>
      <trkpt lat="44.09557" lon="7.04205">
        <ele>1576.7</ele>
        <time>2018-06-10T07:53:56Z</time>
      </trkpt>
      <trkpt lat="44.09559" lon="7.042">
        <ele>1576.4</ele>
        <time>2018-06-10T07:53:58Z</time>
      </trkpt>
      <trkpt lat="44.09567" lon="7.04179">
        <ele>1570.3</ele>
        <time>2018-06-10T07:54:06Z</time>
      </trkpt>
      <trkpt lat="44.09581" lon="7.04159">
        <ele>1566.8</ele>
        <time>2018-06-10T07:54:15Z</time>
      </trkpt>
      <trkpt lat="44.09595" lon="7.04142">
        <ele>1564.6</ele>
        <time>2018-06-10T07:54:24Z</time>
      </trkpt>
      <trkpt lat="44.09603" lon="7.04134">
        <ele>1563</ele>
        <time>2018-06-10T07:54:29Z</time>
      </trkpt>
      <trkpt lat="44.09613" lon="7.04122">
        <ele>1561.9</ele>
        <time>2018-06-10T07:54:36Z</time>
      </trkpt>
      <trkpt lat="44.09626" lon="7.04109">
        <ele>1561.8</ele>
        <time>2018-06-10T07:54:44Z</time>
      </trkpt>
      <trkpt lat="44.09636" lon="7.04099">
        <ele>1562.1</ele>
        <time>2018-06-10T07:54:50Z</time>
      </trkpt>
      <trkpt lat="44.09646" lon="7.04088">
        <ele>1563.8</ele>
        <time>2018-06-10T07:54:57Z</time>
      </trkpt>
      <trkpt lat="44.09657" lon="7.04078">
        <ele>1565.5</ele>
        <time>2018-06-10T07:55:04Z</time>
      </trkpt>
      <trkpt lat="44.09671" lon="7.04067">
        <ele>1566.8</ele>
        <time>2018-06-10T07:55:13Z</time>
      </trkpt>
      <trkpt lat="44.09684" lon="7.04055">
        <ele>1570.6</ele>
        <time>2018-06-10T07:55:21Z</time>
      </trkpt>
      <trkpt lat="44.09698" lon="7.04044">
        <ele>1573.9</ele>
        <time>2018-06-10T07:55:28Z</time>
      </trkpt>
      <trkpt lat="44.09708" lon="7.04036">
        <ele>1578.2</ele>
        <time>2018-06-10T07:55:33Z</time>
      </trkpt>
      <trkpt lat="44.09722" lon="7.04026">
        <ele>1583.1</ele>
        <time>2018-06-10T07:55:40Z</time>
      </trkpt>
      <trkpt lat="44.09729" lon="7.04018">
        <ele>1586.3</ele>
        <time>2018-06-10T07:55:45Z</time>
      </trkpt>
      <trkpt lat="44.09735" lon="7.04005">
        <ele>1589.2</ele>
        <time>2018-06-10T07:55:51Z</time>
      </trkpt>
      <trkpt lat="44.09742" lon="7.03985">
        <ele>1588.9</ele>
        <time>2018-06-10T07:55:58Z</time>
      </trkpt>
      <trkpt lat="44.09752" lon="7.03971">
        <ele>1587.2</ele>
        <time>2018-06-10T07:56:04Z</time>
      </trkpt>
      <trkpt lat="44.09764" lon="7.03962">
        <ele>1586.5</ele>
        <time>2018-06-10T07:56:11Z</time>
      </trkpt>
      <trkpt lat="44.09781" lon="7.03952">
        <ele>1588</ele>
        <time>2018-06-10T07:56:19Z</time>
      </trkpt>
      <trkpt lat="44.09792" lon="7.03944">
        <ele>1588.3</ele>
        <time>2018-06-10T07:56:26Z</time>
      </trkpt>
      <trkpt lat="44.09802" lon="7.03938">
        <ele>1588.9</ele>
        <time>2018-06-10T07:56:32Z</time>
      </trkpt>
      <trkpt lat="44.09816" lon="7.03929">
        <ele>1591.2</ele>
        <time>2018-06-10T07:56:40Z</time>
      </trkpt>
      <trkpt lat="44.09828" lon="7.03927">
        <ele>1592.6</ele>
        <time>2018-06-10T07:56:47Z</time>
      </trkpt>
      <trkpt lat="44.09848" lon="7.03918">
        <ele>1595.5</ele>
        <time>2018-06-10T07:56:56Z</time>
      </trkpt>
      <trkpt lat="44.09867" lon="7.03901">
        <ele>1597.3</ele>
        <time>2018-06-10T07:57:04Z</time>
      </trkpt>
      <trkpt lat="44.09886" lon="7.03884">
        <ele>1593.9</ele>
        <time>2018-06-10T07:57:13Z</time>
      </trkpt>
      <trkpt lat="44.09899" lon="7.03871">
        <ele>1593</ele>
        <time>2018-06-10T07:57:20Z</time>
      </trkpt>
      <trkpt lat="44.09914" lon="7.03862">
        <ele>1592.2</ele>
        <time>2018-06-10T07:57:27Z</time>
      </trkpt>
      <trkpt lat="44.09934" lon="7.0385">
        <ele>1592.9</ele>
        <time>2018-06-10T07:57:36Z</time>
      </trkpt>
      <trkpt lat="44.09948" lon="7.03842">
        <ele>1594</ele>
        <time>2018-06-10T07:57:43Z</time>
      </trkpt>
      <trkpt lat="44.09965" lon="7.03833">
        <ele>1596.7</ele>
        <time>2018-06-10T07:57:51Z</time>
      </trkpt>
      <trkpt lat="44.09977" lon="7.03827">
        <ele>1598.3</ele>
        <time>2018-06-10T07:57:57Z</time>
      </trkpt>
      <trkpt lat="44.09979" lon="7.03826">
        <ele>1598.7</ele>
        <time>2018-06-10T07:57:58Z</time>
      </trkpt>
      <trkpt lat="44.09992" lon="7.03817">
        <ele>1601.1</ele>
        <time>2018-06-10T07:58:06Z</time>
      </trkpt>
      <trkpt lat="44.10004" lon="7.03803">
        <ele>1602.7</ele>
        <time>2018-06-10T07:58:14Z</time>
      </trkpt>
      <trkpt lat="44.10016" lon="7.03786">
        <ele>1604.1</ele>
        <time>2018-06-10T07:58:22Z</time>
      </trkpt>
      <trkpt lat="44.10023" lon="7.03776">
        <ele>1605.5</ele>
        <time>2018-06-10T07:58:27Z</time>
      </trkpt>
      <trkpt lat="44.1003" lon="7.03764">
        <ele>1607.2</ele>
        <time>2018-06-10T07:58:33Z</time>
      </trkpt>
      <trkpt lat="44.10039" lon="7.03749">
        <ele>1608.2</ele>
        <time>2018-06-10T07:58:40Z</time>
      </trkpt>
      <trkpt lat="44.1005" lon="7.03732">
        <ele>1608.7</ele>
        <time>2018-06-10T07:58:48Z</time>
      </trkpt>
      <trkpt lat="44.10061" lon="7.03714">
        <ele>1609.9</ele>
        <time>2018-06-10T07:58:57Z</time>
      </trkpt>
      <trkpt lat="44.10068" lon="7.03702">
        <ele>1611.4</ele>
        <time>2018-06-10T07:59:03Z</time>
      </trkpt>
      <trkpt lat="44.10077" lon="7.03684">
        <ele>1612.3</ele>
        <time>2018-06-10T07:59:11Z</time>
      </trkpt>
      <trkpt lat="44.10085" lon="7.03667">
        <ele>1613.5</ele>
        <time>2018-06-10T07:59:18Z</time>
      </trkpt>
      <trkpt lat="44.10096" lon="7.03647">
        <ele>1615.5</ele>
        <time>2018-06-10T07:59:27Z</time>
      </trkpt>
      <trkpt lat="44.1011" lon="7.03628">
        <ele>1617.7</ele>
        <time>2018-06-10T07:59:37Z</time>
      </trkpt>
      <trkpt lat="44.10118" lon="7.03612">
        <ele>1620.2</ele>
        <time>2018-06-10T07:59:44Z</time>
      </trkpt>
      <trkpt lat="44.10125" lon="7.03588">
        <ele>1621.1</ele>
        <time>2018-06-10T07:59:53Z</time>
      </trkpt>
      <trkpt lat="44.10127" lon="7.03577">
        <ele>1621.6</ele>
        <time>2018-06-10T07:59:57Z</time>
      </trkpt>
      <trkpt lat="44.10131" lon="7.03562">
        <ele>1622</ele>
        <time>2018-06-10T08:00:03Z</time>
      </trkpt>
      <trkpt lat="44.10134" lon="7.03546">
        <ele>1622.9</ele>
        <time>2018-06-10T08:00:09Z</time>
      </trkpt>
      <trkpt lat="44.10136" lon="7.03526">
        <ele>1623.4</ele>
        <time>2018-06-10T08:00:16Z</time>
      </trkpt>
      <trkpt lat="44.10137" lon="7.03514">
        <ele>1623.5</ele>
        <time>2018-06-10T08:00:20Z</time>
      </trkpt>
      <trkpt lat="44.10139" lon="7.03492">
        <ele>1624.3</ele>
        <time>2018-06-10T08:00:28Z</time>
      </trkpt>
      <trkpt lat="44.10145" lon="7.03471">
        <ele>1625.1</ele>
        <time>2018-06-10T08:00:36Z</time>
      </trkpt>
      <trkpt lat="44.1015" lon="7.03454">
        <ele>1626.1</ele>
        <time>2018-06-10T08:00:43Z</time>
      </trkpt>
      <trkpt lat="44.10155" lon="7.03441">
        <ele>1626.8</ele>
        <time>2018-06-10T08:00:49Z</time>
      </trkpt>
      <trkpt lat="44.1016" lon="7.03427">
        <ele>1627.4</ele>
        <time>2018-06-10T08:00:55Z</time>
      </trkpt>
      <trkpt lat="44.10166" lon="7.03413">
        <ele>1628.5</ele>
        <time>2018-06-10T08:01:02Z</time>
      </trkpt>
      <trkpt lat="44.10172" lon="7.03397">
        <ele>1631</ele>
        <time>2018-06-10T08:01:10Z</time>
      </trkpt>
      <trkpt lat="44.10177" lon="7.03384">
        <ele>1632.3</ele>
        <time>2018-06-10T08:01:16Z</time>
      </trkpt>
      <trkpt lat="44.10182" lon="7.03369">
        <ele>1633</ele>
        <time>2018-06-10T08:01:23Z</time>
      </trkpt>
      <trkpt lat="44.10186" lon="7.03358">
        <ele>1633.9</ele>
        <time>2018-06-10T08:01:28Z</time>
      </trkpt>
      <trkpt lat="44.10192" lon="7.0334">
        <ele>1635.8</ele>
        <time>2018-06-10T08:01:36Z</time>
      </trkpt>
      <trkpt lat="44.10197" lon="7.0332">
        <ele>1638.1</ele>
        <time>2018-06-10T08:01:44Z</time>
      </trkpt>
      <trkpt lat="44.102" lon="7.03297">
        <ele>1640.5</ele>
        <time>2018-06-10T08:01:53Z</time>
      </trkpt>
      <trkpt lat="44.10201" lon="7.03268">
        <ele>1640.5</ele>
        <time>2018-06-10T08:02:04Z</time>
      </trkpt>
      <trkpt lat="44.102" lon="7.03248">
        <ele>1641</ele>
        <time>2018-06-10T08:02:11Z</time>
      </trkpt>
      <trkpt lat="44.10201" lon="7.03223">
        <ele>1642.2</ele>
        <time>2018-06-10T08:02:20Z</time>
      </trkpt>
      <trkpt lat="44.10202" lon="7.03202">
        <ele>1644.7</ele>
        <time>2018-06-10T08:02:28Z</time>
      </trkpt>
      <trkpt lat="44.10205" lon="7.03181">
        <ele>1646.1</ele>
        <time>2018-06-10T08:02:36Z</time>
      </trkpt>
      <trkpt lat="44.10202" lon="7.03156">
        <ele>1646.4</ele>
        <time>2018-06-10T08:02:46Z</time>
      </trkpt>
      <trkpt lat="44.10199" lon="7.03137">
        <ele>1647.3</ele>
        <time>2018-06-10T08:02:53Z</time>
      </trkpt>
      <trkpt lat="44.10197" lon="7.0312">
        <ele>1646.6</ele>
        <time>2018-06-10T08:03:00Z</time>
      </trkpt>
      <trkpt lat="44.10194" lon="7.03098">
        <ele>1646.1</ele>
        <time>2018-06-10T08:03:08Z</time>
      </trkpt>
      <trkpt lat="44.1019" lon="7.03076">
        <ele>1644.8</ele>
        <time>2018-06-10T08:03:16Z</time>
      </trkpt>
      <trkpt lat="44.10189" lon="7.0306">
        <ele>1643.6</ele>
        <time>2018-06-10T08:03:22Z</time>
      </trkpt>
      <trkpt lat="44.10189" lon="7.03039">
        <ele>1643.3</ele>
        <time>2018-06-10T08:03:29Z</time>
      </trkpt>
      <trkpt lat="44.10189" lon="7.03013">
        <ele>1644.6</ele>
        <time>2018-06-10T08:03:37Z</time>
      </trkpt>
      <trkpt lat="44.10196" lon="7.02968">
        <ele>1647.9</ele>
        <time>2018-06-10T08:03:50Z</time>
      </trkpt>
      <trkpt lat="44.10206" lon="7.02929">
        <ele>1651.2</ele>
        <time>2018-06-10T08:04:03Z</time>
      </trkpt>
      <trkpt lat="44.10206" lon="7.02946">
        <ele>1651.7</ele>
        <time>2018-06-10T08:04:12Z</time>
      </trkpt>
      <trkpt lat="44.10206" lon="7.02951">
        <ele>1652.1</ele>
        <time>2018-06-10T08:04:14Z</time>
      </trkpt>
      <trkpt lat="44.10206" lon="7.02976">
        <ele>1653.2</ele>
        <time>2018-06-10T08:04:24Z</time>
      </trkpt>
      <trkpt lat="44.10206" lon="7.02994">
        <ele>1653.3</ele>
        <time>2018-06-10T08:04:32Z</time>
      </trkpt>
      <trkpt lat="44.10208" lon="7.03011">
        <ele>1653.4</ele>
        <time>2018-06-10T08:04:40Z</time>
      </trkpt>
      <trkpt lat="44.10213" lon="7.03025">
        <ele>1655.8</ele>
        <time>2018-06-10T08:04:47Z</time>
      </trkpt>
      <trkpt lat="44.10218" lon="7.03036">
        <ele>1658.1</ele>
        <time>2018-06-10T08:04:53Z</time>
      </trkpt>
      <trkpt lat="44.10222" lon="7.03046">
        <ele>1659.9</ele>
        <time>2018-06-10T08:04:58Z</time>
      </trkpt>
      <trkpt lat="44.10226" lon="7.03057">
        <ele>1662.5</ele>
        <time>2018-06-10T08:05:04Z</time>
      </trkpt>
      <trkpt lat="44.10231" lon="7.03071">
        <ele>1665.1</ele>
        <time>2018-06-10T08:05:11Z</time>
      </trkpt>
      <trkpt lat="44.10237" lon="7.0309">
        <ele>1667.4</ele>
        <time>2018-06-10T08:05:19Z</time>
      </trkpt>
      <trkpt lat="44.10242" lon="7.03105">
        <ele>1668.1</ele>
        <time>2018-06-10T08:05:25Z</time>
      </trkpt>
      <trkpt lat="44.10245" lon="7.03118">
        <ele>1670.5</ele>
        <time>2018-06-10T08:05:30Z</time>
      </trkpt>
      <trkpt lat="44.1025" lon="7.0313">
        <ele>1670.9</ele>
        <time>2018-06-10T08:05:35Z</time>
      </trkpt>
      <trkpt lat="44.10254" lon="7.03141">
        <ele>1671.6</ele>
        <time>2018-06-10T08:05:40Z</time>
      </trkpt>
      <trkpt lat="44.10264" lon="7.03158">
        <ele>1672.9</ele>
        <time>2018-06-10T08:05:47Z</time>
      </trkpt>
      <trkpt lat="44.10273" lon="7.03168">
        <ele>1675.1</ele>
        <time>2018-06-10T08:05:53Z</time>
      </trkpt>
      <trkpt lat="44.10289" lon="7.03183">
        <ele>1679.1</ele>
        <time>2018-06-10T08:06:02Z</time>
      </trkpt>
      <trkpt lat="44.10303" lon="7.03199">
        <ele>1681.7</ele>
        <time>2018-06-10T08:06:10Z</time>
      </trkpt>
      <trkpt lat="44.1032" lon="7.03228">
        <ele>1684.6</ele>
        <time>2018-06-10T08:06:21Z</time>
      </trkpt>
      <trkpt lat="44.10328" lon="7.0324">
        <ele>1684.6</ele>
        <time>2018-06-10T08:06:25Z</time>
      </trkpt>
      <trkpt lat="44.1035" lon="7.03308">
        <ele>1684.9</ele>
        <time>2018-06-10T08:06:43Z</time>
      </trkpt>
      <trkpt lat="44.1035" lon="7.03313">
        <ele>1684.7</ele>
        <time>2018-06-10T08:06:44Z</time>
      </trkpt>
      <trkpt lat="44.1034" lon="7.03352">
        <ele>1679.3</ele>
        <time>2018-06-10T08:06:54Z</time>
      </trkpt>
      <trkpt lat="44.10341" lon="7.03384">
        <ele>1678.7</ele>
        <time>2018-06-10T08:07:02Z</time>
      </trkpt>
      <trkpt lat="44.10346" lon="7.03381">
        <ele>1679.5</ele>
        <time>2018-06-10T08:07:06Z</time>
      </trkpt>
      <trkpt lat="44.10356" lon="7.03372">
        <ele>1681.3</ele>
        <time>2018-06-10T08:07:15Z</time>
      </trkpt>
      <trkpt lat="44.10358" lon="7.0337">
        <ele>1681.8</ele>
        <time>2018-06-10T08:07:17Z</time>
      </trkpt>
      <trkpt lat="44.10364" lon="7.03366">
        <ele>1682.6</ele>
        <time>2018-06-10T08:07:20Z</time>
      </trkpt>
      <trkpt lat="44.10368" lon="7.03361">
        <ele>1683.1</ele>
        <time>2018-06-10T08:07:23Z</time>
      </trkpt>
      <trkpt lat="44.10371" lon="7.03355">
        <ele>1684.1</ele>
        <time>2018-06-10T08:07:27Z</time>
      </trkpt>
      <trkpt lat="44.10372" lon="7.03354">
        <ele>1684.4</ele>
        <time>2018-06-10T08:07:28Z</time>
      </trkpt>
      <trkpt lat="44.10375" lon="7.03343">
        <ele>1685.5</ele>
        <time>2018-06-10T08:07:33Z</time>
      </trkpt>
      <trkpt lat="44.10375" lon="7.03341">
        <ele>1685.9</ele>
        <time>2018-06-10T08:07:34Z</time>
      </trkpt>
      <trkpt lat="44.10378" lon="7.03332">
        <ele>1687.3</ele>
        <time>2018-06-10T08:07:38Z</time>
      </trkpt>
      <trkpt lat="44.10381" lon="7.03289">
        <ele>1692.5</ele>
        <time>2018-06-10T08:07:51Z</time>
      </trkpt>
      <trkpt lat="44.10386" lon="7.03254">
        <ele>1697.6</ele>
        <time>2018-06-10T08:08:02Z</time>
      </trkpt>
      <trkpt lat="44.10395" lon="7.03232">
        <ele>1701</ele>
        <time>2018-06-10T08:08:10Z</time>
      </trkpt>
      <trkpt lat="44.10402" lon="7.03217">
        <ele>1702.7</ele>
        <time>2018-06-10T08:08:16Z</time>
      </trkpt>
      <trkpt lat="44.10407" lon="7.03211">
        <ele>1703.6</ele>
        <time>2018-06-10T08:08:19Z</time>
      </trkpt>
      <trkpt lat="44.10408" lon="7.03209">
        <ele>1703.8</ele>
        <time>2018-06-10T08:08:20Z</time>
      </trkpt>
      <trkpt lat="44.1042" lon="7.03199">
        <ele>1704.4</ele>
        <time>2018-06-10T08:08:28Z</time>
      </trkpt>
      <trkpt lat="44.10427" lon="7.03193">
        <ele>1705</ele>
        <time>2018-06-10T08:08:32Z</time>
      </trkpt>
      <trkpt lat="44.10435" lon="7.03182">
        <ele>1705.8</ele>
        <time>2018-06-10T08:08:38Z</time>
      </trkpt>
      <trkpt lat="44.10444" lon="7.03169">
        <ele>1707.5</ele>
        <time>2018-06-10T08:08:45Z</time>
      </trkpt>
      <trkpt lat="44.10452" lon="7.0315">
        <ele>1710.7</ele>
        <time>2018-06-10T08:08:51Z</time>
      </trkpt>
      <trkpt lat="44.1048" lon="7.03108">
        <ele>1718.3</ele>
        <time>2018-06-10T08:09:07Z</time>
      </trkpt>
      <trkpt lat="44.10492" lon="7.03107">
        <ele>1716.1</ele>
        <time>2018-06-10T08:09:15Z</time>
      </trkpt>
      <trkpt lat="44.10501" lon="7.03107">
        <ele>1715</ele>
        <time>2018-06-10T08:09:20Z</time>
      </trkpt>
      <trkpt lat="44.10509" lon="7.03105">
        <ele>1714.3</ele>
        <time>2018-06-10T08:09:25Z</time>
      </trkpt>
      <trkpt lat="44.10517" lon="7.03104">
        <ele>1714.9</ele>
        <time>2018-06-10T08:09:30Z</time>
      </trkpt>
      <trkpt lat="44.10526" lon="7.031">
        <ele>1714.7</ele>
        <time>2018-06-10T08:09:36Z</time>
      </trkpt>
      <trkpt lat="44.10538" lon="7.03093">
        <ele>1715.7</ele>
        <time>2018-06-10T08:09:43Z</time>
      </trkpt>
      <trkpt lat="44.10547" lon="7.03088">
        <ele>1717.3</ele>
        <time>2018-06-10T08:09:49Z</time>
      </trkpt>
      <trkpt lat="44.10552" lon="7.03086">
        <ele>1718.3</ele>
        <time>2018-06-10T08:09:53Z</time>
      </trkpt>
      <trkpt lat="44.10556" lon="7.03084">
        <ele>1719</ele>
        <time>2018-06-10T08:09:56Z</time>
      </trkpt>
      <trkpt lat="44.1056" lon="7.03083">
        <ele>1719.6</ele>
        <time>2018-06-10T08:09:59Z</time>
      </trkpt>
      <trkpt lat="44.10568" lon="7.0308">
        <ele>1720.5</ele>
        <time>2018-06-10T08:10:05Z</time>
      </trkpt>
      <trkpt lat="44.10573" lon="7.0308">
        <ele>1721.7</ele>
        <time>2018-06-10T08:10:09Z</time>
      </trkpt>
      <trkpt lat="44.1058" lon="7.03077">
        <ele>1722.7</ele>
        <time>2018-06-10T08:10:13Z</time>
      </trkpt>
      <trkpt lat="44.10585" lon="7.03072">
        <ele>1725.1</ele>
        <time>2018-06-10T08:10:17Z</time>
      </trkpt>
      <trkpt lat="44.10591" lon="7.03066">
        <ele>1727.4</ele>
        <time>2018-06-10T08:10:21Z</time>
      </trkpt>
      <trkpt lat="44.10597" lon="7.03058">
        <ele>1729.9</ele>
        <time>2018-06-10T08:10:27Z</time>
      </trkpt>
      <trkpt lat="44.10607" lon="7.03046">
        <ele>1732.8</ele>
        <time>2018-06-10T08:10:36Z</time>
      </trkpt>
      <trkpt lat="44.10613" lon="7.03039">
        <ele>1734.8</ele>
        <time>2018-06-10T08:10:42Z</time>
      </trkpt>
      <trkpt lat="44.10618" lon="7.03028">
        <ele>1737.7</ele>
        <time>2018-06-10T08:10:49Z</time>
      </trkpt>
      <trkpt lat="44.10624" lon="7.03013">
        <ele>1741.3</ele>
        <time>2018-06-10T08:10:56Z</time>
      </trkpt>
      <trkpt lat="44.10623" lon="7.02991">
        <ele>1744.4</ele>
        <time>2018-06-10T08:11:04Z</time>
      </trkpt>
      <trkpt lat="44.10621" lon="7.0297">
        <ele>1746.9</ele>
        <time>2018-06-10T08:11:12Z</time>
      </trkpt>
      <trkpt lat="44.10624" lon="7.0296">
        <ele>1748.3</ele>
        <time>2018-06-10T08:11:17Z</time>
      </trkpt>
      <trkpt lat="44.10631" lon="7.02959">
        <ele>1749.2</ele>
        <time>2018-06-10T08:11:22Z</time>
      </trkpt>
      <trkpt lat="44.10645" lon="7.0296">
        <ele>1750.7</ele>
        <time>2018-06-10T08:11:30Z</time>
      </trkpt>
      <trkpt lat="44.10656" lon="7.02964">
        <ele>1752.8</ele>
        <time>2018-06-10T08:11:38Z</time>
      </trkpt>
      <trkpt lat="44.10662" lon="7.02969">
        <ele>1754.3</ele>
        <time>2018-06-10T08:11:45Z</time>
      </trkpt>
      <trkpt lat="44.10666" lon="7.02971">
        <ele>1755.2</ele>
        <time>2018-06-10T08:11:50Z</time>
      </trkpt>
      <trkpt lat="44.10673" lon="7.02975">
        <ele>1756.8</ele>
        <time>2018-06-10T08:11:57Z</time>
      </trkpt>
      <trkpt lat="44.10679" lon="7.02979">
        <ele>1757.9</ele>
        <time>2018-06-10T08:12:04Z</time>
      </trkpt>
      <trkpt lat="44.10684" lon="7.02985">
        <ele>1758.7</ele>
        <time>2018-06-10T08:12:10Z</time>
      </trkpt>
      <trkpt lat="44.10688" lon="7.02989">
        <ele>1759.4</ele>
        <time>2018-06-10T08:12:15Z</time>
      </trkpt>
      <trkpt lat="44.10692" lon="7.0299">
        <ele>1760</ele>
        <time>2018-06-10T08:12:20Z</time>
      </trkpt>
      <trkpt lat="44.10697" lon="7.02993">
        <ele>1760.5</ele>
        <time>2018-06-10T08:12:25Z</time>
      </trkpt>
      <trkpt lat="44.10707" lon="7.02998">
        <ele>1762.4</ele>
        <time>2018-06-10T08:12:31Z</time>
      </trkpt>
      <trkpt lat="44.10712" lon="7.03002">
        <ele>1763.1</ele>
        <time>2018-06-10T08:12:35Z</time>
      </trkpt>
      <trkpt lat="44.10718" lon="7.03004">
        <ele>1763.9</ele>
        <time>2018-06-10T08:12:40Z</time>
      </trkpt>
      <trkpt lat="44.10726" lon="7.03006">
        <ele>1764.9</ele>
        <time>2018-06-10T08:12:45Z</time>
      </trkpt>
      <trkpt lat="44.10728" lon="7.03006">
        <ele>1765.1</ele>
        <time>2018-06-10T08:12:46Z</time>
      </trkpt>
      <trkpt lat="44.10733" lon="7.03002">
        <ele>1766.4</ele>
        <time>2018-06-10T08:12:50Z</time>
      </trkpt>
      <trkpt lat="44.10734" lon="7.03">
        <ele>1766.8</ele>
        <time>2018-06-10T08:12:52Z</time>
      </trkpt>
      <trkpt lat="44.10735" lon="7.02998">
        <ele>1766.8</ele>
        <time>2018-06-10T08:12:53Z</time>
      </trkpt>
      <trkpt lat="44.10734" lon="7.02996">
        <ele>1767</ele>
        <time>2018-06-10T08:12:55Z</time>
      </trkpt>
      <trkpt lat="44.10733" lon="7.02993">
        <ele>1767.1</ele>
        <time>2018-06-10T08:12:57Z</time>
      </trkpt>
      <trkpt lat="44.10732" lon="7.0299">
        <ele>1767.3</ele>
        <time>2018-06-10T08:13:01Z</time>
      </trkpt>
      <trkpt lat="44.10731" lon="7.02976">
        <ele>1767.1</ele>
        <time>2018-06-10T08:13:11Z</time>
      </trkpt>
      <trkpt lat="44.1073" lon="7.02965">
        <ele>1766.9</ele>
        <time>2018-06-10T08:13:18Z</time>
      </trkpt>
      <trkpt lat="44.10726" lon="7.02953">
        <ele>1767.1</ele>
        <time>2018-06-10T08:13:25Z</time>
      </trkpt>
      <trkpt lat="44.10721" lon="7.0294">
        <ele>1767.5</ele>
        <time>2018-06-10T08:13:33Z</time>
      </trkpt>
      <trkpt lat="44.10716" lon="7.02927">
        <ele>1767.8</ele>
        <time>2018-06-10T08:13:41Z</time>
      </trkpt>
      <trkpt lat="44.10712" lon="7.02917">
        <ele>1768.2</ele>
        <time>2018-06-10T08:13:47Z</time>
      </trkpt>
      <trkpt lat="44.10709" lon="7.02904">
        <ele>1768.2</ele>
        <time>2018-06-10T08:13:54Z</time>
      </trkpt>
      <trkpt lat="44.10705" lon="7.02894">
        <ele>1768.2</ele>
        <time>2018-06-10T08:14:00Z</time>
      </trkpt>
      <trkpt lat="44.10697" lon="7.02883">
        <ele>1767.9</ele>
        <time>2018-06-10T08:14:07Z</time>
      </trkpt>
      <trkpt lat="44.10693" lon="7.02878">
        <ele>1767.8</ele>
        <time>2018-06-10T08:14:11Z</time>
      </trkpt>
      <trkpt lat="44.10687" lon="7.0287">
        <ele>1767.4</ele>
        <time>2018-06-10T08:14:16Z</time>
      </trkpt>
      <trkpt lat="44.10682" lon="7.0286">
        <ele>1766.9</ele>
        <time>2018-06-10T08:14:22Z</time>
      </trkpt>
      <trkpt lat="44.10677" lon="7.02849">
        <ele>1766.2</ele>
        <time>2018-06-10T08:14:29Z</time>
      </trkpt>
      <trkpt lat="44.10671" lon="7.02834">
        <ele>1765.5</ele>
        <time>2018-06-10T08:14:37Z</time>
      </trkpt>
      <trkpt lat="44.10667" lon="7.02822">
        <ele>1765.1</ele>
        <time>2018-06-10T08:14:43Z</time>
      </trkpt>
      <trkpt lat="44.10667" lon="7.02811">
        <ele>1765</ele>
        <time>2018-06-10T08:14:48Z</time>
      </trkpt>
      <trkpt lat="44.10671" lon="7.02801">
        <ele>1765.1</ele>
        <time>2018-06-10T08:14:53Z</time>
      </trkpt>
      <trkpt lat="44.10699" lon="7.0281">
        <ele>1768.4</ele>
        <time>2018-06-10T08:15:09Z</time>
      </trkpt>
      <trkpt lat="44.10749" lon="7.0284">
        <ele>1776.9</ele>
        <time>2018-06-10T08:15:35Z</time>
      </trkpt>
      <trkpt lat="44.10757" lon="7.02842">
        <ele>1777.8</ele>
        <time>2018-06-10T08:15:41Z</time>
      </trkpt>
      <trkpt lat="44.10761" lon="7.02841">
        <ele>1778.3</ele>
        <time>2018-06-10T08:15:44Z</time>
      </trkpt>
      <trkpt lat="44.10767" lon="7.02838">
        <ele>1778.9</ele>
        <time>2018-06-10T08:15:48Z</time>
      </trkpt>
      <trkpt lat="44.10773" lon="7.02834">
        <ele>1779.3</ele>
        <time>2018-06-10T08:15:52Z</time>
      </trkpt>
      <trkpt lat="44.1078" lon="7.02829">
        <ele>1779.6</ele>
        <time>2018-06-10T08:15:57Z</time>
      </trkpt>
      <trkpt lat="44.10804" lon="7.02798">
        <ele>1781.9</ele>
        <time>2018-06-10T08:16:15Z</time>
      </trkpt>
      <trkpt lat="44.10812" lon="7.02791">
        <ele>1782.1</ele>
        <time>2018-06-10T08:16:22Z</time>
      </trkpt>
      <trkpt lat="44.10817" lon="7.0279">
        <ele>1782.3</ele>
        <time>2018-06-10T08:16:26Z</time>
      </trkpt>
      <trkpt lat="44.10822" lon="7.02786">
        <ele>1782.7</ele>
        <time>2018-06-10T08:16:30Z</time>
      </trkpt>
      <trkpt lat="44.10827" lon="7.02782">
        <ele>1783.4</ele>
        <time>2018-06-10T08:16:34Z</time>
      </trkpt>
      <trkpt lat="44.10837" lon="7.02774">
        <ele>1785.2</ele>
        <time>2018-06-10T08:16:41Z</time>
      </trkpt>
      <trkpt lat="44.10844" lon="7.02769">
        <ele>1786.3</ele>
        <time>2018-06-10T08:16:45Z</time>
      </trkpt>
      <trkpt lat="44.10854" lon="7.0276">
        <ele>1787.6</ele>
        <time>2018-06-10T08:16:51Z</time>
      </trkpt>
      <trkpt lat="44.10868" lon="7.02744">
        <ele>1789.4</ele>
        <time>2018-06-10T08:16:59Z</time>
      </trkpt>
      <trkpt lat="44.1088" lon="7.02717">
        <ele>1791.2</ele>
        <time>2018-06-10T08:17:06Z</time>
      </trkpt>
      <trkpt lat="44.10903" lon="7.02672">
        <ele>1795</ele>
        <time>2018-06-10T08:17:13Z</time>
      </trkpt>
      <trkpt lat="44.10907" lon="7.02647">
        <ele>1796.9</ele>
        <time>2018-06-10T08:17:17Z</time>
      </trkpt>
      <trkpt lat="44.10907" lon="7.02642">
        <ele>1797.3</ele>
        <time>2018-06-10T08:17:18Z</time>
      </trkpt>
      <trkpt lat="44.10896" lon="7.02567">
        <ele>1799.5</ele>
        <time>2018-06-10T08:17:42Z</time>
      </trkpt>
      <trkpt lat="44.10891" lon="7.02492">
        <ele>1802</ele>
        <time>2018-06-10T08:18:08Z</time>
      </trkpt>
      <trkpt lat="44.10888" lon="7.02471">
        <ele>1803.5</ele>
        <time>2018-06-10T08:18:18Z</time>
      </trkpt>
      <trkpt lat="44.10885" lon="7.02457">
        <ele>1804.4</ele>
        <time>2018-06-10T08:18:25Z</time>
      </trkpt>
      <trkpt lat="44.1088" lon="7.0243">
        <ele>1806.6</ele>
        <time>2018-06-10T08:18:38Z</time>
      </trkpt>
      <trkpt lat="44.10878" lon="7.02416">
        <ele>1808.2</ele>
        <time>2018-06-10T08:18:45Z</time>
      </trkpt>
      <trkpt lat="44.10874" lon="7.02406">
        <ele>1809.1</ele>
        <time>2018-06-10T08:18:51Z</time>
      </trkpt>
      <trkpt lat="44.10873" lon="7.02396">
        <ele>1810</ele>
        <time>2018-06-10T08:18:56Z</time>
      </trkpt>
      <trkpt lat="44.10872" lon="7.02393">
        <ele>1810.7</ele>
        <time>2018-06-10T08:19:00Z</time>
      </trkpt>
      <trkpt lat="44.10872" lon="7.02392">
        <ele>1810.7</ele>
        <time>2018-06-10T08:19:02Z</time>
      </trkpt>
      <trkpt lat="44.1087" lon="7.02384">
        <ele>1811.7</ele>
        <time>2018-06-10T08:19:11Z</time>
      </trkpt>
      <trkpt lat="44.10871" lon="7.02382">
        <ele>1812.3</ele>
        <time>2018-06-10T08:19:13Z</time>
      </trkpt>
      <trkpt lat="44.10873" lon="7.02377">
        <ele>1812.5</ele>
        <time>2018-06-10T08:19:18Z</time>
      </trkpt>
      <trkpt lat="44.10874" lon="7.02377">
        <ele>1812.5</ele>
        <time>2018-06-10T08:19:21Z</time>
      </trkpt>
      <trkpt lat="44.10874" lon="7.02375">
        <ele>1812.5</ele>
        <time>2018-06-10T08:19:28Z</time>
      </trkpt>
      <trkpt lat="44.10875" lon="7.02365">
        <ele>1813.9</ele>
        <time>2018-06-10T08:19:40Z</time>
      </trkpt>
      <trkpt lat="44.1088" lon="7.02364">
        <ele>1813.3</ele>
        <time>2018-06-10T08:19:52Z</time>
      </trkpt>
      <trkpt lat="44.1088" lon="7.02366">
        <ele>1812.9</ele>
        <time>2018-06-10T08:47:42Z</time>
      </trkpt>
      <trkpt lat="44.10879" lon="7.0237">
        <ele>1812.7</ele>
        <time>2018-06-10T08:47:48Z</time>
      </trkpt>
      <trkpt lat="44.10879" lon="7.02373">
        <ele>1812.7</ele>
        <time>2018-06-10T08:47:53Z</time>
      </trkpt>
      <trkpt lat="44.10877" lon="7.02376">
        <ele>1812.2</ele>
        <time>2018-06-10T08:47:59Z</time>
      </trkpt>
      <trkpt lat="44.10876" lon="7.02376">
        <ele>1812.5</ele>
        <time>2018-06-10T08:48:18Z</time>
      </trkpt>
      <trkpt lat="44.10875" lon="7.02376">
        <ele>1812.5</ele>
        <time>2018-06-10T08:48:20Z</time>
      </trkpt>
      <trkpt lat="44.10874" lon="7.02376">
        <ele>1812.5</ele>
        <time>2018-06-10T08:48:22Z</time>
      </trkpt>
      <trkpt lat="44.10873" lon="7.02378">
        <ele>1812</ele>
        <time>2018-06-10T08:48:26Z</time>
      </trkpt>
      <trkpt lat="44.10873" lon="7.02379">
        <ele>1812</ele>
        <time>2018-06-10T08:48:27Z</time>
      </trkpt>
      <trkpt lat="44.10877" lon="7.02385">
        <ele>1811.2</ele>
        <time>2018-06-10T08:49:18Z</time>
      </trkpt>
      <trkpt lat="44.10895" lon="7.0247">
        <ele>1803.1</ele>
        <time>2018-06-10T08:49:26Z</time>
      </trkpt>
      <trkpt lat="44.10899" lon="7.02481">
        <ele>1802.5</ele>
        <time>2018-06-10T08:49:27Z</time>
      </trkpt>
      <trkpt lat="44.10902" lon="7.02507">
        <ele>1801.7</ele>
        <time>2018-06-10T08:49:30Z</time>
      </trkpt>
      <trkpt lat="44.10895" lon="7.02524">
        <ele>1801</ele>
        <time>2018-06-10T08:49:32Z</time>
      </trkpt>
      <trkpt lat="44.10892" lon="7.02534">
        <ele>1800.5</ele>
        <time>2018-06-10T08:49:33Z</time>
      </trkpt>
      <trkpt lat="44.10892" lon="7.02544">
        <ele>1800</ele>
        <time>2018-06-10T08:49:34Z</time>
      </trkpt>
      <trkpt lat="44.10895" lon="7.02565">
        <ele>1799.7</ele>
        <time>2018-06-10T08:49:36Z</time>
      </trkpt>
      <trkpt lat="44.10897" lon="7.02575">
        <ele>1799.4</ele>
        <time>2018-06-10T08:49:37Z</time>
      </trkpt>
      <trkpt lat="44.10899" lon="7.02585">
        <ele>1799.2</ele>
        <time>2018-06-10T08:49:38Z</time>
      </trkpt>
      <trkpt lat="44.10906" lon="7.02652">
        <ele>1796.6</ele>
        <time>2018-06-10T08:49:44Z</time>
      </trkpt>
      <trkpt lat="44.10892" lon="7.02706">
        <ele>1792.5</ele>
        <time>2018-06-10T08:49:49Z</time>
      </trkpt>
      <trkpt lat="44.10879" lon="7.0273">
        <ele>1791</ele>
        <time>2018-06-10T08:49:52Z</time>
      </trkpt>
      <trkpt lat="44.10847" lon="7.02772">
        <ele>1787.2</ele>
        <time>2018-06-10T08:49:59Z</time>
      </trkpt>
      <trkpt lat="44.10826" lon="7.02787">
        <ele>1784</ele>
        <time>2018-06-10T08:50:02Z</time>
      </trkpt>
      <trkpt lat="44.108" lon="7.02837">
        <ele>1781.9</ele>
        <time>2018-06-10T08:50:07Z</time>
      </trkpt>
      <trkpt lat="44.10787" lon="7.0287">
        <ele>1779.9</ele>
        <time>2018-06-10T08:50:10Z</time>
      </trkpt>
      <trkpt lat="44.10783" lon="7.02883">
        <ele>1779.8</ele>
        <time>2018-06-10T08:50:11Z</time>
      </trkpt>
      <trkpt lat="44.10779" lon="7.02896">
        <ele>1779.6</ele>
        <time>2018-06-10T08:50:12Z</time>
      </trkpt>
      <trkpt lat="44.10777" lon="7.0291">
        <ele>1779.3</ele>
        <time>2018-06-10T08:50:13Z</time>
      </trkpt>
      <trkpt lat="44.10778" lon="7.02935">
        <ele>1778.6</ele>
        <time>2018-06-10T08:50:15Z</time>
      </trkpt>
      <trkpt lat="44.10786" lon="7.02955">
        <ele>1778.4</ele>
        <time>2018-06-10T08:50:17Z</time>
      </trkpt>
      <trkpt lat="44.1079" lon="7.02966">
        <ele>1778.4</ele>
        <time>2018-06-10T08:50:18Z</time>
      </trkpt>
      <trkpt lat="44.10795" lon="7.02978">
        <ele>1778.4</ele>
        <time>2018-06-10T08:50:19Z</time>
      </trkpt>
      <trkpt lat="44.10807" lon="7.02995">
        <ele>1778.4</ele>
        <time>2018-06-10T08:50:21Z</time>
      </trkpt>
      <trkpt lat="44.10814" lon="7.03">
        <ele>1778.3</ele>
        <time>2018-06-10T08:50:22Z</time>
      </trkpt>
      <trkpt lat="44.10819" lon="7.03005">
        <ele>1778</ele>
        <time>2018-06-10T08:50:23Z</time>
      </trkpt>
      <trkpt lat="44.10822" lon="7.03009">
        <ele>1777.9</ele>
        <time>2018-06-10T08:50:24Z</time>
      </trkpt>
      <trkpt lat="44.10824" lon="7.03012">
        <ele>1777.6</ele>
        <time>2018-06-10T08:50:25Z</time>
      </trkpt>
      <trkpt lat="44.10826" lon="7.03015">
        <ele>1777.8</ele>
        <time>2018-06-10T08:50:26Z</time>
      </trkpt>
      <trkpt lat="44.10828" lon="7.03017">
        <ele>1777.5</ele>
        <time>2018-06-10T08:50:27Z</time>
      </trkpt>
      <trkpt lat="44.10832" lon="7.03015">
        <ele>1777.2</ele>
        <time>2018-06-10T08:50:30Z</time>
      </trkpt>
      <trkpt lat="44.10834" lon="7.03015">
        <ele>1776.8</ele>
        <time>2018-06-10T08:50:31Z</time>
      </trkpt>
      <trkpt lat="44.10844" lon="7.03019">
        <ele>1775.5</ele>
        <time>2018-06-10T08:50:36Z</time>
      </trkpt>
      <trkpt lat="44.1085" lon="7.03037">
        <ele>1775.1</ele>
        <time>2018-06-10T08:50:40Z</time>
      </trkpt>
      <trkpt lat="44.10853" lon="7.03041">
        <ele>1774.8</ele>
        <time>2018-06-10T08:50:41Z</time>
      </trkpt>
      <trkpt lat="44.10867" lon="7.03045">
        <ele>1772.4</ele>
        <time>2018-06-10T08:50:46Z</time>
      </trkpt>
      <trkpt lat="44.10873" lon="7.03044">
        <ele>1771.5</ele>
        <time>2018-06-10T08:50:48Z</time>
      </trkpt>
      <trkpt lat="44.10881" lon="7.03033">
        <ele>1770.7</ele>
        <time>2018-06-10T08:50:51Z</time>
      </trkpt>
      <trkpt lat="44.10886" lon="7.0302">
        <ele>1770.2</ele>
        <time>2018-06-10T08:50:53Z</time>
      </trkpt>
      <trkpt lat="44.10887" lon="7.03014">
        <ele>1770.4</ele>
        <time>2018-06-10T08:50:54Z</time>
      </trkpt>
      <trkpt lat="44.10889" lon="7.03006">
        <ele>1770.4</ele>
        <time>2018-06-10T08:50:55Z</time>
      </trkpt>
      <trkpt lat="44.10889" lon="7.03">
        <ele>1770.6</ele>
        <time>2018-06-10T08:50:56Z</time>
      </trkpt>
      <trkpt lat="44.10889" lon="7.02993">
        <ele>1770.7</ele>
        <time>2018-06-10T08:50:57Z</time>
      </trkpt>
      <trkpt lat="44.10889" lon="7.02986">
        <ele>1770.9</ele>
        <time>2018-06-10T08:50:58Z</time>
      </trkpt>
      <trkpt lat="44.10889" lon="7.02978">
        <ele>1771.1</ele>
        <time>2018-06-10T08:50:59Z</time>
      </trkpt>
      <trkpt lat="44.10893" lon="7.02963">
        <ele>1771.1</ele>
        <time>2018-06-10T08:51:01Z</time>
      </trkpt>
      <trkpt lat="44.10903" lon="7.02954">
        <ele>1771</ele>
        <time>2018-06-10T08:51:03Z</time>
      </trkpt>
      <trkpt lat="44.1091" lon="7.0295">
        <ele>1771</ele>
        <time>2018-06-10T08:51:04Z</time>
      </trkpt>
      <trkpt lat="44.10925" lon="7.02943">
        <ele>1771.4</ele>
        <time>2018-06-10T08:51:06Z</time>
      </trkpt>
      <trkpt lat="44.10946" lon="7.02948">
        <ele>1772.5</ele>
        <time>2018-06-10T08:51:10Z</time>
      </trkpt>
      <trkpt lat="44.10951" lon="7.02954">
        <ele>1773</ele>
        <time>2018-06-10T08:51:12Z</time>
      </trkpt>
      <trkpt lat="44.10952" lon="7.02958">
        <ele>1773</ele>
        <time>2018-06-10T08:51:13Z</time>
      </trkpt>
      <trkpt lat="44.10954" lon="7.02965">
        <ele>1773.4</ele>
        <time>2018-06-10T08:51:15Z</time>
      </trkpt>
      <trkpt lat="44.10956" lon="7.02974">
        <ele>1773.6</ele>
        <time>2018-06-10T08:51:17Z</time>
      </trkpt>
      <trkpt lat="44.10956" lon="7.02978">
        <ele>1773.4</ele>
        <time>2018-06-10T08:51:18Z</time>
      </trkpt>
      <trkpt lat="44.10954" lon="7.02982">
        <ele>1773.4</ele>
        <time>2018-06-10T08:51:19Z</time>
      </trkpt>
      <trkpt lat="44.10952" lon="7.02995">
        <ele>1773</ele>
        <time>2018-06-10T08:51:21Z</time>
      </trkpt>
      <trkpt lat="44.10951" lon="7.03001">
        <ele>1773</ele>
        <time>2018-06-10T08:51:22Z</time>
      </trkpt>
      <trkpt lat="44.10951" lon="7.03006">
        <ele>1773</ele>
        <time>2018-06-10T08:51:23Z</time>
      </trkpt>
      <trkpt lat="44.10953" lon="7.03017">
        <ele>1772.9</ele>
        <time>2018-06-10T08:51:25Z</time>
      </trkpt>
      <trkpt lat="44.10957" lon="7.03027">
        <ele>1773</ele>
        <time>2018-06-10T08:51:27Z</time>
      </trkpt>
      <trkpt lat="44.10964" lon="7.03034">
        <ele>1773.4</ele>
        <time>2018-06-10T08:51:29Z</time>
      </trkpt>
      <trkpt lat="44.10971" lon="7.03043">
        <ele>1773.5</ele>
        <time>2018-06-10T08:51:31Z</time>
      </trkpt>
      <trkpt lat="44.10973" lon="7.03051">
        <ele>1773.4</ele>
        <time>2018-06-10T08:51:32Z</time>
      </trkpt>
      <trkpt lat="44.10975" lon="7.03074">
        <ele>1771.4</ele>
        <time>2018-06-10T08:51:34Z</time>
      </trkpt>
      <trkpt lat="44.10977" lon="7.03096">
        <ele>1768.6</ele>
        <time>2018-06-10T08:51:36Z</time>
      </trkpt>
      <trkpt lat="44.10974" lon="7.03102">
        <ele>1767.8</ele>
        <time>2018-06-10T08:51:37Z</time>
      </trkpt>
      <trkpt lat="44.1097" lon="7.03107">
        <ele>1766.9</ele>
        <time>2018-06-10T08:51:38Z</time>
      </trkpt>
      <trkpt lat="44.10966" lon="7.0311">
        <ele>1765.9</ele>
        <time>2018-06-10T08:51:39Z</time>
      </trkpt>
      <trkpt lat="44.10962" lon="7.03113">
        <ele>1764.8</ele>
        <time>2018-06-10T08:51:40Z</time>
      </trkpt>
      <trkpt lat="44.10957" lon="7.03116">
        <ele>1764.7</ele>
        <time>2018-06-10T08:51:41Z</time>
      </trkpt>
      <trkpt lat="44.10953" lon="7.0312">
        <ele>1763.7</ele>
        <time>2018-06-10T08:51:42Z</time>
      </trkpt>
      <trkpt lat="44.10949" lon="7.03123">
        <ele>1762.6</ele>
        <time>2018-06-10T08:51:43Z</time>
      </trkpt>
      <trkpt lat="44.10945" lon="7.03127">
        <ele>1761</ele>
        <time>2018-06-10T08:51:44Z</time>
      </trkpt>
      <trkpt lat="44.1094" lon="7.0313">
        <ele>1760</ele>
        <time>2018-06-10T08:51:45Z</time>
      </trkpt>
      <trkpt lat="44.10932" lon="7.03139">
        <ele>1757.6</ele>
        <time>2018-06-10T08:51:47Z</time>
      </trkpt>
      <trkpt lat="44.10929" lon="7.03146">
        <ele>1756.3</ele>
        <time>2018-06-10T08:51:48Z</time>
      </trkpt>
      <trkpt lat="44.10918" lon="7.03162">
        <ele>1751.4</ele>
        <time>2018-06-10T08:51:50Z</time>
      </trkpt>
      <trkpt lat="44.10899" lon="7.03182">
        <ele>1745.3</ele>
        <time>2018-06-10T08:51:53Z</time>
      </trkpt>
      <trkpt lat="44.10852" lon="7.03219">
        <ele>1737.6</ele>
        <time>2018-06-10T08:52:00Z</time>
      </trkpt>
      <trkpt lat="44.10845" lon="7.03223">
        <ele>1736.9</ele>
        <time>2018-06-10T08:52:01Z</time>
      </trkpt>
      <trkpt lat="44.10829" lon="7.03231">
        <ele>1736.9</ele>
        <time>2018-06-10T08:52:04Z</time>
      </trkpt>
      <trkpt lat="44.10818" lon="7.03236">
        <ele>1736.4</ele>
        <time>2018-06-10T08:52:06Z</time>
      </trkpt>
      <trkpt lat="44.10813" lon="7.03237">
        <ele>1735</ele>
        <time>2018-06-10T08:52:07Z</time>
      </trkpt>
      <trkpt lat="44.10798" lon="7.03243">
        <ele>1735.8</ele>
        <time>2018-06-10T08:52:10Z</time>
      </trkpt>
      <trkpt lat="44.10785" lon="7.03245">
        <ele>1738.6</ele>
        <time>2018-06-10T08:52:13Z</time>
      </trkpt>
      <trkpt lat="44.10777" lon="7.03246">
        <ele>1738.5</ele>
        <time>2018-06-10T08:52:15Z</time>
      </trkpt>
      <trkpt lat="44.10762" lon="7.03251">
        <ele>1738.9</ele>
        <time>2018-06-10T08:52:18Z</time>
      </trkpt>
      <trkpt lat="44.10742" lon="7.03245">
        <ele>1745.5</ele>
        <time>2018-06-10T08:52:22Z</time>
      </trkpt>
      <trkpt lat="44.1073" lon="7.03234">
        <ele>1747.5</ele>
        <time>2018-06-10T08:52:25Z</time>
      </trkpt>
      <trkpt lat="44.10726" lon="7.03232">
        <ele>1748.4</ele>
        <time>2018-06-10T08:52:26Z</time>
      </trkpt>
      <trkpt lat="44.10719" lon="7.03226">
        <ele>1747.8</ele>
        <time>2018-06-10T08:52:28Z</time>
      </trkpt>
      <trkpt lat="44.1071" lon="7.0322">
        <ele>1745.4</ele>
        <time>2018-06-10T08:52:30Z</time>
      </trkpt>
      <trkpt lat="44.10696" lon="7.0321">
        <ele>1742.9</ele>
        <time>2018-06-10T08:52:33Z</time>
      </trkpt>
      <trkpt lat="44.10685" lon="7.03187">
        <ele>1744.1</ele>
        <time>2018-06-10T08:52:38Z</time>
      </trkpt>
      <trkpt lat="44.10677" lon="7.03179">
        <ele>1744.3</ele>
        <time>2018-06-10T08:52:40Z</time>
      </trkpt>
      <trkpt lat="44.1067" lon="7.0317">
        <ele>1743.9</ele>
        <time>2018-06-10T08:52:42Z</time>
      </trkpt>
      <trkpt lat="44.10667" lon="7.03165">
        <ele>1743.6</ele>
        <time>2018-06-10T08:52:43Z</time>
      </trkpt>
      <trkpt lat="44.10663" lon="7.03156">
        <ele>1743</ele>
        <time>2018-06-10T08:52:45Z</time>
      </trkpt>
      <trkpt lat="44.10653" lon="7.0314">
        <ele>1744</ele>
        <time>2018-06-10T08:52:48Z</time>
      </trkpt>
      <trkpt lat="44.10646" lon="7.03142">
        <ele>1742.2</ele>
        <time>2018-06-10T08:52:50Z</time>
      </trkpt>
      <trkpt lat="44.10642" lon="7.03145">
        <ele>1740.2</ele>
        <time>2018-06-10T08:52:51Z</time>
      </trkpt>
      <trkpt lat="44.10636" lon="7.03152">
        <ele>1736.1</ele>
        <time>2018-06-10T08:52:53Z</time>
      </trkpt>
      <trkpt lat="44.10623" lon="7.0316">
        <ele>1729.7</ele>
        <time>2018-06-10T08:52:56Z</time>
      </trkpt>
      <trkpt lat="44.10614" lon="7.03163">
        <ele>1728.2</ele>
        <time>2018-06-10T08:52:58Z</time>
      </trkpt>
      <trkpt lat="44.10591" lon="7.03169">
        <ele>1721</ele>
        <time>2018-06-10T08:53:03Z</time>
      </trkpt>
      <trkpt lat="44.10574" lon="7.03176">
        <ele>1717.9</ele>
        <time>2018-06-10T08:53:06Z</time>
      </trkpt>
      <trkpt lat="44.10538" lon="7.0319">
        <ele>1711.4</ele>
        <time>2018-06-10T08:53:12Z</time>
      </trkpt>
      <trkpt lat="44.10517" lon="7.03194">
        <ele>1712.4</ele>
        <time>2018-06-10T08:53:16Z</time>
      </trkpt>
      <trkpt lat="44.10512" lon="7.03197">
        <ele>1713.1</ele>
        <time>2018-06-10T08:53:17Z</time>
      </trkpt>
      <trkpt lat="44.10488" lon="7.03231">
        <ele>1714.3</ele>
        <time>2018-06-10T08:53:24Z</time>
      </trkpt>
      <trkpt lat="44.10481" lon="7.03242">
        <ele>1714.9</ele>
        <time>2018-06-10T08:53:26Z</time>
      </trkpt>
      <trkpt lat="44.10477" lon="7.03247">
        <ele>1715.2</ele>
        <time>2018-06-10T08:53:27Z</time>
      </trkpt>
      <trkpt lat="44.10455" lon="7.03277">
        <ele>1716.1</ele>
        <time>2018-06-10T08:53:32Z</time>
      </trkpt>
      <trkpt lat="44.10423" lon="7.03337">
        <ele>1713.6</ele>
        <time>2018-06-10T08:53:45Z</time>
      </trkpt>
      <trkpt lat="44.1042" lon="7.03342">
        <ele>1713.1</ele>
        <time>2018-06-10T08:53:46Z</time>
      </trkpt>
      <trkpt lat="44.10414" lon="7.03353">
        <ele>1712.8</ele>
        <time>2018-06-10T08:53:48Z</time>
      </trkpt>
      <trkpt lat="44.10407" lon="7.03364">
        <ele>1714</ele>
        <time>2018-06-10T08:53:50Z</time>
      </trkpt>
      <trkpt lat="44.10399" lon="7.03374">
        <ele>1713.4</ele>
        <time>2018-06-10T08:53:52Z</time>
      </trkpt>
      <trkpt lat="44.1037" lon="7.03406">
        <ele>1714</ele>
        <time>2018-06-10T08:54:00Z</time>
      </trkpt>
      <trkpt lat="44.10371" lon="7.03417">
        <ele>1712.7</ele>
        <time>2018-06-10T08:54:02Z</time>
      </trkpt>
      <trkpt lat="44.10375" lon="7.03438">
        <ele>1709.3</ele>
        <time>2018-06-10T08:54:05Z</time>
      </trkpt>
      <trkpt lat="44.10379" lon="7.0345">
        <ele>1707.3</ele>
        <time>2018-06-10T08:54:07Z</time>
      </trkpt>
      <trkpt lat="44.10381" lon="7.03465">
        <ele>1704.4</ele>
        <time>2018-06-10T08:54:10Z</time>
      </trkpt>
      <trkpt lat="44.10381" lon="7.03468">
        <ele>1704.6</ele>
        <time>2018-06-10T08:54:11Z</time>
      </trkpt>
      <trkpt lat="44.1038" lon="7.03473">
        <ele>1703.6</ele>
        <time>2018-06-10T08:54:12Z</time>
      </trkpt>
      <trkpt lat="44.10376" lon="7.03484">
        <ele>1704.2</ele>
        <time>2018-06-10T08:54:14Z</time>
      </trkpt>
      <trkpt lat="44.10372" lon="7.0349">
        <ele>1704.1</ele>
        <time>2018-06-10T08:54:15Z</time>
      </trkpt>
      <trkpt lat="44.1037" lon="7.03498">
        <ele>1704.4</ele>
        <time>2018-06-10T08:54:16Z</time>
      </trkpt>
      <trkpt lat="44.10369" lon="7.03507">
        <ele>1703.4</ele>
        <time>2018-06-10T08:54:17Z</time>
      </trkpt>
      <trkpt lat="44.10367" lon="7.03514">
        <ele>1703</ele>
        <time>2018-06-10T08:54:18Z</time>
      </trkpt>
      <trkpt lat="44.10365" lon="7.03523">
        <ele>1702</ele>
        <time>2018-06-10T08:54:20Z</time>
      </trkpt>
      <trkpt lat="44.10374" lon="7.03533">
        <ele>1697.7</ele>
        <time>2018-06-10T08:54:23Z</time>
      </trkpt>
      <trkpt lat="44.10377" lon="7.03533">
        <ele>1696.9</ele>
        <time>2018-06-10T08:54:24Z</time>
      </trkpt>
      <trkpt lat="44.1038" lon="7.03532">
        <ele>1696.5</ele>
        <time>2018-06-10T08:54:25Z</time>
      </trkpt>
      <trkpt lat="44.10383" lon="7.03533">
        <ele>1694.7</ele>
        <time>2018-06-10T08:54:26Z</time>
      </trkpt>
      <trkpt lat="44.10385" lon="7.03542">
        <ele>1693.5</ele>
        <time>2018-06-10T08:54:28Z</time>
      </trkpt>
      <trkpt lat="44.10386" lon="7.03547">
        <ele>1692.9</ele>
        <time>2018-06-10T08:54:29Z</time>
      </trkpt>
      <trkpt lat="44.10386" lon="7.03549">
        <ele>1693</ele>
        <time>2018-06-10T08:54:30Z</time>
      </trkpt>
      <trkpt lat="44.10387" lon="7.0355">
        <ele>1691.7</ele>
        <time>2018-06-10T08:54:31Z</time>
      </trkpt>
      <trkpt lat="44.1039" lon="7.03554">
        <ele>1689.6</ele>
        <time>2018-06-10T08:54:33Z</time>
      </trkpt>
      <trkpt lat="44.10391" lon="7.03558">
        <ele>1688.9</ele>
        <time>2018-06-10T08:54:34Z</time>
      </trkpt>
      <trkpt lat="44.10391" lon="7.03563">
        <ele>1687.4</ele>
        <time>2018-06-10T08:54:35Z</time>
      </trkpt>
      <trkpt lat="44.10391" lon="7.03567">
        <ele>1686.9</ele>
        <time>2018-06-10T08:54:37Z</time>
      </trkpt>
      <trkpt lat="44.10392" lon="7.03567">
        <ele>1686.2</ele>
        <time>2018-06-10T08:54:38Z</time>
      </trkpt>
      <trkpt lat="44.10393" lon="7.03566">
        <ele>1686.3</ele>
        <time>2018-06-10T08:54:39Z</time>
      </trkpt>
      <trkpt lat="44.10395" lon="7.03565">
        <ele>1686.5</ele>
        <time>2018-06-10T08:54:41Z</time>
      </trkpt>
      <trkpt lat="44.10397" lon="7.03567">
        <ele>1685.1</ele>
        <time>2018-06-10T08:54:43Z</time>
      </trkpt>
      <trkpt lat="44.10396" lon="7.0357">
        <ele>1684.5</ele>
        <time>2018-06-10T08:54:45Z</time>
      </trkpt>
      <trkpt lat="44.10396" lon="7.03573">
        <ele>1683.9</ele>
        <time>2018-06-10T08:54:46Z</time>
      </trkpt>
      <trkpt lat="44.10396" lon="7.03578">
        <ele>1683.4</ele>
        <time>2018-06-10T08:54:47Z</time>
      </trkpt>
      <trkpt lat="44.10398" lon="7.03583">
        <ele>1682.8</ele>
        <time>2018-06-10T08:54:48Z</time>
      </trkpt>
      <trkpt lat="44.10399" lon="7.03597">
        <ele>1678.9</ele>
        <time>2018-06-10T08:54:51Z</time>
      </trkpt>
      <trkpt lat="44.104" lon="7.03598">
        <ele>1678.2</ele>
        <time>2018-06-10T08:54:52Z</time>
      </trkpt>
      <trkpt lat="44.10404" lon="7.03595">
        <ele>1677.6</ele>
        <time>2018-06-10T08:54:54Z</time>
      </trkpt>
      <trkpt lat="44.10411" lon="7.03589">
        <ele>1673.3</ele>
        <time>2018-06-10T08:54:56Z</time>
      </trkpt>
      <trkpt lat="44.10418" lon="7.03586">
        <ele>1670.7</ele>
        <time>2018-06-10T08:54:58Z</time>
      </trkpt>
      <trkpt lat="44.10422" lon="7.03585">
        <ele>1669</ele>
        <time>2018-06-10T08:54:59Z</time>
      </trkpt>
      <trkpt lat="44.1043" lon="7.03578">
        <ele>1665.6</ele>
        <time>2018-06-10T08:55:01Z</time>
      </trkpt>
      <trkpt lat="44.10435" lon="7.03574">
        <ele>1663.4</ele>
        <time>2018-06-10T08:55:02Z</time>
      </trkpt>
      <trkpt lat="44.10441" lon="7.03571">
        <ele>1662.8</ele>
        <time>2018-06-10T08:55:03Z</time>
      </trkpt>
      <trkpt lat="44.10445" lon="7.03568">
        <ele>1659.4</ele>
        <time>2018-06-10T08:55:04Z</time>
      </trkpt>
      <trkpt lat="44.10455" lon="7.03562">
        <ele>1656.5</ele>
        <time>2018-06-10T08:55:06Z</time>
      </trkpt>
      <trkpt lat="44.10461" lon="7.03558">
        <ele>1654.9</ele>
        <time>2018-06-10T08:55:07Z</time>
      </trkpt>
      <trkpt lat="44.10467" lon="7.03553">
        <ele>1653.1</ele>
        <time>2018-06-10T08:55:08Z</time>
      </trkpt>
      <trkpt lat="44.10473" lon="7.03548">
        <ele>1651.2</ele>
        <time>2018-06-10T08:55:09Z</time>
      </trkpt>
      <trkpt lat="44.1048" lon="7.03543">
        <ele>1649.6</ele>
        <time>2018-06-10T08:55:10Z</time>
      </trkpt>
      <trkpt lat="44.10487" lon="7.03539">
        <ele>1648.7</ele>
        <time>2018-06-10T08:55:11Z</time>
      </trkpt>
      <trkpt lat="44.10494" lon="7.03535">
        <ele>1647.8</ele>
        <time>2018-06-10T08:55:12Z</time>
      </trkpt>
      <trkpt lat="44.105" lon="7.03531">
        <ele>1645.7</ele>
        <time>2018-06-10T08:55:13Z</time>
      </trkpt>
      <trkpt lat="44.10506" lon="7.03527">
        <ele>1645.1</ele>
        <time>2018-06-10T08:55:14Z</time>
      </trkpt>
      <trkpt lat="44.10513" lon="7.03524">
        <ele>1644.7</ele>
        <time>2018-06-10T08:55:15Z</time>
      </trkpt>
      <trkpt lat="44.10522" lon="7.03517">
        <ele>1643.6</ele>
        <time>2018-06-10T08:55:17Z</time>
      </trkpt>
      <trkpt lat="44.10534" lon="7.03507">
        <ele>1644.7</ele>
        <time>2018-06-10T08:55:19Z</time>
      </trkpt>
      <trkpt lat="44.10541" lon="7.035">
        <ele>1645</ele>
        <time>2018-06-10T08:55:20Z</time>
      </trkpt>
      <trkpt lat="44.10549" lon="7.03493">
        <ele>1646.6</ele>
        <time>2018-06-10T08:55:21Z</time>
      </trkpt>
      <trkpt lat="44.10556" lon="7.03486">
        <ele>1646.3</ele>
        <time>2018-06-10T08:55:22Z</time>
      </trkpt>
      <trkpt lat="44.10564" lon="7.0348">
        <ele>1647.9</ele>
        <time>2018-06-10T08:55:23Z</time>
      </trkpt>
      <trkpt lat="44.10573" lon="7.03474">
        <ele>1648.2</ele>
        <time>2018-06-10T08:55:24Z</time>
      </trkpt>
      <trkpt lat="44.10582" lon="7.03467">
        <ele>1650.6</ele>
        <time>2018-06-10T08:55:25Z</time>
      </trkpt>
      <trkpt lat="44.10591" lon="7.0346">
        <ele>1652.1</ele>
        <time>2018-06-10T08:55:26Z</time>
      </trkpt>
      <trkpt lat="44.10599" lon="7.03454">
        <ele>1655.7</ele>
        <time>2018-06-10T08:55:27Z</time>
      </trkpt>
      <trkpt lat="44.10606" lon="7.03447">
        <ele>1657.8</ele>
        <time>2018-06-10T08:55:28Z</time>
      </trkpt>
      <trkpt lat="44.10614" lon="7.03441">
        <ele>1661.8</ele>
        <time>2018-06-10T08:55:30Z</time>
      </trkpt>
      <trkpt lat="44.10615" lon="7.03442">
        <ele>1662</ele>
        <time>2018-06-10T08:55:31Z</time>
      </trkpt>
      <trkpt lat="44.10615" lon="7.03453">
        <ele>1657.9</ele>
        <time>2018-06-10T08:55:33Z</time>
      </trkpt>
      <trkpt lat="44.10614" lon="7.03459">
        <ele>1656.5</ele>
        <time>2018-06-10T08:55:34Z</time>
      </trkpt>
      <trkpt lat="44.10611" lon="7.03467">
        <ele>1653.1</ele>
        <time>2018-06-10T08:55:36Z</time>
      </trkpt>
      <trkpt lat="44.10609" lon="7.0347">
        <ele>1651.4</ele>
        <time>2018-06-10T08:55:37Z</time>
      </trkpt>
      <trkpt lat="44.10608" lon="7.03475">
        <ele>1649.7</ele>
        <time>2018-06-10T08:55:38Z</time>
      </trkpt>
      <trkpt lat="44.10604" lon="7.03485">
        <ele>1646.9</ele>
        <time>2018-06-10T08:55:40Z</time>
      </trkpt>
      <trkpt lat="44.106" lon="7.03493">
        <ele>1644.4</ele>
        <time>2018-06-10T08:55:42Z</time>
      </trkpt>
      <trkpt lat="44.10597" lon="7.03495">
        <ele>1643.2</ele>
        <time>2018-06-10T08:55:43Z</time>
      </trkpt>
      <trkpt lat="44.10594" lon="7.03497">
        <ele>1643.3</ele>
        <time>2018-06-10T08:55:44Z</time>
      </trkpt>
      <trkpt lat="44.10592" lon="7.035">
        <ele>1642.1</ele>
        <time>2018-06-10T08:55:45Z</time>
      </trkpt>
      <trkpt lat="44.10589" lon="7.03504">
        <ele>1641.1</ele>
        <time>2018-06-10T08:55:46Z</time>
      </trkpt>
      <trkpt lat="44.10585" lon="7.03508">
        <ele>1640</ele>
        <time>2018-06-10T08:55:47Z</time>
      </trkpt>
      <trkpt lat="44.10582" lon="7.03514">
        <ele>1639</ele>
        <time>2018-06-10T08:55:48Z</time>
      </trkpt>
      <trkpt lat="44.10581" lon="7.03521">
        <ele>1636.9</ele>
        <time>2018-06-10T08:55:49Z</time>
      </trkpt>
      <trkpt lat="44.1058" lon="7.03528">
        <ele>1636.1</ele>
        <time>2018-06-10T08:55:50Z</time>
      </trkpt>
      <trkpt lat="44.1058" lon="7.03532">
        <ele>1635.2</ele>
        <time>2018-06-10T08:55:51Z</time>
      </trkpt>
      <trkpt lat="44.1058" lon="7.03538">
        <ele>1633.1</ele>
        <time>2018-06-10T08:55:53Z</time>
      </trkpt>
      <trkpt lat="44.10577" lon="7.03546">
        <ele>1630.9</ele>
        <time>2018-06-10T08:55:55Z</time>
      </trkpt>
      <trkpt lat="44.10575" lon="7.03551">
        <ele>1629.8</ele>
        <time>2018-06-10T08:55:56Z</time>
      </trkpt>
      <trkpt lat="44.10574" lon="7.03558">
        <ele>1628.6</ele>
        <time>2018-06-10T08:55:57Z</time>
      </trkpt>
      <trkpt lat="44.10574" lon="7.03563">
        <ele>1626.1</ele>
        <time>2018-06-10T08:55:58Z</time>
      </trkpt>
      <trkpt lat="44.10574" lon="7.03568">
        <ele>1624.9</ele>
        <time>2018-06-10T08:55:59Z</time>
      </trkpt>
      <trkpt lat="44.10576" lon="7.03571">
        <ele>1625.1</ele>
        <time>2018-06-10T08:56:00Z</time>
      </trkpt>
      <trkpt lat="44.10579" lon="7.03578">
        <ele>1622.4</ele>
        <time>2018-06-10T08:56:02Z</time>
      </trkpt>
      <trkpt lat="44.10579" lon="7.03586">
        <ele>1619.7</ele>
        <time>2018-06-10T08:56:05Z</time>
      </trkpt>
      <trkpt lat="44.10578" lon="7.03589">
        <ele>1618.4</ele>
        <time>2018-06-10T08:56:06Z</time>
      </trkpt>
      <trkpt lat="44.10577" lon="7.03592">
        <ele>1618.5</ele>
        <time>2018-06-10T08:56:07Z</time>
      </trkpt>
      <trkpt lat="44.10576" lon="7.03602">
        <ele>1614.4</ele>
        <time>2018-06-10T08:56:09Z</time>
      </trkpt>
      <trkpt lat="44.10576" lon="7.03607">
        <ele>1613.1</ele>
        <time>2018-06-10T08:56:10Z</time>
      </trkpt>
      <trkpt lat="44.10575" lon="7.03612">
        <ele>1611.9</ele>
        <time>2018-06-10T08:56:11Z</time>
      </trkpt>
      <trkpt lat="44.10574" lon="7.03622">
        <ele>1609.7</ele>
        <time>2018-06-10T08:56:13Z</time>
      </trkpt>
      <trkpt lat="44.10572" lon="7.03625">
        <ele>1608.6</ele>
        <time>2018-06-10T08:56:14Z</time>
      </trkpt>
      <trkpt lat="44.10566" lon="7.03634">
        <ele>1606.7</ele>
        <time>2018-06-10T08:56:16Z</time>
      </trkpt>
      <trkpt lat="44.10562" lon="7.03641">
        <ele>1604.5</ele>
        <time>2018-06-10T08:56:17Z</time>
      </trkpt>
      <trkpt lat="44.10558" lon="7.03651">
        <ele>1603</ele>
        <time>2018-06-10T08:56:18Z</time>
      </trkpt>
      <trkpt lat="44.10555" lon="7.0366">
        <ele>1601.2</ele>
        <time>2018-06-10T08:56:19Z</time>
      </trkpt>
      <trkpt lat="44.10552" lon="7.03669">
        <ele>1599.5</ele>
        <time>2018-06-10T08:56:20Z</time>
      </trkpt>
      <trkpt lat="44.10547" lon="7.03687">
        <ele>1593.6</ele>
        <time>2018-06-10T08:56:22Z</time>
      </trkpt>
      <trkpt lat="44.10543" lon="7.03701">
        <ele>1591.4</ele>
        <time>2018-06-10T08:56:24Z</time>
      </trkpt>
      <trkpt lat="44.10539" lon="7.03707">
        <ele>1591.3</ele>
        <time>2018-06-10T08:56:25Z</time>
      </trkpt>
      <trkpt lat="44.10535" lon="7.03711">
        <ele>1591.3</ele>
        <time>2018-06-10T08:56:26Z</time>
      </trkpt>
      <trkpt lat="44.10532" lon="7.03714">
        <ele>1591.6</ele>
        <time>2018-06-10T08:56:27Z</time>
      </trkpt>
      <trkpt lat="44.10528" lon="7.03718">
        <ele>1591.9</ele>
        <time>2018-06-10T08:56:28Z</time>
      </trkpt>
      <trkpt lat="44.10522" lon="7.03728">
        <ele>1592.8</ele>
        <time>2018-06-10T08:56:30Z</time>
      </trkpt>
      <trkpt lat="44.10525" lon="7.03744">
        <ele>1588</ele>
        <time>2018-06-10T08:56:33Z</time>
      </trkpt>
      <trkpt lat="44.10525" lon="7.0376">
        <ele>1585.8</ele>
        <time>2018-06-10T08:56:35Z</time>
      </trkpt>
      <trkpt lat="44.10527" lon="7.03778">
        <ele>1582.1</ele>
        <time>2018-06-10T08:56:37Z</time>
      </trkpt>
      <trkpt lat="44.10534" lon="7.03822">
        <ele>1571.3</ele>
        <time>2018-06-10T08:56:41Z</time>
      </trkpt>
      <trkpt lat="44.10536" lon="7.03833">
        <ele>1569.5</ele>
        <time>2018-06-10T08:56:42Z</time>
      </trkpt>
      <trkpt lat="44.10538" lon="7.03845">
        <ele>1566.2</ele>
        <time>2018-06-10T08:56:43Z</time>
      </trkpt>
      <trkpt lat="44.10539" lon="7.03856">
        <ele>1563.5</ele>
        <time>2018-06-10T08:56:44Z</time>
      </trkpt>
      <trkpt lat="44.10538" lon="7.03867">
        <ele>1561.6</ele>
        <time>2018-06-10T08:56:45Z</time>
      </trkpt>
      <trkpt lat="44.10538" lon="7.03876">
        <ele>1559.7</ele>
        <time>2018-06-10T08:56:46Z</time>
      </trkpt>
      <trkpt lat="44.10538" lon="7.03882">
        <ele>1558</ele>
        <time>2018-06-10T08:56:47Z</time>
      </trkpt>
      <trkpt lat="44.10538" lon="7.03888">
        <ele>1557.3</ele>
        <time>2018-06-10T08:56:48Z</time>
      </trkpt>
      <trkpt lat="44.10538" lon="7.03895">
        <ele>1555.8</ele>
        <time>2018-06-10T08:56:49Z</time>
      </trkpt>
      <trkpt lat="44.10542" lon="7.03904">
        <ele>1553.4</ele>
        <time>2018-06-10T08:56:50Z</time>
      </trkpt>
      <trkpt lat="44.10544" lon="7.03913">
        <ele>1551.1</ele>
        <time>2018-06-10T08:56:51Z</time>
      </trkpt>
      <trkpt lat="44.10545" lon="7.0392">
        <ele>1549.4</ele>
        <time>2018-06-10T08:56:52Z</time>
      </trkpt>
      <trkpt lat="44.10545" lon="7.03927">
        <ele>1548.7</ele>
        <time>2018-06-10T08:56:53Z</time>
      </trkpt>
      <trkpt lat="44.10545" lon="7.03934">
        <ele>1547.3</ele>
        <time>2018-06-10T08:56:54Z</time>
      </trkpt>
      <trkpt lat="44.10545" lon="7.0394">
        <ele>1546.7</ele>
        <time>2018-06-10T08:56:55Z</time>
      </trkpt>
      <trkpt lat="44.10546" lon="7.03946">
        <ele>1545.2</ele>
        <time>2018-06-10T08:56:56Z</time>
      </trkpt>
      <trkpt lat="44.10547" lon="7.03951">
        <ele>1543.7</ele>
        <time>2018-06-10T08:56:57Z</time>
      </trkpt>
      <trkpt lat="44.10547" lon="7.03954">
        <ele>1543</ele>
        <time>2018-06-10T08:56:58Z</time>
      </trkpt>
      <trkpt lat="44.10548" lon="7.03956">
        <ele>1543.1</ele>
        <time>2018-06-10T08:56:59Z</time>
      </trkpt>
      <trkpt lat="44.10549" lon="7.03958">
        <ele>1542.3</ele>
        <time>2018-06-10T08:57:00Z</time>
      </trkpt>
      <trkpt lat="44.1055" lon="7.03961">
        <ele>1541.7</ele>
        <time>2018-06-10T08:57:01Z</time>
      </trkpt>
      <trkpt lat="44.1055" lon="7.03964">
        <ele>1540.9</ele>
        <time>2018-06-10T08:57:02Z</time>
      </trkpt>
      <trkpt lat="44.10551" lon="7.03973">
        <ele>1539.2</ele>
        <time>2018-06-10T08:57:04Z</time>
      </trkpt>
      <trkpt lat="44.10552" lon="7.03979">
        <ele>1538.4</ele>
        <time>2018-06-10T08:57:05Z</time>
      </trkpt>
      <trkpt lat="44.10552" lon="7.03984">
        <ele>1536.9</ele>
        <time>2018-06-10T08:57:06Z</time>
      </trkpt>
      <trkpt lat="44.10551" lon="7.03988">
        <ele>1536.2</ele>
        <time>2018-06-10T08:57:07Z</time>
      </trkpt>
      <trkpt lat="44.10549" lon="7.03993">
        <ele>1535.4</ele>
        <time>2018-06-10T08:57:08Z</time>
      </trkpt>
      <trkpt lat="44.10549" lon="7.03999">
        <ele>1535.4</ele>
        <time>2018-06-10T08:57:09Z</time>
      </trkpt>
      <trkpt lat="44.10548" lon="7.04005">
        <ele>1534.6</ele>
        <time>2018-06-10T08:57:10Z</time>
      </trkpt>
      <trkpt lat="44.10547" lon="7.0401">
        <ele>1532.9</ele>
        <time>2018-06-10T08:57:11Z</time>
      </trkpt>
      <trkpt lat="44.10549" lon="7.04017">
        <ele>1532.2</ele>
        <time>2018-06-10T08:57:12Z</time>
      </trkpt>
      <trkpt lat="44.1055" lon="7.04022">
        <ele>1530.8</ele>
        <time>2018-06-10T08:57:13Z</time>
      </trkpt>
      <trkpt lat="44.10551" lon="7.04023">
        <ele>1530.1</ele>
        <time>2018-06-10T08:57:14Z</time>
      </trkpt>
      <trkpt lat="44.10553" lon="7.04024">
        <ele>1529.7</ele>
        <time>2018-06-10T08:57:15Z</time>
      </trkpt>
      <trkpt lat="44.10557" lon="7.04027">
        <ele>1528.3</ele>
        <time>2018-06-10T08:57:17Z</time>
      </trkpt>
      <trkpt lat="44.10557" lon="7.04029">
        <ele>1528.5</ele>
        <time>2018-06-10T08:57:18Z</time>
      </trkpt>
      <trkpt lat="44.10558" lon="7.04032">
        <ele>1527.7</ele>
        <time>2018-06-10T08:57:19Z</time>
      </trkpt>
      <trkpt lat="44.10557" lon="7.04036">
        <ele>1526.9</ele>
        <time>2018-06-10T08:57:20Z</time>
      </trkpt>
      <trkpt lat="44.10554" lon="7.04041">
        <ele>1526.5</ele>
        <time>2018-06-10T08:57:21Z</time>
      </trkpt>
      <trkpt lat="44.10552" lon="7.04047">
        <ele>1526.1</ele>
        <time>2018-06-10T08:57:22Z</time>
      </trkpt>
      <trkpt lat="44.10551" lon="7.04053">
        <ele>1523.8</ele>
        <time>2018-06-10T08:57:23Z</time>
      </trkpt>
      <trkpt lat="44.10553" lon="7.0406">
        <ele>1522.2</ele>
        <time>2018-06-10T08:57:25Z</time>
      </trkpt>
      <trkpt lat="44.10555" lon="7.04063">
        <ele>1521.1</ele>
        <time>2018-06-10T08:57:26Z</time>
      </trkpt>
      <trkpt lat="44.10555" lon="7.04066">
        <ele>1520.2</ele>
        <time>2018-06-10T08:57:27Z</time>
      </trkpt>
      <trkpt lat="44.10554" lon="7.04075">
        <ele>1518.2</ele>
        <time>2018-06-10T08:57:29Z</time>
      </trkpt>
      <trkpt lat="44.10552" lon="7.0408">
        <ele>1517.7</ele>
        <time>2018-06-10T08:57:30Z</time>
      </trkpt>
      <trkpt lat="44.10549" lon="7.04086">
        <ele>1516.7</ele>
        <time>2018-06-10T08:57:31Z</time>
      </trkpt>
      <trkpt lat="44.10546" lon="7.04105">
        <ele>1512.4</ele>
        <time>2018-06-10T08:57:33Z</time>
      </trkpt>
      <trkpt lat="44.10542" lon="7.04129">
        <ele>1509.5</ele>
        <time>2018-06-10T08:57:35Z</time>
      </trkpt>
      <trkpt lat="44.10536" lon="7.04147">
        <ele>1506.1</ele>
        <time>2018-06-10T08:57:37Z</time>
      </trkpt>
      <trkpt lat="44.10529" lon="7.04159">
        <ele>1505.1</ele>
        <time>2018-06-10T08:57:39Z</time>
      </trkpt>
      <trkpt lat="44.10527" lon="7.04177">
        <ele>1501.7</ele>
        <time>2018-06-10T08:57:41Z</time>
      </trkpt>
      <trkpt lat="44.10526" lon="7.04188">
        <ele>1499.3</ele>
        <time>2018-06-10T08:57:42Z</time>
      </trkpt>
      <trkpt lat="44.10516" lon="7.04205">
        <ele>1497.9</ele>
        <time>2018-06-10T08:57:44Z</time>
      </trkpt>
      <trkpt lat="44.10509" lon="7.04212">
        <ele>1499.3</ele>
        <time>2018-06-10T08:57:45Z</time>
      </trkpt>
      <trkpt lat="44.10495" lon="7.04226">
        <ele>1500.5</ele>
        <time>2018-06-10T08:57:47Z</time>
      </trkpt>
      <trkpt lat="44.10487" lon="7.04244">
        <ele>1500.1</ele>
        <time>2018-06-10T08:57:49Z</time>
      </trkpt>
      <trkpt lat="44.10485" lon="7.04254">
        <ele>1497.7</ele>
        <time>2018-06-10T08:57:50Z</time>
      </trkpt>
      <trkpt lat="44.10484" lon="7.04271">
        <ele>1492.2</ele>
        <time>2018-06-10T08:57:52Z</time>
      </trkpt>
      <trkpt lat="44.10484" lon="7.0428">
        <ele>1489.2</ele>
        <time>2018-06-10T08:57:53Z</time>
      </trkpt>
      <trkpt lat="44.10483" lon="7.0429">
        <ele>1486.4</ele>
        <time>2018-06-10T08:57:54Z</time>
      </trkpt>
      <trkpt lat="44.10482" lon="7.043">
        <ele>1483.7</ele>
        <time>2018-06-10T08:57:55Z</time>
      </trkpt>
      <trkpt lat="44.10482" lon="7.0432">
        <ele>1475.8</ele>
        <time>2018-06-10T08:57:57Z</time>
      </trkpt>
      <trkpt lat="44.10481" lon="7.04346">
        <ele>1467.3</ele>
        <time>2018-06-10T08:57:59Z</time>
      </trkpt>
      <trkpt lat="44.1048" lon="7.04358">
        <ele>1464</ele>
        <time>2018-06-10T08:58:00Z</time>
      </trkpt>
      <trkpt lat="44.10479" lon="7.04369">
        <ele>1460.6</ele>
        <time>2018-06-10T08:58:01Z</time>
      </trkpt>
      <trkpt lat="44.10477" lon="7.04379">
        <ele>1456.9</ele>
        <time>2018-06-10T08:58:02Z</time>
      </trkpt>
      <trkpt lat="44.10473" lon="7.04388">
        <ele>1454.8</ele>
        <time>2018-06-10T08:58:03Z</time>
      </trkpt>
      <trkpt lat="44.10463" lon="7.044">
        <ele>1452.8</ele>
        <time>2018-06-10T08:58:05Z</time>
      </trkpt>
      <trkpt lat="44.10462" lon="7.04404">
        <ele>1454</ele>
        <time>2018-06-10T08:58:06Z</time>
      </trkpt>
      <trkpt lat="44.10461" lon="7.04406">
        <ele>1452</ele>
        <time>2018-06-10T08:58:07Z</time>
      </trkpt>
      <trkpt lat="44.1046" lon="7.04409">
        <ele>1449.9</ele>
        <time>2018-06-10T08:58:08Z</time>
      </trkpt>
      <trkpt lat="44.10457" lon="7.0441">
        <ele>1451.1</ele>
        <time>2018-06-10T08:58:09Z</time>
      </trkpt>
      <trkpt lat="44.10454" lon="7.04411">
        <ele>1452.2</ele>
        <time>2018-06-10T08:58:10Z</time>
      </trkpt>
      <trkpt lat="44.10452" lon="7.04412">
        <ele>1453.4</ele>
        <time>2018-06-10T08:58:11Z</time>
      </trkpt>
      <trkpt lat="44.10452" lon="7.04414">
        <ele>1451.4</ele>
        <time>2018-06-10T08:58:12Z</time>
      </trkpt>
      <trkpt lat="44.10455" lon="7.04416">
        <ele>1450.5</ele>
        <time>2018-06-10T08:58:13Z</time>
      </trkpt>
      <trkpt lat="44.10458" lon="7.04418">
        <ele>1447.5</ele>
        <time>2018-06-10T08:58:14Z</time>
      </trkpt>
      <trkpt lat="44.10463" lon="7.04419">
        <ele>1445.6</ele>
        <time>2018-06-10T08:58:15Z</time>
      </trkpt>
      <trkpt lat="44.10468" lon="7.0442">
        <ele>1444.5</ele>
        <time>2018-06-10T08:58:16Z</time>
      </trkpt>
      <trkpt lat="44.10472" lon="7.04419">
        <ele>1443.3</ele>
        <time>2018-06-10T08:58:17Z</time>
      </trkpt>
      <trkpt lat="44.10476" lon="7.04419">
        <ele>1440.6</ele>
        <time>2018-06-10T08:58:18Z</time>
      </trkpt>
      <trkpt lat="44.10478" lon="7.04419">
        <ele>1440.8</ele>
        <time>2018-06-10T08:58:19Z</time>
      </trkpt>
      <trkpt lat="44.10478" lon="7.0442">
        <ele>1440.9</ele>
        <time>2018-06-10T08:58:20Z</time>
      </trkpt>
      <trkpt lat="44.10475" lon="7.04423">
        <ele>1440.5</ele>
        <time>2018-06-10T08:58:21Z</time>
      </trkpt>
      <trkpt lat="44.10472" lon="7.04426">
        <ele>1438.7</ele>
        <time>2018-06-10T08:58:22Z</time>
      </trkpt>
      <trkpt lat="44.1047" lon="7.0443">
        <ele>1438.3</ele>
        <time>2018-06-10T08:58:24Z</time>
      </trkpt>
      <trkpt lat="44.1047" lon="7.04432">
        <ele>1438.4</ele>
        <time>2018-06-10T08:58:25Z</time>
      </trkpt>
      <trkpt lat="44.10473" lon="7.04432">
        <ele>1437.3</ele>
        <time>2018-06-10T08:58:26Z</time>
      </trkpt>
      <trkpt lat="44.10476" lon="7.04432">
        <ele>1436.1</ele>
        <time>2018-06-10T08:58:27Z</time>
      </trkpt>
      <trkpt lat="44.10477" lon="7.04433">
        <ele>1436.2</ele>
        <time>2018-06-10T08:58:28Z</time>
      </trkpt>
      <trkpt lat="44.10476" lon="7.04435">
        <ele>1434.5</ele>
        <time>2018-06-10T08:58:29Z</time>
      </trkpt>
      <trkpt lat="44.10474" lon="7.04438">
        <ele>1433.9</ele>
        <time>2018-06-10T08:58:30Z</time>
      </trkpt>
      <trkpt lat="44.10474" lon="7.04441">
        <ele>1434</ele>
        <time>2018-06-10T08:58:31Z</time>
      </trkpt>
      <trkpt lat="44.10476" lon="7.04442">
        <ele>1432.9</ele>
        <time>2018-06-10T08:58:32Z</time>
      </trkpt>
      <trkpt lat="44.10478" lon="7.04442">
        <ele>1433.1</ele>
        <time>2018-06-10T08:58:33Z</time>
      </trkpt>
      <trkpt lat="44.10483" lon="7.04442">
        <ele>1431</ele>
        <time>2018-06-10T08:58:35Z</time>
      </trkpt>
      <trkpt lat="44.10478" lon="7.04447">
        <ele>1429.2</ele>
        <time>2018-06-10T08:58:37Z</time>
      </trkpt>
      <trkpt lat="44.10476" lon="7.04457">
        <ele>1425.2</ele>
        <time>2018-06-10T08:58:39Z</time>
      </trkpt>
      <trkpt lat="44.10477" lon="7.04458">
        <ele>1425.4</ele>
        <time>2018-06-10T08:58:40Z</time>
      </trkpt>
      <trkpt lat="44.10481" lon="7.04456">
        <ele>1424.6</ele>
        <time>2018-06-10T08:58:41Z</time>
      </trkpt>
      <trkpt lat="44.10487" lon="7.04453">
        <ele>1424.9</ele>
        <time>2018-06-10T08:58:42Z</time>
      </trkpt>
      <trkpt lat="44.10493" lon="7.04451">
        <ele>1423.2</ele>
        <time>2018-06-10T08:58:43Z</time>
      </trkpt>
      <trkpt lat="44.10496" lon="7.04452">
        <ele>1422.4</ele>
        <time>2018-06-10T08:58:45Z</time>
      </trkpt>
      <trkpt lat="44.10496" lon="7.04453">
        <ele>1422.4</ele>
        <time>2018-06-10T08:58:46Z</time>
      </trkpt>
      <trkpt lat="44.10496" lon="7.04454">
        <ele>1422.4</ele>
        <time>2018-06-10T08:58:47Z</time>
      </trkpt>
      <trkpt lat="44.10496" lon="7.04456">
        <ele>1422.3</ele>
        <time>2018-06-10T08:58:48Z</time>
      </trkpt>
      <trkpt lat="44.10493" lon="7.0446">
        <ele>1422.3</ele>
        <time>2018-06-10T08:58:50Z</time>
      </trkpt>
      <trkpt lat="44.10489" lon="7.04467">
        <ele>1422.2</ele>
        <time>2018-06-10T08:58:52Z</time>
      </trkpt>
      <trkpt lat="44.10483" lon="7.04474">
        <ele>1420.4</ele>
        <time>2018-06-10T08:58:55Z</time>
      </trkpt>
      <trkpt lat="44.10474" lon="7.04483">
        <ele>1420</ele>
        <time>2018-06-10T08:59:00Z</time>
      </trkpt>
      <trkpt lat="44.10475" lon="7.04486">
        <ele>1424.3</ele>
        <time>2018-06-10T08:59:02Z</time>
      </trkpt>
      <trkpt lat="44.10467" lon="7.04485">
        <ele>1428.8</ele>
        <time>2018-06-10T09:04:54Z</time>
      </trkpt>
      <trkpt lat="44.10415" lon="7.04487">
        <ele>1443</ele>
        <time>2018-06-10T09:05:29Z</time>
      </trkpt>
      <trkpt lat="44.10367" lon="7.04515">
        <ele>1451</ele>
        <time>2018-06-10T09:05:52Z</time>
      </trkpt>
      <trkpt lat="44.10364" lon="7.04521">
        <ele>1450.1</ele>
        <time>2018-06-10T09:05:54Z</time>
      </trkpt>
      <trkpt lat="44.10343" lon="7.04547">
        <ele>1442.1</ele>
        <time>2018-06-10T09:06:07Z</time>
      </trkpt>
      <trkpt lat="44.10293" lon="7.04568">
        <ele>1457.9</ele>
        <time>2018-06-10T09:06:32Z</time>
      </trkpt>
      <trkpt lat="44.10286" lon="7.04577">
        <ele>1466.6</ele>
        <time>2018-06-10T09:06:36Z</time>
      </trkpt>
      <trkpt lat="44.10291" lon="7.046">
        <ele>1465.9</ele>
        <time>2018-06-10T09:06:42Z</time>
      </trkpt>
      <trkpt lat="44.10291" lon="7.04621">
        <ele>1458.2</ele>
        <time>2018-06-10T09:06:48Z</time>
      </trkpt>
      <trkpt lat="44.10274" lon="7.04635">
        <ele>1451.4</ele>
        <time>2018-06-10T09:06:55Z</time>
      </trkpt>
      <trkpt lat="44.10222" lon="7.04656">
        <ele>1477.5</ele>
        <time>2018-06-10T09:07:18Z</time>
      </trkpt>
      <trkpt lat="44.10207" lon="7.04665">
        <ele>1480.6</ele>
        <time>2018-06-10T09:07:26Z</time>
      </trkpt>
      <trkpt lat="44.10197" lon="7.04673">
        <ele>1488.4</ele>
        <time>2018-06-10T09:07:31Z</time>
      </trkpt>
      <trkpt lat="44.10201" lon="7.04694">
        <ele>1485.1</ele>
        <time>2018-06-10T09:07:36Z</time>
      </trkpt>
      <trkpt lat="44.10201" lon="7.04721">
        <ele>1468.7</ele>
        <time>2018-06-10T09:07:41Z</time>
      </trkpt>
      <trkpt lat="44.10177" lon="7.04772">
        <ele>1453</ele>
        <time>2018-06-10T09:07:52Z</time>
      </trkpt>
      <trkpt lat="44.10169" lon="7.04778">
        <ele>1455.1</ele>
        <time>2018-06-10T09:07:54Z</time>
      </trkpt>
      <trkpt lat="44.10152" lon="7.04783">
        <ele>1458.3</ele>
        <time>2018-06-10T09:07:58Z</time>
      </trkpt>
      <trkpt lat="44.10145" lon="7.04787">
        <ele>1461.3</ele>
        <time>2018-06-10T09:08:00Z</time>
      </trkpt>
      <trkpt lat="44.10112" lon="7.04802">
        <ele>1470</ele>
        <time>2018-06-10T09:08:07Z</time>
      </trkpt>
      <trkpt lat="44.10094" lon="7.0481">
        <ele>1471.1</ele>
        <time>2018-06-10T09:08:10Z</time>
      </trkpt>
      <trkpt lat="44.10088" lon="7.04813">
        <ele>1471.1</ele>
        <time>2018-06-10T09:08:11Z</time>
      </trkpt>
      <trkpt lat="44.10075" lon="7.04838">
        <ele>1460.6</ele>
        <time>2018-06-10T09:08:15Z</time>
      </trkpt>
      <trkpt lat="44.10072" lon="7.04843">
        <ele>1455.6</ele>
        <time>2018-06-10T09:08:16Z</time>
      </trkpt>
      <trkpt lat="44.10069" lon="7.04848">
        <ele>1451.1</ele>
        <time>2018-06-10T09:08:17Z</time>
      </trkpt>
      <trkpt lat="44.1006" lon="7.04875">
        <ele>1435.6</ele>
        <time>2018-06-10T09:08:21Z</time>
      </trkpt>
      <trkpt lat="44.10057" lon="7.04892">
        <ele>1422.7</ele>
        <time>2018-06-10T09:08:23Z</time>
      </trkpt>
      <trkpt lat="44.10055" lon="7.04927">
        <ele>1410.6</ele>
        <time>2018-06-10T09:08:28Z</time>
      </trkpt>
      <trkpt lat="44.10041" lon="7.04954">
        <ele>1404</ele>
        <time>2018-06-10T09:08:33Z</time>
      </trkpt>
      <trkpt lat="44.10019" lon="7.04974">
        <ele>1401.8</ele>
        <time>2018-06-10T09:08:39Z</time>
      </trkpt>
      <trkpt lat="44.1" lon="7.04984">
        <ele>1402.1</ele>
        <time>2018-06-10T09:08:43Z</time>
      </trkpt>
      <trkpt lat="44.09985" lon="7.04989">
        <ele>1402.5</ele>
        <time>2018-06-10T09:08:46Z</time>
      </trkpt>
      <trkpt lat="44.09975" lon="7.0499">
        <ele>1405.2</ele>
        <time>2018-06-10T09:08:48Z</time>
      </trkpt>
      <trkpt lat="44.09965" lon="7.04995">
        <ele>1406.6</ele>
        <time>2018-06-10T09:08:50Z</time>
      </trkpt>
      <trkpt lat="44.09961" lon="7.04998">
        <ele>1405.3</ele>
        <time>2018-06-10T09:08:51Z</time>
      </trkpt>
      <trkpt lat="44.0995" lon="7.05005">
        <ele>1402.6</ele>
        <time>2018-06-10T09:08:54Z</time>
      </trkpt>
      <trkpt lat="44.09928" lon="7.05026">
        <ele>1395.5</ele>
        <time>2018-06-10T09:09:01Z</time>
      </trkpt>
      <trkpt lat="44.09902" lon="7.05029">
        <ele>1398.6</ele>
        <time>2018-06-10T09:09:07Z</time>
      </trkpt>
      <trkpt lat="44.0989" lon="7.05032">
        <ele>1398.5</ele>
        <time>2018-06-10T09:09:10Z</time>
      </trkpt>
      <trkpt lat="44.09881" lon="7.05035">
        <ele>1400</ele>
        <time>2018-06-10T09:09:12Z</time>
      </trkpt>
      <trkpt lat="44.09845" lon="7.0506">
        <ele>1383.5</ele>
        <time>2018-06-10T09:09:19Z</time>
      </trkpt>
      <trkpt lat="44.09824" lon="7.05073">
        <ele>1376.6</ele>
        <time>2018-06-10T09:09:23Z</time>
      </trkpt>
      <trkpt lat="44.09815" lon="7.05079">
        <ele>1372.4</ele>
        <time>2018-06-10T09:09:25Z</time>
      </trkpt>
      <trkpt lat="44.09806" lon="7.05078">
        <ele>1373</ele>
        <time>2018-06-10T09:09:27Z</time>
      </trkpt>
      <trkpt lat="44.09802" lon="7.05068">
        <ele>1377.5</ele>
        <time>2018-06-10T09:09:29Z</time>
      </trkpt>
      <trkpt lat="44.09801" lon="7.05062">
        <ele>1380.2</ele>
        <time>2018-06-10T09:09:30Z</time>
      </trkpt>
      <trkpt lat="44.09794" lon="7.05044">
        <ele>1386</ele>
        <time>2018-06-10T09:09:33Z</time>
      </trkpt>
      <trkpt lat="44.09789" lon="7.05023">
        <ele>1396.9</ele>
        <time>2018-06-10T09:09:37Z</time>
      </trkpt>
      <trkpt lat="44.09766" lon="7.05015">
        <ele>1402.6</ele>
        <time>2018-06-10T09:09:42Z</time>
      </trkpt>
      <trkpt lat="44.09753" lon="7.05016">
        <ele>1399.3</ele>
        <time>2018-06-10T09:09:45Z</time>
      </trkpt>
      <trkpt lat="44.09732" lon="7.05021">
        <ele>1398.4</ele>
        <time>2018-06-10T09:09:49Z</time>
      </trkpt>
      <trkpt lat="44.09721" lon="7.05021">
        <ele>1399.3</ele>
        <time>2018-06-10T09:09:51Z</time>
      </trkpt>
      <trkpt lat="44.09711" lon="7.05026">
        <ele>1397.6</ele>
        <time>2018-06-10T09:09:53Z</time>
      </trkpt>
      <trkpt lat="44.09687" lon="7.05041">
        <ele>1386.6</ele>
        <time>2018-06-10T09:09:58Z</time>
      </trkpt>
      <trkpt lat="44.09676" lon="7.05042">
        <ele>1389.4</ele>
        <time>2018-06-10T09:10:00Z</time>
      </trkpt>
      <trkpt lat="44.09639" lon="7.05042">
        <ele>1390.7</ele>
        <time>2018-06-10T09:10:06Z</time>
      </trkpt>
      <trkpt lat="44.09629" lon="7.05049">
        <ele>1384.2</ele>
        <time>2018-06-10T09:10:08Z</time>
      </trkpt>
      <trkpt lat="44.09623" lon="7.05054">
        <ele>1380.6</ele>
        <time>2018-06-10T09:10:09Z</time>
      </trkpt>
      <trkpt lat="44.09612" lon="7.05056">
        <ele>1373.7</ele>
        <time>2018-06-10T09:10:11Z</time>
      </trkpt>
      <trkpt lat="44.09593" lon="7.05052">
        <ele>1368.4</ele>
        <time>2018-06-10T09:10:14Z</time>
      </trkpt>
      <trkpt lat="44.09588" lon="7.05049">
        <ele>1367</ele>
        <time>2018-06-10T09:10:15Z</time>
      </trkpt>
      <trkpt lat="44.09578" lon="7.05017">
        <ele>1377.9</ele>
        <time>2018-06-10T09:10:20Z</time>
      </trkpt>
      <trkpt lat="44.09575" lon="7.0501">
        <ele>1383.3</ele>
        <time>2018-06-10T09:10:21Z</time>
      </trkpt>
      <trkpt lat="44.09551" lon="7.04987">
        <ele>1396.7</ele>
        <time>2018-06-10T09:10:26Z</time>
      </trkpt>
      <trkpt lat="44.09543" lon="7.04976">
        <ele>1398.8</ele>
        <time>2018-06-10T09:10:28Z</time>
      </trkpt>
      <trkpt lat="44.0954" lon="7.04969">
        <ele>1404.5</ele>
        <time>2018-06-10T09:10:29Z</time>
      </trkpt>
      <trkpt lat="44.09536" lon="7.04962">
        <ele>1409.7</ele>
        <time>2018-06-10T09:10:30Z</time>
      </trkpt>
      <trkpt lat="44.09531" lon="7.04956">
        <ele>1414.5</ele>
        <time>2018-06-10T09:10:31Z</time>
      </trkpt>
      <trkpt lat="44.09501" lon="7.04946">
        <ele>1417.9</ele>
        <time>2018-06-10T09:10:36Z</time>
      </trkpt>
      <trkpt lat="44.09495" lon="7.04947">
        <ele>1416.8</ele>
        <time>2018-06-10T09:10:37Z</time>
      </trkpt>
      <trkpt lat="44.09481" lon="7.04949">
        <ele>1415</ele>
        <time>2018-06-10T09:10:39Z</time>
      </trkpt>
      <trkpt lat="44.09475" lon="7.0495">
        <ele>1414.3</ele>
        <time>2018-06-10T09:10:40Z</time>
      </trkpt>
      <trkpt lat="44.09456" lon="7.04957">
        <ele>1408</ele>
        <time>2018-06-10T09:10:43Z</time>
      </trkpt>
      <trkpt lat="44.09443" lon="7.04962">
        <ele>1404.3</ele>
        <time>2018-06-10T09:10:45Z</time>
      </trkpt>
      <trkpt lat="44.09413" lon="7.04987">
        <ele>1396.5</ele>
        <time>2018-06-10T09:10:50Z</time>
      </trkpt>
      <trkpt lat="44.09403" lon="7.05002">
        <ele>1392.2</ele>
        <time>2018-06-10T09:10:52Z</time>
      </trkpt>
      <trkpt lat="44.09398" lon="7.0501">
        <ele>1389.4</ele>
        <time>2018-06-10T09:10:53Z</time>
      </trkpt>
      <trkpt lat="44.0939" lon="7.05026">
        <ele>1388</ele>
        <time>2018-06-10T09:10:55Z</time>
      </trkpt>
      <trkpt lat="44.09381" lon="7.05045">
        <ele>1381.8</ele>
        <time>2018-06-10T09:10:57Z</time>
      </trkpt>
      <trkpt lat="44.09363" lon="7.05097">
        <ele>1358.3</ele>
        <time>2018-06-10T09:11:02Z</time>
      </trkpt>
      <trkpt lat="44.09357" lon="7.05114">
        <ele>1355</ele>
        <time>2018-06-10T09:11:04Z</time>
      </trkpt>
      <trkpt lat="44.09345" lon="7.05135">
        <ele>1355</ele>
        <time>2018-06-10T09:11:07Z</time>
      </trkpt>
      <trkpt lat="44.09341" lon="7.05141">
        <ele>1355</ele>
        <time>2018-06-10T09:11:08Z</time>
      </trkpt>
      <trkpt lat="44.09337" lon="7.05144">
        <ele>1354.4</ele>
        <time>2018-06-10T09:11:09Z</time>
      </trkpt>
      <trkpt lat="44.09328" lon="7.05148">
        <ele>1348.6</ele>
        <time>2018-06-10T09:11:11Z</time>
      </trkpt>
      <trkpt lat="44.09322" lon="7.05145">
        <ele>1344.6</ele>
        <time>2018-06-10T09:11:13Z</time>
      </trkpt>
      <trkpt lat="44.09313" lon="7.05133">
        <ele>1337</ele>
        <time>2018-06-10T09:11:17Z</time>
      </trkpt>
      <trkpt lat="44.09308" lon="7.05123">
        <ele>1323</ele>
        <time>2018-06-10T09:11:20Z</time>
      </trkpt>
      <trkpt lat="44.09296" lon="7.05086">
        <ele>1334.1</ele>
        <time>2018-06-10T09:11:27Z</time>
      </trkpt>
      <trkpt lat="44.09278" lon="7.05063">
        <ele>1347.8</ele>
        <time>2018-06-10T09:11:31Z</time>
      </trkpt>
      <trkpt lat="44.09257" lon="7.05049">
        <ele>1346.9</ele>
        <time>2018-06-10T09:11:34Z</time>
      </trkpt>
      <trkpt lat="44.09222" lon="7.05011">
        <ele>1341</ele>
        <time>2018-06-10T09:11:40Z</time>
      </trkpt>
      <trkpt lat="44.09217" lon="7.05002">
        <ele>1339.7</ele>
        <time>2018-06-10T09:11:41Z</time>
      </trkpt>
      <trkpt lat="44.09197" lon="7.04948">
        <ele>1332.7</ele>
        <time>2018-06-10T09:11:46Z</time>
      </trkpt>
      <trkpt lat="44.09189" lon="7.04922">
        <ele>1329.4</ele>
        <time>2018-06-10T09:11:48Z</time>
      </trkpt>
      <trkpt lat="44.09187" lon="7.04908">
        <ele>1327.8</ele>
        <time>2018-06-10T09:11:49Z</time>
      </trkpt>
      <trkpt lat="44.09181" lon="7.04883">
        <ele>1328.2</ele>
        <time>2018-06-10T09:11:51Z</time>
      </trkpt>
      <trkpt lat="44.09175" lon="7.04861">
        <ele>1329.3</ele>
        <time>2018-06-10T09:11:53Z</time>
      </trkpt>
      <trkpt lat="44.09168" lon="7.04837">
        <ele>1330.2</ele>
        <time>2018-06-10T09:11:56Z</time>
      </trkpt>
      <trkpt lat="44.09165" lon="7.04821">
        <ele>1330.8</ele>
        <time>2018-06-10T09:11:59Z</time>
      </trkpt>
      <trkpt lat="44.09161" lon="7.04776">
        <ele>1332</ele>
        <time>2018-06-10T09:12:13Z</time>
      </trkpt>
      <trkpt lat="44.0916" lon="7.04758">
        <ele>1332.4</ele>
        <time>2018-06-10T09:12:20Z</time>
      </trkpt>
      <trkpt lat="44.09159" lon="7.0474">
        <ele>1332.9</ele>
        <time>2018-06-10T09:12:27Z</time>
      </trkpt>
      <trkpt lat="44.09159" lon="7.04716">
        <ele>1333.5</ele>
        <time>2018-06-10T09:12:36Z</time>
      </trkpt>
      <trkpt lat="44.09158" lon="7.04696">
        <ele>1334.1</ele>
        <time>2018-06-10T09:12:43Z</time>
      </trkpt>
      <trkpt lat="44.09158" lon="7.04673">
        <ele>1334.7</ele>
        <time>2018-06-10T09:12:51Z</time>
      </trkpt>
      <trkpt lat="44.09158" lon="7.0466">
        <ele>1335.1</ele>
        <time>2018-06-10T09:12:56Z</time>
      </trkpt>
      <trkpt lat="44.09159" lon="7.04644">
        <ele>1335.5</ele>
        <time>2018-06-10T09:13:02Z</time>
      </trkpt>
      <trkpt lat="44.0916" lon="7.04618">
        <ele>1336.5</ele>
        <time>2018-06-10T09:13:12Z</time>
      </trkpt>
      <trkpt lat="44.09163" lon="7.04591">
        <ele>1337.4</ele>
        <time>2018-06-10T09:13:22Z</time>
      </trkpt>
      <trkpt lat="44.09163" lon="7.04568">
        <ele>1338</ele>
        <time>2018-06-10T09:13:31Z</time>
      </trkpt>
      <trkpt lat="44.09165" lon="7.04553">
        <ele>1338.5</ele>
        <time>2018-06-10T09:13:37Z</time>
      </trkpt>
      <trkpt lat="44.09167" lon="7.04531">
        <ele>1339</ele>
        <time>2018-06-10T09:13:45Z</time>
      </trkpt>
      <trkpt lat="44.0917" lon="7.04506">
        <ele>1339.5</ele>
        <time>2018-06-10T09:13:55Z</time>
      </trkpt>
      <trkpt lat="44.09171" lon="7.04485">
        <ele>1340</ele>
        <time>2018-06-10T09:14:03Z</time>
      </trkpt>
      <trkpt lat="44.09173" lon="7.04463">
        <ele>1340.3</ele>
        <time>2018-06-10T09:14:11Z</time>
      </trkpt>
      <trkpt lat="44.09173" lon="7.04436">
        <ele>1340.7</ele>
        <time>2018-06-10T09:14:20Z</time>
      </trkpt>
      <trkpt lat="44.09175" lon="7.0442">
        <ele>1340.9</ele>
        <time>2018-06-10T09:14:26Z</time>
      </trkpt>
      <trkpt lat="44.09178" lon="7.044">
        <ele>1343.7</ele>
        <time>2018-06-10T09:14:33Z</time>
      </trkpt>
      <trkpt lat="44.09185" lon="7.04377">
        <ele>1347.4</ele>
        <time>2018-06-10T09:14:42Z</time>
      </trkpt>
      <trkpt lat="44.09189" lon="7.04357">
        <ele>1350.6</ele>
        <time>2018-06-10T09:14:50Z</time>
      </trkpt>
      <trkpt lat="44.09193" lon="7.04339">
        <ele>1353.4</ele>
        <time>2018-06-10T09:14:57Z</time>
      </trkpt>
      <trkpt lat="44.09197" lon="7.04315">
        <ele>1357.2</ele>
        <time>2018-06-10T09:15:06Z</time>
      </trkpt>
      <trkpt lat="44.09201" lon="7.04294">
        <ele>1360.6</ele>
        <time>2018-06-10T09:15:14Z</time>
      </trkpt>
      <trkpt lat="44.09204" lon="7.0427">
        <ele>1364.7</ele>
        <time>2018-06-10T09:15:23Z</time>
      </trkpt>
      <trkpt lat="44.09206" lon="7.04251">
        <ele>1367.8</ele>
        <time>2018-06-10T09:15:30Z</time>
      </trkpt>
      <trkpt lat="44.09205" lon="7.04231">
        <ele>1371.3</ele>
        <time>2018-06-10T09:15:38Z</time>
      </trkpt>
      <trkpt lat="44.09205" lon="7.04211">
        <ele>1374.6</ele>
        <time>2018-06-10T09:15:46Z</time>
      </trkpt>
      <trkpt lat="44.09206" lon="7.04194">
        <ele>1377.4</ele>
        <time>2018-06-10T09:15:53Z</time>
      </trkpt>
      <trkpt lat="44.09207" lon="7.04191">
        <ele>1377.9</ele>
        <time>2018-06-10T09:15:54Z</time>
      </trkpt>
      <trkpt lat="44.0921" lon="7.04176">
        <ele>1380.5</ele>
        <time>2018-06-10T09:16:00Z</time>
      </trkpt>
      <trkpt lat="44.09213" lon="7.04155">
        <ele>1383.7</ele>
        <time>2018-06-10T09:16:08Z</time>
      </trkpt>
      <trkpt lat="44.09215" lon="7.04133">
        <ele>1386.9</ele>
        <time>2018-06-10T09:16:16Z</time>
      </trkpt>
      <trkpt lat="44.09216" lon="7.04117">
        <ele>1389.1</ele>
        <time>2018-06-10T09:16:22Z</time>
      </trkpt>
      <trkpt lat="44.09216" lon="7.04091">
        <ele>1392.7</ele>
        <time>2018-06-10T09:16:31Z</time>
      </trkpt>
      <trkpt lat="44.09218" lon="7.04069">
        <ele>1395.9</ele>
        <time>2018-06-10T09:16:39Z</time>
      </trkpt>
      <trkpt lat="44.0922" lon="7.04046">
        <ele>1399.1</ele>
        <time>2018-06-10T09:16:47Z</time>
      </trkpt>
      <trkpt lat="44.09224" lon="7.04033">
        <ele>1401</ele>
        <time>2018-06-10T09:16:52Z</time>
      </trkpt>
      <trkpt lat="44.09229" lon="7.04015">
        <ele>1403.5</ele>
        <time>2018-06-10T09:16:59Z</time>
      </trkpt>
      <trkpt lat="44.09232" lon="7.03999">
        <ele>1405.1</ele>
        <time>2018-06-10T09:17:05Z</time>
      </trkpt>
      <trkpt lat="44.09233" lon="7.03979">
        <ele>1407.2</ele>
        <time>2018-06-10T09:17:13Z</time>
      </trkpt>
      <trkpt lat="44.09234" lon="7.03961">
        <ele>1408.9</ele>
        <time>2018-06-10T09:17:20Z</time>
      </trkpt>
      <trkpt lat="44.09224" lon="7.03941">
        <ele>1412.1</ele>
        <time>2018-06-10T09:17:28Z</time>
      </trkpt>
      <trkpt lat="44.09208" lon="7.03945">
        <ele>1414.2</ele>
        <time>2018-06-10T09:17:37Z</time>
      </trkpt>
      <trkpt lat="44.09196" lon="7.03968">
        <ele>1415.5</ele>
        <time>2018-06-10T09:17:46Z</time>
      </trkpt>
      <trkpt lat="44.09185" lon="7.03988">
        <ele>1416.8</ele>
        <time>2018-06-10T09:17:54Z</time>
      </trkpt>
      <trkpt lat="44.09176" lon="7.0401">
        <ele>1418</ele>
        <time>2018-06-10T09:18:02Z</time>
      </trkpt>
      <trkpt lat="44.09165" lon="7.04033">
        <ele>1419.2</ele>
        <time>2018-06-10T09:18:11Z</time>
      </trkpt>
      <trkpt lat="44.09159" lon="7.04052">
        <ele>1419.9</ele>
        <time>2018-06-10T09:18:18Z</time>
      </trkpt>
      <trkpt lat="44.09155" lon="7.04068">
        <ele>1420.5</ele>
        <time>2018-06-10T09:18:24Z</time>
      </trkpt>
      <trkpt lat="44.09146" lon="7.04084">
        <ele>1421.1</ele>
        <time>2018-06-10T09:18:31Z</time>
      </trkpt>
      <trkpt lat="44.09136" lon="7.04102">
        <ele>1421.7</ele>
        <time>2018-06-10T09:18:39Z</time>
      </trkpt>
      <trkpt lat="44.09129" lon="7.04112">
        <ele>1422.1</ele>
        <time>2018-06-10T09:18:44Z</time>
      </trkpt>
      <trkpt lat="44.09119" lon="7.04128">
        <ele>1422.6</ele>
        <time>2018-06-10T09:18:51Z</time>
      </trkpt>
      <trkpt lat="44.09112" lon="7.04147">
        <ele>1423.1</ele>
        <time>2018-06-10T09:18:58Z</time>
      </trkpt>
      <trkpt lat="44.09105" lon="7.04161">
        <ele>1423.6</ele>
        <time>2018-06-10T09:19:04Z</time>
      </trkpt>
      <trkpt lat="44.091" lon="7.04178">
        <ele>1424</ele>
        <time>2018-06-10T09:19:10Z</time>
      </trkpt>
      <trkpt lat="44.09091" lon="7.04203">
        <ele>1424.6</ele>
        <time>2018-06-10T09:19:19Z</time>
      </trkpt>
      <trkpt lat="44.09081" lon="7.04218">
        <ele>1425.1</ele>
        <time>2018-06-10T09:19:26Z</time>
      </trkpt>
      <trkpt lat="44.09069" lon="7.04231">
        <ele>1425.6</ele>
        <time>2018-06-10T09:19:34Z</time>
      </trkpt>
      <trkpt lat="44.0906" lon="7.04237">
        <ele>1425.9</ele>
        <time>2018-06-10T09:19:39Z</time>
      </trkpt>
      <trkpt lat="44.09047" lon="7.04242">
        <ele>1426.4</ele>
        <time>2018-06-10T09:19:46Z</time>
      </trkpt>
      <trkpt lat="44.09036" lon="7.04251">
        <ele>1426.8</ele>
        <time>2018-06-10T09:19:52Z</time>
      </trkpt>
      <trkpt lat="44.09027" lon="7.04263">
        <ele>1427.1</ele>
        <time>2018-06-10T09:19:58Z</time>
      </trkpt>
      <trkpt lat="44.09013" lon="7.04279">
        <ele>1427.7</ele>
        <time>2018-06-10T09:20:07Z</time>
      </trkpt>
      <trkpt lat="44.09003" lon="7.04294">
        <ele>1428.4</ele>
        <time>2018-06-10T09:20:14Z</time>
      </trkpt>
      <trkpt lat="44.08994" lon="7.04314">
        <ele>1429.5</ele>
        <time>2018-06-10T09:20:21Z</time>
      </trkpt>
      <trkpt lat="44.08981" lon="7.04332">
        <ele>1430.7</ele>
        <time>2018-06-10T09:20:29Z</time>
      </trkpt>
      <trkpt lat="44.08964" lon="7.04333">
        <ele>1431.8</ele>
        <time>2018-06-10T09:20:37Z</time>
      </trkpt>
      <trkpt lat="44.08953" lon="7.04329">
        <ele>1432.4</ele>
        <time>2018-06-10T09:20:43Z</time>
      </trkpt>
      <trkpt lat="44.08937" lon="7.04324">
        <ele>1433.1</ele>
        <time>2018-06-10T09:20:51Z</time>
      </trkpt>
      <trkpt lat="44.08927" lon="7.04321">
        <ele>1433.5</ele>
        <time>2018-06-10T09:20:56Z</time>
      </trkpt>
      <trkpt lat="44.0891" lon="7.04314">
        <ele>1434.1</ele>
        <time>2018-06-10T09:21:04Z</time>
      </trkpt>
      <trkpt lat="44.08904" lon="7.0431">
        <ele>1434.3</ele>
        <time>2018-06-10T09:21:07Z</time>
      </trkpt>
      <trkpt lat="44.08892" lon="7.04297">
        <ele>1434.6</ele>
        <time>2018-06-10T09:21:14Z</time>
      </trkpt>
      <trkpt lat="44.08882" lon="7.04282">
        <ele>1434.8</ele>
        <time>2018-06-10T09:21:21Z</time>
      </trkpt>
      <trkpt lat="44.08872" lon="7.04269">
        <ele>1435</ele>
        <time>2018-06-10T09:21:28Z</time>
      </trkpt>
      <trkpt lat="44.08864" lon="7.04254">
        <ele>1435.2</ele>
        <time>2018-06-10T09:21:35Z</time>
      </trkpt>
      <trkpt lat="44.08859" lon="7.04234">
        <ele>1435.3</ele>
        <time>2018-06-10T09:21:42Z</time>
      </trkpt>
      <trkpt lat="44.08853" lon="7.0422">
        <ele>1435.6</ele>
        <time>2018-06-10T09:21:48Z</time>
      </trkpt>
      <trkpt lat="44.08846" lon="7.04216">
        <ele>1435.7</ele>
        <time>2018-06-10T09:21:52Z</time>
      </trkpt>
      <trkpt lat="44.08838" lon="7.04218">
        <ele>1435.9</ele>
        <time>2018-06-10T09:21:56Z</time>
      </trkpt>
      <trkpt lat="44.08829" lon="7.04235">
        <ele>1436.7</ele>
        <time>2018-06-10T09:22:04Z</time>
      </trkpt>
      <trkpt lat="44.08823" lon="7.04253">
        <ele>1438.3</ele>
        <time>2018-06-10T09:22:11Z</time>
      </trkpt>
      <trkpt lat="44.08818" lon="7.04269">
        <ele>1439.3</ele>
        <time>2018-06-10T09:22:18Z</time>
      </trkpt>
      <trkpt lat="44.08813" lon="7.04291">
        <ele>1440.2</ele>
        <time>2018-06-10T09:22:26Z</time>
      </trkpt>
      <trkpt lat="44.08809" lon="7.04307">
        <ele>1440.6</ele>
        <time>2018-06-10T09:22:32Z</time>
      </trkpt>
      <trkpt lat="44.08805" lon="7.04325">
        <ele>1441</ele>
        <time>2018-06-10T09:22:39Z</time>
      </trkpt>
      <trkpt lat="44.08801" lon="7.04345">
        <ele>1441.3</ele>
        <time>2018-06-10T09:22:47Z</time>
      </trkpt>
      <trkpt lat="44.08794" lon="7.04367">
        <ele>1441.7</ele>
        <time>2018-06-10T09:22:56Z</time>
      </trkpt>
      <trkpt lat="44.08778" lon="7.04383">
        <ele>1441.9</ele>
        <time>2018-06-10T09:23:07Z</time>
      </trkpt>
      <trkpt lat="44.0878" lon="7.04365">
        <ele>1443.7</ele>
        <time>2018-06-10T09:23:14Z</time>
      </trkpt>
      <trkpt lat="44.08782" lon="7.04359">
        <ele>1444.6</ele>
        <time>2018-06-10T09:23:16Z</time>
      </trkpt>
      <trkpt lat="44.08788" lon="7.04341">
        <ele>1446.9</ele>
        <time>2018-06-10T09:23:22Z</time>
      </trkpt>
      <trkpt lat="44.08794" lon="7.04306">
        <ele>1450.7</ele>
        <time>2018-06-10T09:23:34Z</time>
      </trkpt>
      <trkpt lat="44.08797" lon="7.04285">
        <ele>1452.7</ele>
        <time>2018-06-10T09:23:41Z</time>
      </trkpt>
      <trkpt lat="44.08802" lon="7.0426">
        <ele>1455.3</ele>
        <time>2018-06-10T09:23:50Z</time>
      </trkpt>
      <trkpt lat="44.08805" lon="7.04237">
        <ele>1457.5</ele>
        <time>2018-06-10T09:23:58Z</time>
      </trkpt>
      <trkpt lat="44.08809" lon="7.04212">
        <ele>1459.8</ele>
        <time>2018-06-10T09:24:07Z</time>
      </trkpt>
      <trkpt lat="44.08813" lon="7.04199">
        <ele>1461</ele>
        <time>2018-06-10T09:24:13Z</time>
      </trkpt>
      <trkpt lat="44.08816" lon="7.04191">
        <ele>1461.8</ele>
        <time>2018-06-10T09:24:17Z</time>
      </trkpt>
      <trkpt lat="44.08817" lon="7.04189">
        <ele>1462.1</ele>
        <time>2018-06-10T09:24:18Z</time>
      </trkpt>
      <trkpt lat="44.0882" lon="7.04176">
        <ele>1463.2</ele>
        <time>2018-06-10T09:24:24Z</time>
      </trkpt>
      <trkpt lat="44.08825" lon="7.04159">
        <ele>1464.7</ele>
        <time>2018-06-10T09:24:31Z</time>
      </trkpt>
      <trkpt lat="44.08828" lon="7.04145">
        <ele>1465.9</ele>
        <time>2018-06-10T09:24:37Z</time>
      </trkpt>
      <trkpt lat="44.08832" lon="7.0413">
        <ele>1467.2</ele>
        <time>2018-06-10T09:24:44Z</time>
      </trkpt>
      <trkpt lat="44.08834" lon="7.04117">
        <ele>1468.2</ele>
        <time>2018-06-10T09:24:49Z</time>
      </trkpt>
      <trkpt lat="44.08835" lon="7.04102">
        <ele>1469.4</ele>
        <time>2018-06-10T09:24:55Z</time>
      </trkpt>
      <trkpt lat="44.08839" lon="7.04079">
        <ele>1471.2</ele>
        <time>2018-06-10T09:25:04Z</time>
      </trkpt>
      <trkpt lat="44.08843" lon="7.04061">
        <ele>1472.7</ele>
        <time>2018-06-10T09:25:11Z</time>
      </trkpt>
      <trkpt lat="44.08847" lon="7.04045">
        <ele>1474</ele>
        <time>2018-06-10T09:25:18Z</time>
      </trkpt>
      <trkpt lat="44.08853" lon="7.04036">
        <ele>1474.8</ele>
        <time>2018-06-10T09:25:23Z</time>
      </trkpt>
      <trkpt lat="44.08857" lon="7.04027">
        <ele>1475.7</ele>
        <time>2018-06-10T09:25:28Z</time>
      </trkpt>
      <trkpt lat="44.08861" lon="7.04012">
        <ele>1476.8</ele>
        <time>2018-06-10T09:25:35Z</time>
      </trkpt>
      <trkpt lat="44.08867" lon="7.03991">
        <ele>1478.4</ele>
        <time>2018-06-10T09:25:44Z</time>
      </trkpt>
      <trkpt lat="44.08868" lon="7.03972">
        <ele>1479.8</ele>
        <time>2018-06-10T09:25:51Z</time>
      </trkpt>
      <trkpt lat="44.0887" lon="7.03952">
        <ele>1481.3</ele>
        <time>2018-06-10T09:25:59Z</time>
      </trkpt>
      <trkpt lat="44.08871" lon="7.03929">
        <ele>1483.1</ele>
        <time>2018-06-10T09:26:08Z</time>
      </trkpt>
      <trkpt lat="44.08872" lon="7.03911">
        <ele>1484.5</ele>
        <time>2018-06-10T09:26:15Z</time>
      </trkpt>
      <trkpt lat="44.08875" lon="7.03895">
        <ele>1485.7</ele>
        <time>2018-06-10T09:26:21Z</time>
      </trkpt>
      <trkpt lat="44.08877" lon="7.03872">
        <ele>1487.5</ele>
        <time>2018-06-10T09:26:30Z</time>
      </trkpt>
      <trkpt lat="44.0888" lon="7.03855">
        <ele>1488.8</ele>
        <time>2018-06-10T09:26:36Z</time>
      </trkpt>
      <trkpt lat="44.08886" lon="7.03836">
        <ele>1490.4</ele>
        <time>2018-06-10T09:26:44Z</time>
      </trkpt>
      <trkpt lat="44.08893" lon="7.03826">
        <ele>1491.2</ele>
        <time>2018-06-10T09:26:49Z</time>
      </trkpt>
      <trkpt lat="44.08905" lon="7.03842">
        <ele>1491.7</ele>
        <time>2018-06-10T09:26:58Z</time>
      </trkpt>
      <trkpt lat="44.08907" lon="7.03881">
        <ele>1492.7</ele>
        <time>2018-06-10T09:27:11Z</time>
      </trkpt>
      <trkpt lat="44.08912" lon="7.03902">
        <ele>1493.3</ele>
        <time>2018-06-10T09:27:19Z</time>
      </trkpt>
      <trkpt lat="44.08922" lon="7.03915">
        <ele>1494</ele>
        <time>2018-06-10T09:27:26Z</time>
      </trkpt>
      <trkpt lat="44.08929" lon="7.03917">
        <ele>1494.4</ele>
        <time>2018-06-10T09:27:30Z</time>
      </trkpt>
      <trkpt lat="44.08935" lon="7.03917">
        <ele>1494.7</ele>
        <time>2018-06-10T09:27:33Z</time>
      </trkpt>
      <trkpt lat="44.08953" lon="7.03919">
        <ele>1495.6</ele>
        <time>2018-06-10T09:27:42Z</time>
      </trkpt>
      <trkpt lat="44.0897" lon="7.03922">
        <ele>1496.5</ele>
        <time>2018-06-10T09:27:51Z</time>
      </trkpt>
      <trkpt lat="44.08985" lon="7.03919">
        <ele>1497.2</ele>
        <time>2018-06-10T09:27:59Z</time>
      </trkpt>
      <trkpt lat="44.08994" lon="7.0391">
        <ele>1497.9</ele>
        <time>2018-06-10T09:28:05Z</time>
      </trkpt>
      <trkpt lat="44.09003" lon="7.03896">
        <ele>1498.6</ele>
        <time>2018-06-10T09:28:12Z</time>
      </trkpt>
      <trkpt lat="44.0901" lon="7.03881">
        <ele>1499.3</ele>
        <time>2018-06-10T09:28:18Z</time>
      </trkpt>
      <trkpt lat="44.09022" lon="7.03853">
        <ele>1500.4</ele>
        <time>2018-06-10T09:28:29Z</time>
      </trkpt>
      <trkpt lat="44.0903" lon="7.0384">
        <ele>1501</ele>
        <time>2018-06-10T09:28:35Z</time>
      </trkpt>
      <trkpt lat="44.0904" lon="7.03829">
        <ele>1501.5</ele>
        <time>2018-06-10T09:28:42Z</time>
      </trkpt>
      <trkpt lat="44.09049" lon="7.03819">
        <ele>1502</ele>
        <time>2018-06-10T09:28:48Z</time>
      </trkpt>
      <trkpt lat="44.0906" lon="7.03804">
        <ele>1502.7</ele>
        <time>2018-06-10T09:28:56Z</time>
      </trkpt>
      <trkpt lat="44.09069" lon="7.03791">
        <ele>1503.2</ele>
        <time>2018-06-10T09:29:03Z</time>
      </trkpt>
      <trkpt lat="44.09077" lon="7.03777">
        <ele>1503.8</ele>
        <time>2018-06-10T09:29:10Z</time>
      </trkpt>
      <trkpt lat="44.09087" lon="7.03759">
        <ele>1504.6</ele>
        <time>2018-06-10T09:29:18Z</time>
      </trkpt>
      <trkpt lat="44.09096" lon="7.03744">
        <ele>1505.3</ele>
        <time>2018-06-10T09:29:25Z</time>
      </trkpt>
      <trkpt lat="44.09104" lon="7.03732">
        <ele>1505.9</ele>
        <time>2018-06-10T09:29:31Z</time>
      </trkpt>
      <trkpt lat="44.09111" lon="7.0372">
        <ele>1506.3</ele>
        <time>2018-06-10T09:29:37Z</time>
      </trkpt>
      <trkpt lat="44.09118" lon="7.03709">
        <ele>1506.7</ele>
        <time>2018-06-10T09:29:43Z</time>
      </trkpt>
      <trkpt lat="44.09128" lon="7.03696">
        <ele>1507.1</ele>
        <time>2018-06-10T09:29:50Z</time>
      </trkpt>
      <trkpt lat="44.09138" lon="7.03684">
        <ele>1507.4</ele>
        <time>2018-06-10T09:29:57Z</time>
      </trkpt>
      <trkpt lat="44.09152" lon="7.03673">
        <ele>1507.7</ele>
        <time>2018-06-10T09:30:05Z</time>
      </trkpt>
      <trkpt lat="44.09162" lon="7.03666">
        <ele>1507.9</ele>
        <time>2018-06-10T09:30:11Z</time>
      </trkpt>
      <trkpt lat="44.09172" lon="7.03662">
        <ele>1508.7</ele>
        <time>2018-06-10T09:30:17Z</time>
      </trkpt>
      <trkpt lat="44.09184" lon="7.03659">
        <ele>1509.7</ele>
        <time>2018-06-10T09:30:24Z</time>
      </trkpt>
      <trkpt lat="44.09197" lon="7.03652">
        <ele>1511</ele>
        <time>2018-06-10T09:30:31Z</time>
      </trkpt>
      <trkpt lat="44.09211" lon="7.0364">
        <ele>1512.6</ele>
        <time>2018-06-10T09:30:39Z</time>
      </trkpt>
      <trkpt lat="44.0922" lon="7.03628">
        <ele>1513.9</ele>
        <time>2018-06-10T09:30:45Z</time>
      </trkpt>
      <trkpt lat="44.09227" lon="7.03619">
        <ele>1514.8</ele>
        <time>2018-06-10T09:30:50Z</time>
      </trkpt>
      <trkpt lat="44.09235" lon="7.03607">
        <ele>1516</ele>
        <time>2018-06-10T09:30:57Z</time>
      </trkpt>
      <trkpt lat="44.09247" lon="7.03597">
        <ele>1517.2</ele>
        <time>2018-06-10T09:31:05Z</time>
      </trkpt>
      <trkpt lat="44.09254" lon="7.03593">
        <ele>1518</ele>
        <time>2018-06-10T09:31:10Z</time>
      </trkpt>
      <trkpt lat="44.09262" lon="7.03588">
        <ele>1518.8</ele>
        <time>2018-06-10T09:31:16Z</time>
      </trkpt>
      <trkpt lat="44.09274" lon="7.0358">
        <ele>1519.9</ele>
        <time>2018-06-10T09:31:23Z</time>
      </trkpt>
      <trkpt lat="44.09285" lon="7.03571">
        <ele>1520.9</ele>
        <time>2018-06-10T09:31:29Z</time>
      </trkpt>
      <trkpt lat="44.09299" lon="7.03559">
        <ele>1522</ele>
        <time>2018-06-10T09:31:36Z</time>
      </trkpt>
      <trkpt lat="44.0931" lon="7.0355">
        <ele>1522.8</ele>
        <time>2018-06-10T09:31:43Z</time>
      </trkpt>
      <trkpt lat="44.09326" lon="7.03536">
        <ele>1523.9</ele>
        <time>2018-06-10T09:31:51Z</time>
      </trkpt>
      <trkpt lat="44.09337" lon="7.03521">
        <ele>1524.9</ele>
        <time>2018-06-10T09:31:58Z</time>
      </trkpt>
      <trkpt lat="44.09348" lon="7.03495">
        <ele>1526</ele>
        <time>2018-06-10T09:32:08Z</time>
      </trkpt>
      <trkpt lat="44.09351" lon="7.03479">
        <ele>1526.5</ele>
        <time>2018-06-10T09:32:13Z</time>
      </trkpt>
      <trkpt lat="44.09342" lon="7.03472">
        <ele>1527.1</ele>
        <time>2018-06-10T09:32:18Z</time>
      </trkpt>
      <trkpt lat="44.09333" lon="7.0348">
        <ele>1527.7</ele>
        <time>2018-06-10T09:32:23Z</time>
      </trkpt>
      <trkpt lat="44.09326" lon="7.03495">
        <ele>1528.3</ele>
        <time>2018-06-10T09:32:29Z</time>
      </trkpt>
      <trkpt lat="44.09312" lon="7.03513">
        <ele>1529.2</ele>
        <time>2018-06-10T09:32:38Z</time>
      </trkpt>
      <trkpt lat="44.093" lon="7.0352">
        <ele>1529.8</ele>
        <time>2018-06-10T09:32:44Z</time>
      </trkpt>
      <trkpt lat="44.09291" lon="7.03523">
        <ele>1530.1</ele>
        <time>2018-06-10T09:32:49Z</time>
      </trkpt>
      <trkpt lat="44.09277" lon="7.03529">
        <ele>1530.6</ele>
        <time>2018-06-10T09:32:56Z</time>
      </trkpt>
      <trkpt lat="44.09259" lon="7.03534">
        <ele>1531.3</ele>
        <time>2018-06-10T09:33:05Z</time>
      </trkpt>
      <trkpt lat="44.09245" lon="7.03538">
        <ele>1531.9</ele>
        <time>2018-06-10T09:33:12Z</time>
      </trkpt>
      <trkpt lat="44.09229" lon="7.03543">
        <ele>1532.5</ele>
        <time>2018-06-10T09:33:20Z</time>
      </trkpt>
      <trkpt lat="44.09213" lon="7.0355">
        <ele>1533.1</ele>
        <time>2018-06-10T09:33:29Z</time>
      </trkpt>
      <trkpt lat="44.092" lon="7.03553">
        <ele>1533.5</ele>
        <time>2018-06-10T09:33:36Z</time>
      </trkpt>
      <trkpt lat="44.09187" lon="7.03556">
        <ele>1533.8</ele>
        <time>2018-06-10T09:33:43Z</time>
      </trkpt>
      <trkpt lat="44.09172" lon="7.03556">
        <ele>1534.2</ele>
        <time>2018-06-10T09:33:51Z</time>
      </trkpt>
      <trkpt lat="44.09158" lon="7.03549">
        <ele>1534.7</ele>
        <time>2018-06-10T09:33:58Z</time>
      </trkpt>
      <trkpt lat="44.09148" lon="7.03529">
        <ele>1535.5</ele>
        <time>2018-06-10T09:34:06Z</time>
      </trkpt>
      <trkpt lat="44.0915" lon="7.03507">
        <ele>1536.1</ele>
        <time>2018-06-10T09:34:13Z</time>
      </trkpt>
      <trkpt lat="44.09155" lon="7.03493">
        <ele>1536.3</ele>
        <time>2018-06-10T09:34:18Z</time>
      </trkpt>
      <trkpt lat="44.09163" lon="7.03474">
        <ele>1536.5</ele>
        <time>2018-06-10T09:34:26Z</time>
      </trkpt>
      <trkpt lat="44.09169" lon="7.03456">
        <ele>1536.8</ele>
        <time>2018-06-10T09:34:33Z</time>
      </trkpt>
      <trkpt lat="44.09168" lon="7.03437">
        <ele>1537.3</ele>
        <time>2018-06-10T09:34:40Z</time>
      </trkpt>
      <trkpt lat="44.09158" lon="7.0342">
        <ele>1537.8</ele>
        <time>2018-06-10T09:34:48Z</time>
      </trkpt>
      <trkpt lat="44.09149" lon="7.03413">
        <ele>1538.2</ele>
        <time>2018-06-10T09:34:53Z</time>
      </trkpt>
      <trkpt lat="44.09126" lon="7.03403">
        <ele>1538.9</ele>
        <time>2018-06-10T09:35:04Z</time>
      </trkpt>
      <trkpt lat="44.09116" lon="7.03399">
        <ele>1539.1</ele>
        <time>2018-06-10T09:35:09Z</time>
      </trkpt>
      <trkpt lat="44.09106" lon="7.03395">
        <ele>1539.4</ele>
        <time>2018-06-10T09:35:14Z</time>
      </trkpt>
      <trkpt lat="44.09093" lon="7.03392">
        <ele>1539.7</ele>
        <time>2018-06-10T09:35:21Z</time>
      </trkpt>
      <trkpt lat="44.09074" lon="7.03389">
        <ele>1540</ele>
        <time>2018-06-10T09:35:30Z</time>
      </trkpt>
      <trkpt lat="44.09056" lon="7.03383">
        <ele>1540.1</ele>
        <time>2018-06-10T09:35:38Z</time>
      </trkpt>
      <trkpt lat="44.09051" lon="7.03376">
        <ele>1540</ele>
        <time>2018-06-10T09:35:41Z</time>
      </trkpt>
      <trkpt lat="44.09063" lon="7.03367">
        <ele>1542.9</ele>
        <time>2018-06-10T09:35:48Z</time>
      </trkpt>
      <trkpt lat="44.09079" lon="7.03363">
        <ele>1546.3</ele>
        <time>2018-06-10T09:35:55Z</time>
      </trkpt>
      <trkpt lat="44.09091" lon="7.03354">
        <ele>1550.2</ele>
        <time>2018-06-10T09:36:02Z</time>
      </trkpt>
      <trkpt lat="44.091" lon="7.03344">
        <ele>1552.9</ele>
        <time>2018-06-10T09:36:08Z</time>
      </trkpt>
      <trkpt lat="44.09111" lon="7.03333">
        <ele>1555.4</ele>
        <time>2018-06-10T09:36:15Z</time>
      </trkpt>
      <trkpt lat="44.09124" lon="7.03317">
        <ele>1558</ele>
        <time>2018-06-10T09:36:24Z</time>
      </trkpt>
      <trkpt lat="44.09134" lon="7.03307">
        <ele>1559.2</ele>
        <time>2018-06-10T09:36:30Z</time>
      </trkpt>
      <trkpt lat="44.09142" lon="7.03295">
        <ele>1561.2</ele>
        <time>2018-06-10T09:36:36Z</time>
      </trkpt>
      <trkpt lat="44.0915" lon="7.03281">
        <ele>1563.3</ele>
        <time>2018-06-10T09:36:42Z</time>
      </trkpt>
      <trkpt lat="44.09159" lon="7.03266">
        <ele>1565.9</ele>
        <time>2018-06-10T09:36:49Z</time>
      </trkpt>
      <trkpt lat="44.09171" lon="7.03252">
        <ele>1569.2</ele>
        <time>2018-06-10T09:36:58Z</time>
      </trkpt>
      <trkpt lat="44.09183" lon="7.03241">
        <ele>1572.4</ele>
        <time>2018-06-10T09:37:06Z</time>
      </trkpt>
      <trkpt lat="44.09193" lon="7.03232">
        <ele>1575.1</ele>
        <time>2018-06-10T09:37:12Z</time>
      </trkpt>
      <trkpt lat="44.09202" lon="7.0322">
        <ele>1577.9</ele>
        <time>2018-06-10T09:37:18Z</time>
      </trkpt>
      <trkpt lat="44.0921" lon="7.03205">
        <ele>1580.5</ele>
        <time>2018-06-10T09:37:25Z</time>
      </trkpt>
      <trkpt lat="44.09221" lon="7.03193">
        <ele>1583.2</ele>
        <time>2018-06-10T09:37:33Z</time>
      </trkpt>
      <trkpt lat="44.09231" lon="7.03185">
        <ele>1585.1</ele>
        <time>2018-06-10T09:37:39Z</time>
      </trkpt>
      <trkpt lat="44.0924" lon="7.03174">
        <ele>1587.2</ele>
        <time>2018-06-10T09:37:45Z</time>
      </trkpt>
      <trkpt lat="44.09247" lon="7.0316">
        <ele>1589.2</ele>
        <time>2018-06-10T09:37:51Z</time>
      </trkpt>
      <trkpt lat="44.09256" lon="7.03144">
        <ele>1591.3</ele>
        <time>2018-06-10T09:37:58Z</time>
      </trkpt>
      <trkpt lat="44.09263" lon="7.03131">
        <ele>1592.9</ele>
        <time>2018-06-10T09:38:04Z</time>
      </trkpt>
      <trkpt lat="44.09267" lon="7.03121">
        <ele>1594</ele>
        <time>2018-06-10T09:38:08Z</time>
      </trkpt>
      <trkpt lat="44.09272" lon="7.03108">
        <ele>1595.3</ele>
        <time>2018-06-10T09:38:13Z</time>
      </trkpt>
      <trkpt lat="44.09277" lon="7.03094">
        <ele>1596.9</ele>
        <time>2018-06-10T09:38:19Z</time>
      </trkpt>
      <trkpt lat="44.09281" lon="7.03074">
        <ele>1599.1</ele>
        <time>2018-06-10T09:38:27Z</time>
      </trkpt>
      <trkpt lat="44.0928" lon="7.03072">
        <ele>1599.4</ele>
        <time>2018-06-10T09:38:28Z</time>
      </trkpt>
      <trkpt lat="44.09271" lon="7.03081">
        <ele>1601.1</ele>
        <time>2018-06-10T09:38:35Z</time>
      </trkpt>
      <trkpt lat="44.09266" lon="7.03089">
        <ele>1601.5</ele>
        <time>2018-06-10T09:38:39Z</time>
      </trkpt>
      <trkpt lat="44.09257" lon="7.03098">
        <ele>1602.4</ele>
        <time>2018-06-10T09:38:45Z</time>
      </trkpt>
      <trkpt lat="44.09251" lon="7.03105">
        <ele>1602.4</ele>
        <time>2018-06-10T09:38:49Z</time>
      </trkpt>
      <trkpt lat="44.09242" lon="7.03113">
        <ele>1602.7</ele>
        <time>2018-06-10T09:38:55Z</time>
      </trkpt>
      <trkpt lat="44.09227" lon="7.03123">
        <ele>1603.5</ele>
        <time>2018-06-10T09:39:04Z</time>
      </trkpt>
      <trkpt lat="44.09206" lon="7.03137">
        <ele>1604.8</ele>
        <time>2018-06-10T09:39:15Z</time>
      </trkpt>
      <trkpt lat="44.09191" lon="7.03143">
        <ele>1606.7</ele>
        <time>2018-06-10T09:39:23Z</time>
      </trkpt>
      <trkpt lat="44.09178" lon="7.03147">
        <ele>1608.6</ele>
        <time>2018-06-10T09:39:30Z</time>
      </trkpt>
      <trkpt lat="44.09163" lon="7.0315">
        <ele>1609.8</ele>
        <time>2018-06-10T09:39:38Z</time>
      </trkpt>
      <trkpt lat="44.0915" lon="7.03152">
        <ele>1610.8</ele>
        <time>2018-06-10T09:39:45Z</time>
      </trkpt>
      <trkpt lat="44.09141" lon="7.03149">
        <ele>1612.5</ele>
        <time>2018-06-10T09:39:51Z</time>
      </trkpt>
      <trkpt lat="44.09127" lon="7.03146">
        <ele>1614.1</ele>
        <time>2018-06-10T09:39:58Z</time>
      </trkpt>
      <trkpt lat="44.09112" lon="7.03138">
        <ele>1617.1</ele>
        <time>2018-06-10T09:40:06Z</time>
      </trkpt>
      <trkpt lat="44.09097" lon="7.03124">
        <ele>1621.4</ele>
        <time>2018-06-10T09:40:15Z</time>
      </trkpt>
      <trkpt lat="44.09086" lon="7.03114">
        <ele>1624.1</ele>
        <time>2018-06-10T09:40:22Z</time>
      </trkpt>
      <trkpt lat="44.09071" lon="7.03104">
        <ele>1626.8</ele>
        <time>2018-06-10T09:40:31Z</time>
      </trkpt>
      <trkpt lat="44.09059" lon="7.03095">
        <ele>1628.3</ele>
        <time>2018-06-10T09:40:38Z</time>
      </trkpt>
      <trkpt lat="44.09045" lon="7.03084">
        <ele>1629.7</ele>
        <time>2018-06-10T09:40:46Z</time>
      </trkpt>
      <trkpt lat="44.09031" lon="7.03074">
        <ele>1631.7</ele>
        <time>2018-06-10T09:40:55Z</time>
      </trkpt>
      <trkpt lat="44.09019" lon="7.0307">
        <ele>1633.4</ele>
        <time>2018-06-10T09:41:02Z</time>
      </trkpt>
      <trkpt lat="44.09012" lon="7.03064">
        <ele>1633.3</ele>
        <time>2018-06-10T09:41:07Z</time>
      </trkpt>
      <trkpt lat="44.09012" lon="7.03058">
        <ele>1633.4</ele>
        <time>2018-06-10T09:41:10Z</time>
      </trkpt>
      <trkpt lat="44.09024" lon="7.03057">
        <ele>1634.1</ele>
        <time>2018-06-10T09:41:18Z</time>
      </trkpt>
      <trkpt lat="44.09026" lon="7.03058">
        <ele>1634</ele>
        <time>2018-06-10T09:41:19Z</time>
      </trkpt>
      <trkpt lat="44.09038" lon="7.03059">
        <ele>1633.4</ele>
        <time>2018-06-10T09:41:27Z</time>
      </trkpt>
      <trkpt lat="44.09051" lon="7.03064">
        <ele>1633.1</ele>
        <time>2018-06-10T09:41:36Z</time>
      </trkpt>
      <trkpt lat="44.09064" lon="7.03067">
        <ele>1632.8</ele>
        <time>2018-06-10T09:41:43Z</time>
      </trkpt>
      <trkpt lat="44.09077" lon="7.0307">
        <ele>1632.9</ele>
        <time>2018-06-10T09:41:51Z</time>
      </trkpt>
      <trkpt lat="44.09093" lon="7.03072">
        <ele>1631.7</ele>
        <time>2018-06-10T09:42:00Z</time>
      </trkpt>
      <trkpt lat="44.09111" lon="7.03074">
        <ele>1629.8</ele>
        <time>2018-06-10T09:42:09Z</time>
      </trkpt>
      <trkpt lat="44.09131" lon="7.03074">
        <ele>1628.3</ele>
        <time>2018-06-10T09:42:20Z</time>
      </trkpt>
      <trkpt lat="44.09144" lon="7.03063">
        <ele>1628.7</ele>
        <time>2018-06-10T09:42:29Z</time>
      </trkpt>
      <trkpt lat="44.09154" lon="7.0305">
        <ele>1628.9</ele>
        <time>2018-06-10T09:42:37Z</time>
      </trkpt>
      <trkpt lat="44.09166" lon="7.03034">
        <ele>1629.2</ele>
        <time>2018-06-10T09:42:47Z</time>
      </trkpt>
      <trkpt lat="44.0918" lon="7.03013">
        <ele>1630.9</ele>
        <time>2018-06-10T09:42:59Z</time>
      </trkpt>
      <trkpt lat="44.09184" lon="7.02996">
        <ele>1632.1</ele>
        <time>2018-06-10T09:43:06Z</time>
      </trkpt>
      <trkpt lat="44.09187" lon="7.0298">
        <ele>1633.1</ele>
        <time>2018-06-10T09:43:11Z</time>
      </trkpt>
      <trkpt lat="44.09189" lon="7.02956">
        <ele>1637.4</ele>
        <time>2018-06-10T09:43:20Z</time>
      </trkpt>
      <trkpt lat="44.09184" lon="7.02943">
        <ele>1637.3</ele>
        <time>2018-06-10T09:43:26Z</time>
      </trkpt>
      <trkpt lat="44.09182" lon="7.02941">
        <ele>1636.9</ele>
        <time>2018-06-10T09:43:28Z</time>
      </trkpt>
      <trkpt lat="44.0918" lon="7.02941">
        <ele>1636.6</ele>
        <time>2018-06-10T09:43:29Z</time>
      </trkpt>
      <trkpt lat="44.09175" lon="7.02953">
        <ele>1636.1</ele>
        <time>2018-06-10T09:43:36Z</time>
      </trkpt>
      <trkpt lat="44.09167" lon="7.02968">
        <ele>1636.5</ele>
        <time>2018-06-10T09:43:44Z</time>
      </trkpt>
      <trkpt lat="44.09157" lon="7.0298">
        <ele>1636.5</ele>
        <time>2018-06-10T09:43:51Z</time>
      </trkpt>
      <trkpt lat="44.09144" lon="7.02992">
        <ele>1637.5</ele>
        <time>2018-06-10T09:43:59Z</time>
      </trkpt>
      <trkpt lat="44.09126" lon="7.03">
        <ele>1640.3</ele>
        <time>2018-06-10T09:44:08Z</time>
      </trkpt>
      <trkpt lat="44.09072" lon="7.02985">
        <ele>1648.1</ele>
        <time>2018-06-10T09:44:32Z</time>
      </trkpt>
      <trkpt lat="44.09032" lon="7.02968">
        <ele>1652.5</ele>
        <time>2018-06-10T09:44:50Z</time>
      </trkpt>
      <trkpt lat="44.09018" lon="7.02959">
        <ele>1653.3</ele>
        <time>2018-06-10T09:44:57Z</time>
      </trkpt>
      <trkpt lat="44.09001" lon="7.0295">
        <ele>1654.4</ele>
        <time>2018-06-10T09:45:06Z</time>
      </trkpt>
      <trkpt lat="44.0899" lon="7.02941">
        <ele>1658.1</ele>
        <time>2018-06-10T09:45:13Z</time>
      </trkpt>
      <trkpt lat="44.08977" lon="7.02927">
        <ele>1660.6</ele>
        <time>2018-06-10T09:45:22Z</time>
      </trkpt>
      <trkpt lat="44.08968" lon="7.02915">
        <ele>1662.7</ele>
        <time>2018-06-10T09:45:29Z</time>
      </trkpt>
      <trkpt lat="44.0896" lon="7.02902">
        <ele>1663.6</ele>
        <time>2018-06-10T09:45:36Z</time>
      </trkpt>
      <trkpt lat="44.0896" lon="7.02894">
        <ele>1663.7</ele>
        <time>2018-06-10T09:45:40Z</time>
      </trkpt>
      <trkpt lat="44.08965" lon="7.02894">
        <ele>1663.8</ele>
        <time>2018-06-10T09:45:43Z</time>
      </trkpt>
      <trkpt lat="44.08967" lon="7.02895">
        <ele>1663.9</ele>
        <time>2018-06-10T09:45:45Z</time>
      </trkpt>
      <trkpt lat="44.08973" lon="7.02901">
        <ele>1663.9</ele>
        <time>2018-06-10T09:45:49Z</time>
      </trkpt>
      <trkpt lat="44.08986" lon="7.02909">
        <ele>1663.1</ele>
        <time>2018-06-10T09:45:57Z</time>
      </trkpt>
      <trkpt lat="44.09009" lon="7.02914">
        <ele>1662.5</ele>
        <time>2018-06-10T09:46:10Z</time>
      </trkpt>
      <trkpt lat="44.09026" lon="7.02911">
        <ele>1662</ele>
        <time>2018-06-10T09:46:20Z</time>
      </trkpt>
      <trkpt lat="44.09034" lon="7.02908">
        <ele>1662.1</ele>
        <time>2018-06-10T09:46:25Z</time>
      </trkpt>
      <trkpt lat="44.09043" lon="7.02902">
        <ele>1661.1</ele>
        <time>2018-06-10T09:46:31Z</time>
      </trkpt>
      <trkpt lat="44.09051" lon="7.02896">
        <ele>1661.1</ele>
        <time>2018-06-10T09:46:36Z</time>
      </trkpt>
      <trkpt lat="44.09063" lon="7.02891">
        <ele>1661</ele>
        <time>2018-06-10T09:46:43Z</time>
      </trkpt>
      <trkpt lat="44.09075" lon="7.02888">
        <ele>1661.1</ele>
        <time>2018-06-10T09:46:50Z</time>
      </trkpt>
      <trkpt lat="44.09078" lon="7.02885">
        <ele>1662.1</ele>
        <time>2018-06-10T09:46:52Z</time>
      </trkpt>
      <trkpt lat="44.09076" lon="7.02875">
        <ele>1664.8</ele>
        <time>2018-06-10T09:46:58Z</time>
      </trkpt>
      <trkpt lat="44.09075" lon="7.02874">
        <ele>1665.3</ele>
        <time>2018-06-10T09:46:59Z</time>
      </trkpt>
      <trkpt lat="44.09071" lon="7.02873">
        <ele>1666</ele>
        <time>2018-06-10T09:47:02Z</time>
      </trkpt>
      <trkpt lat="44.09061" lon="7.02869">
        <ele>1667</ele>
        <time>2018-06-10T09:47:08Z</time>
      </trkpt>
      <trkpt lat="44.09052" lon="7.02868">
        <ele>1667.8</ele>
        <time>2018-06-10T09:47:13Z</time>
      </trkpt>
      <trkpt lat="44.09043" lon="7.02866">
        <ele>1668.4</ele>
        <time>2018-06-10T09:47:18Z</time>
      </trkpt>
      <trkpt lat="44.09036" lon="7.02863">
        <ele>1668.7</ele>
        <time>2018-06-10T09:47:22Z</time>
      </trkpt>
      <trkpt lat="44.09018" lon="7.02853">
        <ele>1670.2</ele>
        <time>2018-06-10T09:47:32Z</time>
      </trkpt>
      <trkpt lat="44.09004" lon="7.02844">
        <ele>1671.8</ele>
        <time>2018-06-10T09:47:40Z</time>
      </trkpt>
      <trkpt lat="44.0899" lon="7.02833">
        <ele>1673.4</ele>
        <time>2018-06-10T09:47:49Z</time>
      </trkpt>
      <trkpt lat="44.0898" lon="7.02824">
        <ele>1674.6</ele>
        <time>2018-06-10T09:47:56Z</time>
      </trkpt>
      <trkpt lat="44.08969" lon="7.02816">
        <ele>1674.7</ele>
        <time>2018-06-10T09:48:03Z</time>
      </trkpt>
      <trkpt lat="44.08964" lon="7.02804">
        <ele>1675.4</ele>
        <time>2018-06-10T09:48:10Z</time>
      </trkpt>
      <trkpt lat="44.08965" lon="7.02803">
        <ele>1675.7</ele>
        <time>2018-06-10T09:48:11Z</time>
      </trkpt>
      <trkpt lat="44.08975" lon="7.028">
        <ele>1677.9</ele>
        <time>2018-06-10T09:48:18Z</time>
      </trkpt>
      <trkpt lat="44.08981" lon="7.02803">
        <ele>1678.9</ele>
        <time>2018-06-10T09:48:22Z</time>
      </trkpt>
      <trkpt lat="44.08991" lon="7.02808">
        <ele>1679.3</ele>
        <time>2018-06-10T09:48:31Z</time>
      </trkpt>
      <trkpt lat="44.09006" lon="7.02813">
        <ele>1679.4</ele>
        <time>2018-06-10T09:48:40Z</time>
      </trkpt>
      <trkpt lat="44.0902" lon="7.02814">
        <ele>1679.1</ele>
        <time>2018-06-10T09:48:48Z</time>
      </trkpt>
      <trkpt lat="44.09032" lon="7.02811">
        <ele>1678.9</ele>
        <time>2018-06-10T09:48:55Z</time>
      </trkpt>
      <trkpt lat="44.09045" lon="7.02805">
        <ele>1679.1</ele>
        <time>2018-06-10T09:49:02Z</time>
      </trkpt>
      <trkpt lat="44.09059" lon="7.02797">
        <ele>1681.2</ele>
        <time>2018-06-10T09:49:11Z</time>
      </trkpt>
      <trkpt lat="44.09063" lon="7.0279">
        <ele>1682.6</ele>
        <time>2018-06-10T09:49:15Z</time>
      </trkpt>
      <trkpt lat="44.09062" lon="7.02784">
        <ele>1683.2</ele>
        <time>2018-06-10T09:49:18Z</time>
      </trkpt>
      <trkpt lat="44.0906" lon="7.02783">
        <ele>1683.4</ele>
        <time>2018-06-10T09:49:19Z</time>
      </trkpt>
      <trkpt lat="44.09052" lon="7.02779">
        <ele>1684.3</ele>
        <time>2018-06-10T09:49:24Z</time>
      </trkpt>
      <trkpt lat="44.09044" lon="7.02775">
        <ele>1685.8</ele>
        <time>2018-06-10T09:49:30Z</time>
      </trkpt>
      <trkpt lat="44.09038" lon="7.0277">
        <ele>1687.4</ele>
        <time>2018-06-10T09:49:34Z</time>
      </trkpt>
      <trkpt lat="44.0903" lon="7.02765">
        <ele>1688.3</ele>
        <time>2018-06-10T09:49:40Z</time>
      </trkpt>
      <trkpt lat="44.0902" lon="7.0276">
        <ele>1689.2</ele>
        <time>2018-06-10T09:49:46Z</time>
      </trkpt>
      <trkpt lat="44.0901" lon="7.02754">
        <ele>1690.1</ele>
        <time>2018-06-10T09:49:52Z</time>
      </trkpt>
      <trkpt lat="44.09" lon="7.02747">
        <ele>1690.7</ele>
        <time>2018-06-10T09:49:59Z</time>
      </trkpt>
      <trkpt lat="44.08988" lon="7.02737">
        <ele>1691</ele>
        <time>2018-06-10T09:50:09Z</time>
      </trkpt>
      <trkpt lat="44.08979" lon="7.02727">
        <ele>1691.1</ele>
        <time>2018-06-10T09:50:17Z</time>
      </trkpt>
      <trkpt lat="44.0897" lon="7.02716">
        <ele>1691</ele>
        <time>2018-06-10T09:50:24Z</time>
      </trkpt>
      <trkpt lat="44.08962" lon="7.02704">
        <ele>1692.5</ele>
        <time>2018-06-10T09:50:32Z</time>
      </trkpt>
      <trkpt lat="44.08956" lon="7.02692">
        <ele>1693.5</ele>
        <time>2018-06-10T09:50:39Z</time>
      </trkpt>
      <trkpt lat="44.08954" lon="7.0269">
        <ele>1693.7</ele>
        <time>2018-06-10T09:50:40Z</time>
      </trkpt>
      <trkpt lat="44.08945" lon="7.02678">
        <ele>1695</ele>
        <time>2018-06-10T09:50:48Z</time>
      </trkpt>
      <trkpt lat="44.08933" lon="7.02663">
        <ele>1696</ele>
        <time>2018-06-10T09:50:56Z</time>
      </trkpt>
      <trkpt lat="44.08924" lon="7.02651">
        <ele>1698.6</ele>
        <time>2018-06-10T09:51:03Z</time>
      </trkpt>
      <trkpt lat="44.08918" lon="7.0264">
        <ele>1700.4</ele>
        <time>2018-06-10T09:51:10Z</time>
      </trkpt>
      <trkpt lat="44.08909" lon="7.02632">
        <ele>1702.4</ele>
        <time>2018-06-10T09:51:16Z</time>
      </trkpt>
      <trkpt lat="44.08901" lon="7.0262">
        <ele>1706</ele>
        <time>2018-06-10T09:51:23Z</time>
      </trkpt>
      <trkpt lat="44.08895" lon="7.0261">
        <ele>1709.1</ele>
        <time>2018-06-10T09:51:29Z</time>
      </trkpt>
      <trkpt lat="44.08888" lon="7.02596">
        <ele>1711.8</ele>
        <time>2018-06-10T09:51:36Z</time>
      </trkpt>
      <trkpt lat="44.0888" lon="7.02584">
        <ele>1714</ele>
        <time>2018-06-10T09:51:43Z</time>
      </trkpt>
      <trkpt lat="44.08874" lon="7.02576">
        <ele>1715.6</ele>
        <time>2018-06-10T09:51:49Z</time>
      </trkpt>
      <trkpt lat="44.08864" lon="7.02572">
        <ele>1714.5</ele>
        <time>2018-06-10T09:51:55Z</time>
      </trkpt>
      <trkpt lat="44.08851" lon="7.02571">
        <ele>1711.8</ele>
        <time>2018-06-10T09:52:03Z</time>
      </trkpt>
      <trkpt lat="44.08838" lon="7.02574">
        <ele>1709.2</ele>
        <time>2018-06-10T09:52:11Z</time>
      </trkpt>
      <trkpt lat="44.08827" lon="7.02575">
        <ele>1707.2</ele>
        <time>2018-06-10T09:52:18Z</time>
      </trkpt>
      <trkpt lat="44.08814" lon="7.02576">
        <ele>1704.9</ele>
        <time>2018-06-10T09:52:26Z</time>
      </trkpt>
      <trkpt lat="44.08802" lon="7.02573">
        <ele>1704.5</ele>
        <time>2018-06-10T09:52:34Z</time>
      </trkpt>
      <trkpt lat="44.08789" lon="7.02573">
        <ele>1704.5</ele>
        <time>2018-06-10T09:52:41Z</time>
      </trkpt>
      <trkpt lat="44.08778" lon="7.02571">
        <ele>1705.5</ele>
        <time>2018-06-10T09:52:48Z</time>
      </trkpt>
      <trkpt lat="44.08768" lon="7.0257">
        <ele>1706.3</ele>
        <time>2018-06-10T09:52:54Z</time>
      </trkpt>
      <trkpt lat="44.08754" lon="7.02569">
        <ele>1706.9</ele>
        <time>2018-06-10T09:53:02Z</time>
      </trkpt>
      <trkpt lat="44.08739" lon="7.02571">
        <ele>1707.9</ele>
        <time>2018-06-10T09:53:10Z</time>
      </trkpt>
      <trkpt lat="44.08726" lon="7.02571">
        <ele>1707.7</ele>
        <time>2018-06-10T09:53:17Z</time>
      </trkpt>
      <trkpt lat="44.08713" lon="7.02562">
        <ele>1710.1</ele>
        <time>2018-06-10T09:53:24Z</time>
      </trkpt>
      <trkpt lat="44.08704" lon="7.02548">
        <ele>1713.7</ele>
        <time>2018-06-10T09:53:32Z</time>
      </trkpt>
      <trkpt lat="44.08695" lon="7.02527">
        <ele>1716.6</ele>
        <time>2018-06-10T09:53:42Z</time>
      </trkpt>
      <trkpt lat="44.08685" lon="7.02517">
        <ele>1718.4</ele>
        <time>2018-06-10T09:53:50Z</time>
      </trkpt>
      <trkpt lat="44.08672" lon="7.02513">
        <ele>1718.9</ele>
        <time>2018-06-10T09:53:59Z</time>
      </trkpt>
      <trkpt lat="44.08663" lon="7.02512">
        <ele>1719.4</ele>
        <time>2018-06-10T09:54:05Z</time>
      </trkpt>
      <trkpt lat="44.08655" lon="7.02511">
        <ele>1719.7</ele>
        <time>2018-06-10T09:54:11Z</time>
      </trkpt>
      <trkpt lat="44.08647" lon="7.0251">
        <ele>1719.9</ele>
        <time>2018-06-10T09:54:16Z</time>
      </trkpt>
      <trkpt lat="44.08641" lon="7.02508">
        <ele>1719.5</ele>
        <time>2018-06-10T09:54:20Z</time>
      </trkpt>
      <trkpt lat="44.08635" lon="7.02504">
        <ele>1719.4</ele>
        <time>2018-06-10T09:54:25Z</time>
      </trkpt>
      <trkpt lat="44.08633" lon="7.02503">
        <ele>1719.4</ele>
        <time>2018-06-10T09:54:26Z</time>
      </trkpt>
      <trkpt lat="44.08624" lon="7.02496">
        <ele>1719.7</ele>
        <time>2018-06-10T09:54:32Z</time>
      </trkpt>
      <trkpt lat="44.08613" lon="7.02488">
        <ele>1719.9</ele>
        <time>2018-06-10T09:54:39Z</time>
      </trkpt>
      <trkpt lat="44.08603" lon="7.02477">
        <ele>1720</ele>
        <time>2018-06-10T09:54:47Z</time>
      </trkpt>
      <trkpt lat="44.08595" lon="7.02463">
        <ele>1720</ele>
        <time>2018-06-10T09:54:55Z</time>
      </trkpt>
      <trkpt lat="44.0859" lon="7.02448">
        <ele>1720</ele>
        <time>2018-06-10T09:55:02Z</time>
      </trkpt>
      <trkpt lat="44.08587" lon="7.02435">
        <ele>1720.6</ele>
        <time>2018-06-10T09:55:08Z</time>
      </trkpt>
      <trkpt lat="44.08584" lon="7.0242">
        <ele>1721.5</ele>
        <time>2018-06-10T09:55:15Z</time>
      </trkpt>
      <trkpt lat="44.0858" lon="7.02408">
        <ele>1722.3</ele>
        <time>2018-06-10T09:55:21Z</time>
      </trkpt>
      <trkpt lat="44.08576" lon="7.02397">
        <ele>1723</ele>
        <time>2018-06-10T09:55:26Z</time>
      </trkpt>
      <trkpt lat="44.08565" lon="7.02385">
        <ele>1724.1</ele>
        <time>2018-06-10T09:55:34Z</time>
      </trkpt>
      <trkpt lat="44.08513" lon="7.02373">
        <ele>1723</ele>
        <time>2018-06-10T09:56:00Z</time>
      </trkpt>
      <trkpt lat="44.08486" lon="7.0237">
        <ele>1723.7</ele>
        <time>2018-06-10T09:56:16Z</time>
      </trkpt>
      <trkpt lat="44.08476" lon="7.02368">
        <ele>1724.9</ele>
        <time>2018-06-10T09:56:23Z</time>
      </trkpt>
      <trkpt lat="44.08465" lon="7.02365">
        <ele>1727</ele>
        <time>2018-06-10T09:56:30Z</time>
      </trkpt>
      <trkpt lat="44.08456" lon="7.0236">
        <ele>1727.8</ele>
        <time>2018-06-10T09:56:35Z</time>
      </trkpt>
      <trkpt lat="44.08451" lon="7.02356">
        <ele>1727.9</ele>
        <time>2018-06-10T09:56:39Z</time>
      </trkpt>
      <trkpt lat="44.08445" lon="7.0235">
        <ele>1728</ele>
        <time>2018-06-10T09:56:44Z</time>
      </trkpt>
      <trkpt lat="44.08438" lon="7.02344">
        <ele>1727.9</ele>
        <time>2018-06-10T09:56:49Z</time>
      </trkpt>
      <trkpt lat="44.08426" lon="7.02332">
        <ele>1727.8</ele>
        <time>2018-06-10T09:56:58Z</time>
      </trkpt>
      <trkpt lat="44.08417" lon="7.02324">
        <ele>1727.9</ele>
        <time>2018-06-10T09:57:04Z</time>
      </trkpt>
      <trkpt lat="44.08406" lon="7.02321">
        <ele>1728.1</ele>
        <time>2018-06-10T09:57:10Z</time>
      </trkpt>
      <trkpt lat="44.08391" lon="7.02317">
        <ele>1728.1</ele>
        <time>2018-06-10T09:57:18Z</time>
      </trkpt>
      <trkpt lat="44.08368" lon="7.02313">
        <ele>1727.8</ele>
        <time>2018-06-10T09:57:29Z</time>
      </trkpt>
      <trkpt lat="44.08344" lon="7.02308">
        <ele>1726.9</ele>
        <time>2018-06-10T09:57:42Z</time>
      </trkpt>
      <trkpt lat="44.08341" lon="7.02306">
        <ele>1726.7</ele>
        <time>2018-06-10T09:57:44Z</time>
      </trkpt>
      <trkpt lat="44.0834" lon="7.023">
        <ele>1726.6</ele>
        <time>2018-06-10T09:57:48Z</time>
      </trkpt>
      <trkpt lat="44.08341" lon="7.02299">
        <ele>1726.7</ele>
        <time>2018-06-10T09:57:56Z</time>
      </trkpt>
      <trkpt lat="44.08344" lon="7.02299">
        <ele>1726.8</ele>
        <time>2018-06-10T09:57:59Z</time>
      </trkpt>
      <trkpt lat="44.08347" lon="7.02296">
        <ele>1726.9</ele>
        <time>2018-06-10T09:58:03Z</time>
      </trkpt>
      <trkpt lat="44.08348" lon="7.02295">
        <ele>1727</ele>
        <time>2018-06-10T09:58:04Z</time>
      </trkpt>
      <trkpt lat="44.08348" lon="7.02286">
        <ele>1727</ele>
        <time>2018-06-10T09:58:11Z</time>
      </trkpt>
      <trkpt lat="44.08346" lon="7.02283">
        <ele>1726.8</ele>
        <time>2018-06-10T09:58:19Z</time>
      </trkpt>
      <trkpt lat="44.08344" lon="7.02286">
        <ele>1726.7</ele>
        <time>2018-06-10T10:06:05Z</time>
      </trkpt>
      <trkpt lat="44.08344" lon="7.02287">
        <ele>1726.6</ele>
        <time>2018-06-10T10:06:08Z</time>
      </trkpt>
      <trkpt lat="44.08343" lon="7.02289">
        <ele>1726.5</ele>
        <time>2018-06-10T10:06:31Z</time>
      </trkpt>
      <trkpt lat="44.08342" lon="7.0229">
        <ele>1726.5</ele>
        <time>2018-06-10T10:06:33Z</time>
      </trkpt>
      <trkpt lat="44.08336" lon="7.02296">
        <ele>1726.2</ele>
        <time>2018-06-10T10:07:24Z</time>
      </trkpt>
      <trkpt lat="44.0831" lon="7.023">
        <ele>1723.6</ele>
        <time>2018-06-10T10:07:28Z</time>
      </trkpt>
      <trkpt lat="44.08284" lon="7.02295">
        <ele>1720.3</ele>
        <time>2018-06-10T10:07:31Z</time>
      </trkpt>
      <trkpt lat="44.08252" lon="7.02265">
        <ele>1718.2</ele>
        <time>2018-06-10T10:07:35Z</time>
      </trkpt>
      <trkpt lat="44.08245" lon="7.02255">
        <ele>1717.8</ele>
        <time>2018-06-10T10:07:36Z</time>
      </trkpt>
      <trkpt lat="44.08237" lon="7.0223">
        <ele>1718.8</ele>
        <time>2018-06-10T10:07:38Z</time>
      </trkpt>
      <trkpt lat="44.08231" lon="7.02207">
        <ele>1719</ele>
        <time>2018-06-10T10:07:40Z</time>
      </trkpt>
      <trkpt lat="44.08227" lon="7.022">
        <ele>1718.8</ele>
        <time>2018-06-10T10:07:41Z</time>
      </trkpt>
      <trkpt lat="44.08218" lon="7.02198">
        <ele>1717.7</ele>
        <time>2018-06-10T10:07:43Z</time>
      </trkpt>
      <trkpt lat="44.08214" lon="7.02201">
        <ele>1717.2</ele>
        <time>2018-06-10T10:07:44Z</time>
      </trkpt>
      <trkpt lat="44.08209" lon="7.02202">
        <ele>1716.4</ele>
        <time>2018-06-10T10:07:45Z</time>
      </trkpt>
      <trkpt lat="44.08203" lon="7.02203">
        <ele>1715.4</ele>
        <time>2018-06-10T10:07:46Z</time>
      </trkpt>
      <trkpt lat="44.08194" lon="7.02195">
        <ele>1714.2</ele>
        <time>2018-06-10T10:07:48Z</time>
      </trkpt>
      <trkpt lat="44.08176" lon="7.02185">
        <ele>1712</ele>
        <time>2018-06-10T10:07:51Z</time>
      </trkpt>
      <trkpt lat="44.0816" lon="7.02196">
        <ele>1708</ele>
        <time>2018-06-10T10:07:55Z</time>
      </trkpt>
      <trkpt lat="44.08159" lon="7.02205">
        <ele>1707.5</ele>
        <time>2018-06-10T10:07:56Z</time>
      </trkpt>
      <trkpt lat="44.08159" lon="7.02215">
        <ele>1707.1</ele>
        <time>2018-06-10T10:07:57Z</time>
      </trkpt>
      <trkpt lat="44.08153" lon="7.02228">
        <ele>1705</ele>
        <time>2018-06-10T10:07:59Z</time>
      </trkpt>
      <trkpt lat="44.08146" lon="7.02232">
        <ele>1703.8</ele>
        <time>2018-06-10T10:08:00Z</time>
      </trkpt>
      <trkpt lat="44.08138" lon="7.02235">
        <ele>1701.6</ele>
        <time>2018-06-10T10:08:01Z</time>
      </trkpt>
      <trkpt lat="44.08131" lon="7.02234">
        <ele>1700.3</ele>
        <time>2018-06-10T10:08:02Z</time>
      </trkpt>
      <trkpt lat="44.08124" lon="7.0223">
        <ele>1699.3</ele>
        <time>2018-06-10T10:08:03Z</time>
      </trkpt>
      <trkpt lat="44.08117" lon="7.02224">
        <ele>1698</ele>
        <time>2018-06-10T10:08:04Z</time>
      </trkpt>
      <trkpt lat="44.0811" lon="7.02217">
        <ele>1697.2</ele>
        <time>2018-06-10T10:08:05Z</time>
      </trkpt>
      <trkpt lat="44.08104" lon="7.02209">
        <ele>1697</ele>
        <time>2018-06-10T10:08:06Z</time>
      </trkpt>
      <trkpt lat="44.08094" lon="7.02191">
        <ele>1695.9</ele>
        <time>2018-06-10T10:08:08Z</time>
      </trkpt>
      <trkpt lat="44.0809" lon="7.02181">
        <ele>1695</ele>
        <time>2018-06-10T10:08:09Z</time>
      </trkpt>
      <trkpt lat="44.08085" lon="7.02171">
        <ele>1694.2</ele>
        <time>2018-06-10T10:08:10Z</time>
      </trkpt>
      <trkpt lat="44.0808" lon="7.02161">
        <ele>1693.4</ele>
        <time>2018-06-10T10:08:11Z</time>
      </trkpt>
      <trkpt lat="44.08076" lon="7.02151">
        <ele>1692.6</ele>
        <time>2018-06-10T10:08:12Z</time>
      </trkpt>
      <trkpt lat="44.08072" lon="7.02139">
        <ele>1691.9</ele>
        <time>2018-06-10T10:08:13Z</time>
      </trkpt>
      <trkpt lat="44.08069" lon="7.02127">
        <ele>1691.1</ele>
        <time>2018-06-10T10:08:14Z</time>
      </trkpt>
      <trkpt lat="44.08063" lon="7.02102">
        <ele>1689.5</ele>
        <time>2018-06-10T10:08:16Z</time>
      </trkpt>
      <trkpt lat="44.08059" lon="7.02077">
        <ele>1687.6</ele>
        <time>2018-06-10T10:08:18Z</time>
      </trkpt>
      <trkpt lat="44.08057" lon="7.02065">
        <ele>1686.7</ele>
        <time>2018-06-10T10:08:19Z</time>
      </trkpt>
      <trkpt lat="44.08051" lon="7.0204">
        <ele>1684.8</ele>
        <time>2018-06-10T10:08:21Z</time>
      </trkpt>
      <trkpt lat="44.0805" lon="7.02027">
        <ele>1683.9</ele>
        <time>2018-06-10T10:08:22Z</time>
      </trkpt>
      <trkpt lat="44.08049" lon="7.02015">
        <ele>1682.9</ele>
        <time>2018-06-10T10:08:23Z</time>
      </trkpt>
      <trkpt lat="44.08047" lon="7.01992">
        <ele>1681.2</ele>
        <time>2018-06-10T10:08:25Z</time>
      </trkpt>
      <trkpt lat="44.08047" lon="7.01969">
        <ele>1679.5</ele>
        <time>2018-06-10T10:08:27Z</time>
      </trkpt>
      <trkpt lat="44.08047" lon="7.01948">
        <ele>1677.7</ele>
        <time>2018-06-10T10:08:29Z</time>
      </trkpt>
      <trkpt lat="44.08046" lon="7.0193">
        <ele>1676</ele>
        <time>2018-06-10T10:08:31Z</time>
      </trkpt>
      <trkpt lat="44.08047" lon="7.01909">
        <ele>1673.9</ele>
        <time>2018-06-10T10:08:33Z</time>
      </trkpt>
      <trkpt lat="44.08047" lon="7.01885">
        <ele>1671</ele>
        <time>2018-06-10T10:08:35Z</time>
      </trkpt>
      <trkpt lat="44.08046" lon="7.01872">
        <ele>1669.6</ele>
        <time>2018-06-10T10:08:36Z</time>
      </trkpt>
      <trkpt lat="44.08047" lon="7.01844">
        <ele>1666.4</ele>
        <time>2018-06-10T10:08:38Z</time>
      </trkpt>
      <trkpt lat="44.08048" lon="7.01831">
        <ele>1664.5</ele>
        <time>2018-06-10T10:08:39Z</time>
      </trkpt>
      <trkpt lat="44.08048" lon="7.01818">
        <ele>1663</ele>
        <time>2018-06-10T10:08:40Z</time>
      </trkpt>
      <trkpt lat="44.08046" lon="7.01793">
        <ele>1658.2</ele>
        <time>2018-06-10T10:08:42Z</time>
      </trkpt>
      <trkpt lat="44.08047" lon="7.01768">
        <ele>1656</ele>
        <time>2018-06-10T10:08:44Z</time>
      </trkpt>
      <trkpt lat="44.0805" lon="7.01758">
        <ele>1655.9</ele>
        <time>2018-06-10T10:08:45Z</time>
      </trkpt>
      <trkpt lat="44.08058" lon="7.0174">
        <ele>1654.2</ele>
        <time>2018-06-10T10:08:47Z</time>
      </trkpt>
      <trkpt lat="44.08062" lon="7.01731">
        <ele>1653.9</ele>
        <time>2018-06-10T10:08:48Z</time>
      </trkpt>
      <trkpt lat="44.0807" lon="7.01711">
        <ele>1651.7</ele>
        <time>2018-06-10T10:08:50Z</time>
      </trkpt>
      <trkpt lat="44.08082" lon="7.01692">
        <ele>1650.2</ele>
        <time>2018-06-10T10:08:52Z</time>
      </trkpt>
      <trkpt lat="44.081" lon="7.01667">
        <ele>1646.7</ele>
        <time>2018-06-10T10:08:55Z</time>
      </trkpt>
      <trkpt lat="44.08118" lon="7.01646">
        <ele>1643.2</ele>
        <time>2018-06-10T10:08:58Z</time>
      </trkpt>
      <trkpt lat="44.08123" lon="7.01642">
        <ele>1642.1</ele>
        <time>2018-06-10T10:08:59Z</time>
      </trkpt>
      <trkpt lat="44.08129" lon="7.01639">
        <ele>1642.2</ele>
        <time>2018-06-10T10:09:00Z</time>
      </trkpt>
      <trkpt lat="44.08136" lon="7.01636">
        <ele>1642.8</ele>
        <time>2018-06-10T10:09:01Z</time>
      </trkpt>
      <trkpt lat="44.08143" lon="7.01635">
        <ele>1643.4</ele>
        <time>2018-06-10T10:09:02Z</time>
      </trkpt>
      <trkpt lat="44.08152" lon="7.01633">
        <ele>1644.1</ele>
        <time>2018-06-10T10:09:03Z</time>
      </trkpt>
      <trkpt lat="44.0816" lon="7.01631">
        <ele>1645</ele>
        <time>2018-06-10T10:09:04Z</time>
      </trkpt>
      <trkpt lat="44.08174" lon="7.01629">
        <ele>1646.9</ele>
        <time>2018-06-10T10:09:06Z</time>
      </trkpt>
      <trkpt lat="44.0818" lon="7.01631">
        <ele>1647.5</ele>
        <time>2018-06-10T10:09:07Z</time>
      </trkpt>
      <trkpt lat="44.08186" lon="7.01632">
        <ele>1648.5</ele>
        <time>2018-06-10T10:09:08Z</time>
      </trkpt>
      <trkpt lat="44.08192" lon="7.01632">
        <ele>1648</ele>
        <time>2018-06-10T10:09:09Z</time>
      </trkpt>
      <trkpt lat="44.08201" lon="7.01625">
        <ele>1647.1</ele>
        <time>2018-06-10T10:09:11Z</time>
      </trkpt>
      <trkpt lat="44.08205" lon="7.0162">
        <ele>1646.4</ele>
        <time>2018-06-10T10:09:12Z</time>
      </trkpt>
      <trkpt lat="44.08209" lon="7.01615">
        <ele>1645.6</ele>
        <time>2018-06-10T10:09:13Z</time>
      </trkpt>
      <trkpt lat="44.08215" lon="7.0161">
        <ele>1644.9</ele>
        <time>2018-06-10T10:09:14Z</time>
      </trkpt>
      <trkpt lat="44.0822" lon="7.01604">
        <ele>1645.3</ele>
        <time>2018-06-10T10:09:15Z</time>
      </trkpt>
      <trkpt lat="44.08232" lon="7.01592">
        <ele>1645</ele>
        <time>2018-06-10T10:09:17Z</time>
      </trkpt>
      <trkpt lat="44.08239" lon="7.01586">
        <ele>1645.4</ele>
        <time>2018-06-10T10:09:18Z</time>
      </trkpt>
      <trkpt lat="44.08255" lon="7.01577">
        <ele>1646.9</ele>
        <time>2018-06-10T10:09:20Z</time>
      </trkpt>
      <trkpt lat="44.08271" lon="7.01571">
        <ele>1649.7</ele>
        <time>2018-06-10T10:09:22Z</time>
      </trkpt>
      <trkpt lat="44.0829" lon="7.01563">
        <ele>1651.9</ele>
        <time>2018-06-10T10:09:26Z</time>
      </trkpt>
      <trkpt lat="44.08289" lon="7.01558">
        <ele>1650.9</ele>
        <time>2018-06-10T10:09:28Z</time>
      </trkpt>
      <trkpt lat="44.08287" lon="7.01553">
        <ele>1649.7</ele>
        <time>2018-06-10T10:09:30Z</time>
      </trkpt>
      <trkpt lat="44.08283" lon="7.01547">
        <ele>1648.8</ele>
        <time>2018-06-10T10:09:32Z</time>
      </trkpt>
      <trkpt lat="44.08271" lon="7.01525">
        <ele>1645.4</ele>
        <time>2018-06-10T10:09:41Z</time>
      </trkpt>
      <trkpt lat="44.08253" lon="7.01511">
        <ele>1639.4</ele>
        <time>2018-06-10T10:09:46Z</time>
      </trkpt>
      <trkpt lat="44.08237" lon="7.01499">
        <ele>1634.8</ele>
        <time>2018-06-10T10:09:49Z</time>
      </trkpt>
      <trkpt lat="44.08203" lon="7.01469">
        <ele>1623</ele>
        <time>2018-06-10T10:09:56Z</time>
      </trkpt>
      <trkpt lat="44.08195" lon="7.01451">
        <ele>1620.7</ele>
        <time>2018-06-10T10:09:59Z</time>
      </trkpt>
      <trkpt lat="44.08185" lon="7.01408">
        <ele>1616.3</ele>
        <time>2018-06-10T10:10:06Z</time>
      </trkpt>
      <trkpt lat="44.0819" lon="7.01379">
        <ele>1616.3</ele>
        <time>2018-06-10T10:10:13Z</time>
      </trkpt>
      <trkpt lat="44.08191" lon="7.01373">
        <ele>1616.8</ele>
        <time>2018-06-10T10:10:14Z</time>
      </trkpt>
      <trkpt lat="44.08196" lon="7.01348">
        <ele>1616.6</ele>
        <time>2018-06-10T10:10:18Z</time>
      </trkpt>
      <trkpt lat="44.08199" lon="7.01316">
        <ele>1617.4</ele>
        <time>2018-06-10T10:10:22Z</time>
      </trkpt>
      <trkpt lat="44.08203" lon="7.01263">
        <ele>1616.5</ele>
        <time>2018-06-10T10:10:28Z</time>
      </trkpt>
      <trkpt lat="44.08201" lon="7.01245">
        <ele>1617</ele>
        <time>2018-06-10T10:10:30Z</time>
      </trkpt>
      <trkpt lat="44.08201" lon="7.01235">
        <ele>1617.1</ele>
        <time>2018-06-10T10:10:31Z</time>
      </trkpt>
      <trkpt lat="44.08207" lon="7.012">
        <ele>1620</ele>
        <time>2018-06-10T10:10:35Z</time>
      </trkpt>
      <trkpt lat="44.08208" lon="7.01193">
        <ele>1619.9</ele>
        <time>2018-06-10T10:10:36Z</time>
      </trkpt>
      <trkpt lat="44.0821" lon="7.01188">
        <ele>1619.7</ele>
        <time>2018-06-10T10:10:37Z</time>
      </trkpt>
      <trkpt lat="44.08213" lon="7.01177">
        <ele>1619.5</ele>
        <time>2018-06-10T10:10:39Z</time>
      </trkpt>
      <trkpt lat="44.08213" lon="7.01115">
        <ele>1618.9</ele>
        <time>2018-06-10T10:10:47Z</time>
      </trkpt>
      <trkpt lat="44.08212" lon="7.01107">
        <ele>1617.3</ele>
        <time>2018-06-10T10:10:48Z</time>
      </trkpt>
      <trkpt lat="44.08197" lon="7.01066">
        <ele>1611.1</ele>
        <time>2018-06-10T10:10:53Z</time>
      </trkpt>
      <trkpt lat="44.08196" lon="7.01027">
        <ele>1609.9</ele>
        <time>2018-06-10T10:10:57Z</time>
      </trkpt>
      <trkpt lat="44.082" lon="7.01006">
        <ele>1609.5</ele>
        <time>2018-06-10T10:10:59Z</time>
      </trkpt>
      <trkpt lat="44.08215" lon="7.00953">
        <ele>1603.5</ele>
        <time>2018-06-10T10:11:04Z</time>
      </trkpt>
      <trkpt lat="44.08221" lon="7.00916">
        <ele>1599.3</ele>
        <time>2018-06-10T10:11:07Z</time>
      </trkpt>
      <trkpt lat="44.08223" lon="7.00904">
        <ele>1598.6</ele>
        <time>2018-06-10T10:11:08Z</time>
      </trkpt>
      <trkpt lat="44.08226" lon="7.00893">
        <ele>1598.2</ele>
        <time>2018-06-10T10:11:09Z</time>
      </trkpt>
      <trkpt lat="44.08243" lon="7.00868">
        <ele>1600</ele>
        <time>2018-06-10T10:11:12Z</time>
      </trkpt>
      <trkpt lat="44.08249" lon="7.00862">
        <ele>1600.8</ele>
        <time>2018-06-10T10:11:13Z</time>
      </trkpt>
      <trkpt lat="44.0826" lon="7.0085">
        <ele>1601.8</ele>
        <time>2018-06-10T10:11:15Z</time>
      </trkpt>
      <trkpt lat="44.08271" lon="7.00838">
        <ele>1602.5</ele>
        <time>2018-06-10T10:11:17Z</time>
      </trkpt>
      <trkpt lat="44.08291" lon="7.00812">
        <ele>1603.3</ele>
        <time>2018-06-10T10:11:21Z</time>
      </trkpt>
      <trkpt lat="44.0833" lon="7.00751">
        <ele>1607.2</ele>
        <time>2018-06-10T10:11:30Z</time>
      </trkpt>
      <trkpt lat="44.08348" lon="7.00712">
        <ele>1609</ele>
        <time>2018-06-10T10:11:35Z</time>
      </trkpt>
      <trkpt lat="44.08368" lon="7.00706">
        <ele>1607.5</ele>
        <time>2018-06-10T10:11:39Z</time>
      </trkpt>
      <trkpt lat="44.08374" lon="7.00707">
        <ele>1606.9</ele>
        <time>2018-06-10T10:11:40Z</time>
      </trkpt>
      <trkpt lat="44.08397" lon="7.00707">
        <ele>1603.7</ele>
        <time>2018-06-10T10:11:44Z</time>
      </trkpt>
      <trkpt lat="44.084" lon="7.00706">
        <ele>1603.3</ele>
        <time>2018-06-10T10:11:45Z</time>
      </trkpt>
      <trkpt lat="44.08402" lon="7.00698">
        <ele>1602.5</ele>
        <time>2018-06-10T10:11:47Z</time>
      </trkpt>
      <trkpt lat="44.08403" lon="7.00693">
        <ele>1602.1</ele>
        <time>2018-06-10T10:11:48Z</time>
      </trkpt>
      <trkpt lat="44.08404" lon="7.00687">
        <ele>1601.7</ele>
        <time>2018-06-10T10:11:49Z</time>
      </trkpt>
      <trkpt lat="44.08406" lon="7.00685">
        <ele>1601.3</ele>
        <time>2018-06-10T10:11:50Z</time>
      </trkpt>
      <trkpt lat="44.08413" lon="7.00692">
        <ele>1600.6</ele>
        <time>2018-06-10T10:11:52Z</time>
      </trkpt>
      <trkpt lat="44.08418" lon="7.00698">
        <ele>1600.4</ele>
        <time>2018-06-10T10:11:53Z</time>
      </trkpt>
      <trkpt lat="44.08424" lon="7.00704">
        <ele>1600.2</ele>
        <time>2018-06-10T10:11:54Z</time>
      </trkpt>
      <trkpt lat="44.08431" lon="7.00711">
        <ele>1599.8</ele>
        <time>2018-06-10T10:11:55Z</time>
      </trkpt>
      <trkpt lat="44.08438" lon="7.00717">
        <ele>1598.7</ele>
        <time>2018-06-10T10:11:56Z</time>
      </trkpt>
      <trkpt lat="44.08455" lon="7.00719">
        <ele>1596.5</ele>
        <time>2018-06-10T10:11:58Z</time>
      </trkpt>
      <trkpt lat="44.08472" lon="7.00714">
        <ele>1593.9</ele>
        <time>2018-06-10T10:12:00Z</time>
      </trkpt>
      <trkpt lat="44.08479" lon="7.00711">
        <ele>1592.8</ele>
        <time>2018-06-10T10:12:01Z</time>
      </trkpt>
      <trkpt lat="44.08492" lon="7.00705">
        <ele>1591</ele>
        <time>2018-06-10T10:12:03Z</time>
      </trkpt>
      <trkpt lat="44.08499" lon="7.00702">
        <ele>1590.1</ele>
        <time>2018-06-10T10:12:04Z</time>
      </trkpt>
      <trkpt lat="44.08505" lon="7.007">
        <ele>1589.3</ele>
        <time>2018-06-10T10:12:05Z</time>
      </trkpt>
      <trkpt lat="44.08511" lon="7.00697">
        <ele>1588.7</ele>
        <time>2018-06-10T10:12:06Z</time>
      </trkpt>
      <trkpt lat="44.0853" lon="7.00686">
        <ele>1586.3</ele>
        <time>2018-06-10T10:12:09Z</time>
      </trkpt>
      <trkpt lat="44.08558" lon="7.00675">
        <ele>1583.7</ele>
        <time>2018-06-10T10:12:13Z</time>
      </trkpt>
      <trkpt lat="44.08585" lon="7.00681">
        <ele>1589</ele>
        <time>2018-06-10T10:12:18Z</time>
      </trkpt>
      <trkpt lat="44.08601" lon="7.00682">
        <ele>1587.9</ele>
        <time>2018-06-10T10:12:23Z</time>
      </trkpt>
      <trkpt lat="44.08608" lon="7.00667">
        <ele>1585.7</ele>
        <time>2018-06-10T10:12:25Z</time>
      </trkpt>
      <trkpt lat="44.0861" lon="7.0066">
        <ele>1584.6</ele>
        <time>2018-06-10T10:12:26Z</time>
      </trkpt>
      <trkpt lat="44.0861" lon="7.00636">
        <ele>1579.3</ele>
        <time>2018-06-10T10:12:29Z</time>
      </trkpt>
      <trkpt lat="44.08608" lon="7.00618">
        <ele>1575.2</ele>
        <time>2018-06-10T10:12:32Z</time>
      </trkpt>
      <trkpt lat="44.08611" lon="7.00603">
        <ele>1573.8</ele>
        <time>2018-06-10T10:12:34Z</time>
      </trkpt>
      <trkpt lat="44.08615" lon="7.00595">
        <ele>1573.1</ele>
        <time>2018-06-10T10:12:35Z</time>
      </trkpt>
      <trkpt lat="44.08627" lon="7.0058">
        <ele>1571.3</ele>
        <time>2018-06-10T10:12:37Z</time>
      </trkpt>
      <trkpt lat="44.08633" lon="7.00572">
        <ele>1570.1</ele>
        <time>2018-06-10T10:12:38Z</time>
      </trkpt>
      <trkpt lat="44.0864" lon="7.00563">
        <ele>1569.5</ele>
        <time>2018-06-10T10:12:39Z</time>
      </trkpt>
      <trkpt lat="44.08646" lon="7.00554">
        <ele>1569.8</ele>
        <time>2018-06-10T10:12:40Z</time>
      </trkpt>
      <trkpt lat="44.08652" lon="7.00548">
        <ele>1570.6</ele>
        <time>2018-06-10T10:12:41Z</time>
      </trkpt>
      <trkpt lat="44.08657" lon="7.00542">
        <ele>1568.9</ele>
        <time>2018-06-10T10:12:42Z</time>
      </trkpt>
      <trkpt lat="44.08661" lon="7.00524">
        <ele>1566.2</ele>
        <time>2018-06-10T10:12:44Z</time>
      </trkpt>
      <trkpt lat="44.08663" lon="7.00512">
        <ele>1564.9</ele>
        <time>2018-06-10T10:12:45Z</time>
      </trkpt>
      <trkpt lat="44.08665" lon="7.00502">
        <ele>1563.2</ele>
        <time>2018-06-10T10:12:46Z</time>
      </trkpt>
      <trkpt lat="44.08667" lon="7.00492">
        <ele>1561.6</ele>
        <time>2018-06-10T10:12:47Z</time>
      </trkpt>
      <trkpt lat="44.08671" lon="7.00475">
        <ele>1559.1</ele>
        <time>2018-06-10T10:12:49Z</time>
      </trkpt>
      <trkpt lat="44.08675" lon="7.00457">
        <ele>1556</ele>
        <time>2018-06-10T10:12:51Z</time>
      </trkpt>
      <trkpt lat="44.08678" lon="7.00439">
        <ele>1553.1</ele>
        <time>2018-06-10T10:12:53Z</time>
      </trkpt>
      <trkpt lat="44.0868" lon="7.00429">
        <ele>1550.7</ele>
        <time>2018-06-10T10:12:54Z</time>
      </trkpt>
      <trkpt lat="44.08682" lon="7.00418">
        <ele>1548.6</ele>
        <time>2018-06-10T10:12:55Z</time>
      </trkpt>
      <trkpt lat="44.08687" lon="7.00397">
        <ele>1543</ele>
        <time>2018-06-10T10:12:57Z</time>
      </trkpt>
      <trkpt lat="44.08688" lon="7.00387">
        <ele>1539.8</ele>
        <time>2018-06-10T10:12:58Z</time>
      </trkpt>
      <trkpt lat="44.08689" lon="7.00379">
        <ele>1538.3</ele>
        <time>2018-06-10T10:12:59Z</time>
      </trkpt>
      <trkpt lat="44.0869" lon="7.00371">
        <ele>1536.6</ele>
        <time>2018-06-10T10:13:00Z</time>
      </trkpt>
      <trkpt lat="44.0869" lon="7.00364">
        <ele>1534.7</ele>
        <time>2018-06-10T10:13:01Z</time>
      </trkpt>
      <trkpt lat="44.08689" lon="7.00361">
        <ele>1534.1</ele>
        <time>2018-06-10T10:13:02Z</time>
      </trkpt>
      <trkpt lat="44.08687" lon="7.00359">
        <ele>1533.3</ele>
        <time>2018-06-10T10:13:03Z</time>
      </trkpt>
      <trkpt lat="44.08686" lon="7.00357">
        <ele>1532.7</ele>
        <time>2018-06-10T10:13:04Z</time>
      </trkpt>
      <trkpt lat="44.08684" lon="7.00354">
        <ele>1532.3</ele>
        <time>2018-06-10T10:13:05Z</time>
      </trkpt>
      <trkpt lat="44.08683" lon="7.0035">
        <ele>1532.3</ele>
        <time>2018-06-10T10:13:06Z</time>
      </trkpt>
      <trkpt lat="44.08684" lon="7.00348">
        <ele>1532.4</ele>
        <time>2018-06-10T10:13:07Z</time>
      </trkpt>
      <trkpt lat="44.08683" lon="7.00344">
        <ele>1531.9</ele>
        <time>2018-06-10T10:13:09Z</time>
      </trkpt>
      <trkpt lat="44.08682" lon="7.00345">
        <ele>1531.2</ele>
        <time>2018-06-10T10:13:10Z</time>
      </trkpt>
      <trkpt lat="44.0868" lon="7.00346">
        <ele>1530.1</ele>
        <time>2018-06-10T10:13:11Z</time>
      </trkpt>
      <trkpt lat="44.08675" lon="7.0035">
        <ele>1528</ele>
        <time>2018-06-10T10:13:13Z</time>
      </trkpt>
      <trkpt lat="44.08674" lon="7.00345">
        <ele>1526.6</ele>
        <time>2018-06-10T10:13:15Z</time>
      </trkpt>
      <trkpt lat="44.08674" lon="7.0034">
        <ele>1525.5</ele>
        <time>2018-06-10T10:13:16Z</time>
      </trkpt>
      <trkpt lat="44.08675" lon="7.0033">
        <ele>1524</ele>
        <time>2018-06-10T10:13:18Z</time>
      </trkpt>
      <trkpt lat="44.08682" lon="7.00319">
        <ele>1522.3</ele>
        <time>2018-06-10T10:13:21Z</time>
      </trkpt>
      <trkpt lat="44.08684" lon="7.00307">
        <ele>1518.9</ele>
        <time>2018-06-10T10:13:24Z</time>
      </trkpt>
      <trkpt lat="44.08682" lon="7.00304">
        <ele>1518.4</ele>
        <time>2018-06-10T10:13:25Z</time>
      </trkpt>
      <trkpt lat="44.08681" lon="7.003">
        <ele>1517.8</ele>
        <time>2018-06-10T10:13:27Z</time>
      </trkpt>
      <trkpt lat="44.08686" lon="7.00299">
        <ele>1516.2</ele>
        <time>2018-06-10T10:13:29Z</time>
      </trkpt>
      <trkpt lat="44.08688" lon="7.00295">
        <ele>1515.3</ele>
        <time>2018-06-10T10:13:31Z</time>
      </trkpt>
      <trkpt lat="44.08682" lon="7.00287">
        <ele>1513.7</ele>
        <time>2018-06-10T10:13:33Z</time>
      </trkpt>
      <trkpt lat="44.08674" lon="7.00283">
        <ele>1511.4</ele>
        <time>2018-06-10T10:13:35Z</time>
      </trkpt>
      <trkpt lat="44.08674" lon="7.00274">
        <ele>1509.5</ele>
        <time>2018-06-10T10:13:38Z</time>
      </trkpt>
      <trkpt lat="44.08678" lon="7.00265">
        <ele>1507.6</ele>
        <time>2018-06-10T10:13:41Z</time>
      </trkpt>
      <trkpt lat="44.08672" lon="7.00262">
        <ele>1506</ele>
        <time>2018-06-10T10:13:43Z</time>
      </trkpt>
      <trkpt lat="44.08665" lon="7.00263">
        <ele>1504</ele>
        <time>2018-06-10T10:13:45Z</time>
      </trkpt>
      <trkpt lat="44.08663" lon="7.00258">
        <ele>1503</ele>
        <time>2018-06-10T10:13:47Z</time>
      </trkpt>
      <trkpt lat="44.08672" lon="7.00242">
        <ele>1502.2</ele>
        <time>2018-06-10T10:13:50Z</time>
      </trkpt>
      <trkpt lat="44.08679" lon="7.00235">
        <ele>1499.8</ele>
        <time>2018-06-10T10:13:52Z</time>
      </trkpt>
      <trkpt lat="44.08676" lon="7.00229">
        <ele>1499.2</ele>
        <time>2018-06-10T10:13:54Z</time>
      </trkpt>
      <trkpt lat="44.08672" lon="7.00227">
        <ele>1498.3</ele>
        <time>2018-06-10T10:13:55Z</time>
      </trkpt>
      <trkpt lat="44.08665" lon="7.00229">
        <ele>1496.7</ele>
        <time>2018-06-10T10:13:57Z</time>
      </trkpt>
      <trkpt lat="44.08662" lon="7.00228">
        <ele>1495.9</ele>
        <time>2018-06-10T10:13:59Z</time>
      </trkpt>
      <trkpt lat="44.08665" lon="7.00216">
        <ele>1493.6</ele>
        <time>2018-06-10T10:14:01Z</time>
      </trkpt>
      <trkpt lat="44.08667" lon="7.00207">
        <ele>1491.6</ele>
        <time>2018-06-10T10:14:02Z</time>
      </trkpt>
      <trkpt lat="44.0867" lon="7.00199">
        <ele>1491.1</ele>
        <time>2018-06-10T10:14:03Z</time>
      </trkpt>
      <trkpt lat="44.08673" lon="7.00193">
        <ele>1490.2</ele>
        <time>2018-06-10T10:14:04Z</time>
      </trkpt>
      <trkpt lat="44.08677" lon="7.00188">
        <ele>1489</ele>
        <time>2018-06-10T10:14:05Z</time>
      </trkpt>
      <trkpt lat="44.08682" lon="7.00179">
        <ele>1487.9</ele>
        <time>2018-06-10T10:14:07Z</time>
      </trkpt>
      <trkpt lat="44.08684" lon="7.00176">
        <ele>1487.5</ele>
        <time>2018-06-10T10:14:08Z</time>
      </trkpt>
      <trkpt lat="44.08684" lon="7.00175">
        <ele>1487.6</ele>
        <time>2018-06-10T10:14:09Z</time>
      </trkpt>
      <trkpt lat="44.08677" lon="7.00176">
        <ele>1487.4</ele>
        <time>2018-06-10T10:14:11Z</time>
      </trkpt>
      <trkpt lat="44.0867" lon="7.0018">
        <ele>1484.6</ele>
        <time>2018-06-10T10:14:13Z</time>
      </trkpt>
      <trkpt lat="44.08667" lon="7.00181">
        <ele>1484.7</ele>
        <time>2018-06-10T10:14:14Z</time>
      </trkpt>
      <trkpt lat="44.08666" lon="7.00179">
        <ele>1484.7</ele>
        <time>2018-06-10T10:14:15Z</time>
      </trkpt>
      <trkpt lat="44.08669" lon="7.00174">
        <ele>1483.1</ele>
        <time>2018-06-10T10:14:17Z</time>
      </trkpt>
      <trkpt lat="44.08673" lon="7.00164">
        <ele>1481</ele>
        <time>2018-06-10T10:14:19Z</time>
      </trkpt>
      <trkpt lat="44.08673" lon="7.00157">
        <ele>1479</ele>
        <time>2018-06-10T10:14:20Z</time>
      </trkpt>
      <trkpt lat="44.08675" lon="7.0015">
        <ele>1478.6</ele>
        <time>2018-06-10T10:14:21Z</time>
      </trkpt>
      <trkpt lat="44.08677" lon="7.00144">
        <ele>1478.9</ele>
        <time>2018-06-10T10:14:22Z</time>
      </trkpt>
      <trkpt lat="44.08685" lon="7.00138">
        <ele>1477.3</ele>
        <time>2018-06-10T10:14:24Z</time>
      </trkpt>
      <trkpt lat="44.08691" lon="7.00128">
        <ele>1474.5</ele>
        <time>2018-06-10T10:14:26Z</time>
      </trkpt>
      <trkpt lat="44.08686" lon="7.00123">
        <ele>1474.4</ele>
        <time>2018-06-10T10:14:28Z</time>
      </trkpt>
      <trkpt lat="44.08679" lon="7.00127">
        <ele>1473.4</ele>
        <time>2018-06-10T10:14:30Z</time>
      </trkpt>
      <trkpt lat="44.08674" lon="7.00128">
        <ele>1471.5</ele>
        <time>2018-06-10T10:14:32Z</time>
      </trkpt>
      <trkpt lat="44.08677" lon="7.00121">
        <ele>1470.2</ele>
        <time>2018-06-10T10:14:34Z</time>
      </trkpt>
      <trkpt lat="44.0868" lon="7.00109">
        <ele>1467.7</ele>
        <time>2018-06-10T10:14:36Z</time>
      </trkpt>
      <trkpt lat="44.08681" lon="7.00102">
        <ele>1465.2</ele>
        <time>2018-06-10T10:14:37Z</time>
      </trkpt>
      <trkpt lat="44.08681" lon="7.00083">
        <ele>1459.6</ele>
        <time>2018-06-10T10:14:39Z</time>
      </trkpt>
      <trkpt lat="44.08681" lon="7.00063">
        <ele>1454.6</ele>
        <time>2018-06-10T10:14:41Z</time>
      </trkpt>
      <trkpt lat="44.08681" lon="7.00055">
        <ele>1452.2</ele>
        <time>2018-06-10T10:14:42Z</time>
      </trkpt>
      <trkpt lat="44.08681" lon="7.00049">
        <ele>1450.8</ele>
        <time>2018-06-10T10:14:43Z</time>
      </trkpt>
      <trkpt lat="44.08681" lon="7.00033">
        <ele>1447.1</ele>
        <time>2018-06-10T10:14:45Z</time>
      </trkpt>
      <trkpt lat="44.08681" lon="7.00025">
        <ele>1445.3</ele>
        <time>2018-06-10T10:14:46Z</time>
      </trkpt>
      <trkpt lat="44.08683" lon="7.00012">
        <ele>1443.5</ele>
        <time>2018-06-10T10:14:48Z</time>
      </trkpt>
      <trkpt lat="44.08685" lon="7.00009">
        <ele>1442.6</ele>
        <time>2018-06-10T10:14:49Z</time>
      </trkpt>
      <trkpt lat="44.08687" lon="7.00005">
        <ele>1441.8</ele>
        <time>2018-06-10T10:14:50Z</time>
      </trkpt>
      <trkpt lat="44.08683" lon="7.00003">
        <ele>1440.6</ele>
        <time>2018-06-10T10:14:52Z</time>
      </trkpt>
      <trkpt lat="44.08679" lon="7.00001">
        <ele>1440.2</ele>
        <time>2018-06-10T10:14:54Z</time>
      </trkpt>
      <trkpt lat="44.0868" lon="6.99998">
        <ele>1440.2</ele>
        <time>2018-06-10T10:14:55Z</time>
      </trkpt>
      <trkpt lat="44.08681" lon="6.99995">
        <ele>1440.4</ele>
        <time>2018-06-10T10:14:56Z</time>
      </trkpt>
      <trkpt lat="44.08681" lon="6.99993">
        <ele>1440.6</ele>
        <time>2018-06-10T10:14:57Z</time>
      </trkpt>
      <trkpt lat="44.08675" lon="6.99993">
        <ele>1441.8</ele>
        <time>2018-06-10T10:14:59Z</time>
      </trkpt>
      <trkpt lat="44.0867" lon="7.00002">
        <ele>1439.7</ele>
        <time>2018-06-10T10:15:01Z</time>
      </trkpt>
      <trkpt lat="44.08668" lon="7.00004">
        <ele>1439.1</ele>
        <time>2018-06-10T10:15:02Z</time>
      </trkpt>
      <trkpt lat="44.08667" lon="6.99992">
        <ele>1437.3</ele>
        <time>2018-06-10T10:15:05Z</time>
      </trkpt>
      <trkpt lat="44.0867" lon="6.99977">
        <ele>1436</ele>
        <time>2018-06-10T10:15:07Z</time>
      </trkpt>
      <trkpt lat="44.08675" lon="6.99968">
        <ele>1434.1</ele>
        <time>2018-06-10T10:15:09Z</time>
      </trkpt>
      <trkpt lat="44.08671" lon="6.99965">
        <ele>1434.1</ele>
        <time>2018-06-10T10:15:12Z</time>
      </trkpt>
      <trkpt lat="44.0866" lon="6.99974">
        <ele>1433.9</ele>
        <time>2018-06-10T10:15:15Z</time>
      </trkpt>
      <trkpt lat="44.08658" lon="6.99973">
        <ele>1433.1</ele>
        <time>2018-06-10T10:15:17Z</time>
      </trkpt>
      <trkpt lat="44.08658" lon="6.99961">
        <ele>1430.8</ele>
        <time>2018-06-10T10:15:19Z</time>
      </trkpt>
      <trkpt lat="44.08658" lon="6.99952">
        <ele>1429.5</ele>
        <time>2018-06-10T10:15:20Z</time>
      </trkpt>
      <trkpt lat="44.08659" lon="6.99944">
        <ele>1428.3</ele>
        <time>2018-06-10T10:15:21Z</time>
      </trkpt>
      <trkpt lat="44.08664" lon="6.99932">
        <ele>1427.8</ele>
        <time>2018-06-10T10:15:23Z</time>
      </trkpt>
      <trkpt lat="44.08673" lon="6.99927">
        <ele>1426.9</ele>
        <time>2018-06-10T10:15:25Z</time>
      </trkpt>
      <trkpt lat="44.08683" lon="6.99922">
        <ele>1423.3</ele>
        <time>2018-06-10T10:15:27Z</time>
      </trkpt>
      <trkpt lat="44.08695" lon="6.99912">
        <ele>1418.7</ele>
        <time>2018-06-10T10:15:29Z</time>
      </trkpt>
      <trkpt lat="44.08701" lon="6.99906">
        <ele>1416.3</ele>
        <time>2018-06-10T10:15:30Z</time>
      </trkpt>
      <trkpt lat="44.08707" lon="6.99901">
        <ele>1414</ele>
        <time>2018-06-10T10:15:31Z</time>
      </trkpt>
      <trkpt lat="44.08713" lon="6.99897">
        <ele>1412</ele>
        <time>2018-06-10T10:15:32Z</time>
      </trkpt>
      <trkpt lat="44.08718" lon="6.99895">
        <ele>1410</ele>
        <time>2018-06-10T10:15:33Z</time>
      </trkpt>
      <trkpt lat="44.08732" lon="6.99889">
        <ele>1404.1</ele>
        <time>2018-06-10T10:15:36Z</time>
      </trkpt>
      <trkpt lat="44.08742" lon="6.99888">
        <ele>1401.5</ele>
        <time>2018-06-10T10:15:38Z</time>
      </trkpt>
      <trkpt lat="44.08747" lon="6.99888">
        <ele>1399.5</ele>
        <time>2018-06-10T10:15:39Z</time>
      </trkpt>
      <trkpt lat="44.08752" lon="6.99887">
        <ele>1398.5</ele>
        <time>2018-06-10T10:15:40Z</time>
      </trkpt>
      <trkpt lat="44.08756" lon="6.99887">
        <ele>1396.6</ele>
        <time>2018-06-10T10:15:41Z</time>
      </trkpt>
      <trkpt lat="44.08761" lon="6.99886">
        <ele>1395.1</ele>
        <time>2018-06-10T10:15:42Z</time>
      </trkpt>
      <trkpt lat="44.08766" lon="6.99886">
        <ele>1393.4</ele>
        <time>2018-06-10T10:15:43Z</time>
      </trkpt>
      <trkpt lat="44.08771" lon="6.99887">
        <ele>1392.5</ele>
        <time>2018-06-10T10:15:44Z</time>
      </trkpt>
      <trkpt lat="44.08775" lon="6.99888">
        <ele>1390.8</ele>
        <time>2018-06-10T10:15:45Z</time>
      </trkpt>
      <trkpt lat="44.0878" lon="6.99889">
        <ele>1390.8</ele>
        <time>2018-06-10T10:15:46Z</time>
      </trkpt>
      <trkpt lat="44.08784" lon="6.9989">
        <ele>1389.1</ele>
        <time>2018-06-10T10:15:47Z</time>
      </trkpt>
      <trkpt lat="44.08788" lon="6.99891">
        <ele>1388.3</ele>
        <time>2018-06-10T10:15:48Z</time>
      </trkpt>
      <trkpt lat="44.08792" lon="6.99894">
        <ele>1388.3</ele>
        <time>2018-06-10T10:15:49Z</time>
      </trkpt>
      <trkpt lat="44.08802" lon="6.999">
        <ele>1386.6</ele>
        <time>2018-06-10T10:15:51Z</time>
      </trkpt>
      <trkpt lat="44.08805" lon="6.99905">
        <ele>1385.7</ele>
        <time>2018-06-10T10:15:52Z</time>
      </trkpt>
      <trkpt lat="44.08808" lon="6.99909">
        <ele>1386.4</ele>
        <time>2018-06-10T10:15:53Z</time>
      </trkpt>
      <trkpt lat="44.0881" lon="6.99914">
        <ele>1386.4</ele>
        <time>2018-06-10T10:15:54Z</time>
      </trkpt>
      <trkpt lat="44.08813" lon="6.9992">
        <ele>1387</ele>
        <time>2018-06-10T10:15:55Z</time>
      </trkpt>
      <trkpt lat="44.08815" lon="6.99926">
        <ele>1387</ele>
        <time>2018-06-10T10:15:56Z</time>
      </trkpt>
      <trkpt lat="44.08816" lon="6.99932">
        <ele>1388.3</ele>
        <time>2018-06-10T10:15:57Z</time>
      </trkpt>
      <trkpt lat="44.08817" lon="6.99938">
        <ele>1389</ele>
        <time>2018-06-10T10:15:58Z</time>
      </trkpt>
      <trkpt lat="44.08818" lon="6.99944">
        <ele>1389.1</ele>
        <time>2018-06-10T10:15:59Z</time>
      </trkpt>
      <trkpt lat="44.08819" lon="6.99949">
        <ele>1389.9</ele>
        <time>2018-06-10T10:16:00Z</time>
      </trkpt>
      <trkpt lat="44.08822" lon="6.99954">
        <ele>1390.9</ele>
        <time>2018-06-10T10:16:01Z</time>
      </trkpt>
      <trkpt lat="44.08824" lon="6.99959">
        <ele>1391.1</ele>
        <time>2018-06-10T10:16:02Z</time>
      </trkpt>
      <trkpt lat="44.08827" lon="6.99966">
        <ele>1391.3</ele>
        <time>2018-06-10T10:16:03Z</time>
      </trkpt>
      <trkpt lat="44.08829" lon="6.99972">
        <ele>1393</ele>
        <time>2018-06-10T10:16:04Z</time>
      </trkpt>
      <trkpt lat="44.08833" lon="6.9998">
        <ele>1393</ele>
        <time>2018-06-10T10:16:05Z</time>
      </trkpt>
      <trkpt lat="44.08838" lon="6.99987">
        <ele>1393.1</ele>
        <time>2018-06-10T10:16:06Z</time>
      </trkpt>
      <trkpt lat="44.08844" lon="6.99993">
        <ele>1393.5</ele>
        <time>2018-06-10T10:16:07Z</time>
      </trkpt>
      <trkpt lat="44.08849" lon="6.99995">
        <ele>1392.4</ele>
        <time>2018-06-10T10:16:08Z</time>
      </trkpt>
      <trkpt lat="44.08859" lon="6.99988">
        <ele>1389.6</ele>
        <time>2018-06-10T10:16:10Z</time>
      </trkpt>
      <trkpt lat="44.08864" lon="6.99981">
        <ele>1388.4</ele>
        <time>2018-06-10T10:16:11Z</time>
      </trkpt>
      <trkpt lat="44.08869" lon="6.99976">
        <ele>1387.7</ele>
        <time>2018-06-10T10:16:12Z</time>
      </trkpt>
      <trkpt lat="44.08873" lon="6.99971">
        <ele>1387.3</ele>
        <time>2018-06-10T10:16:13Z</time>
      </trkpt>
      <trkpt lat="44.08874" lon="6.99967">
        <ele>1387</ele>
        <time>2018-06-10T10:16:14Z</time>
      </trkpt>
      <trkpt lat="44.08873" lon="6.99964">
        <ele>1386.9</ele>
        <time>2018-06-10T10:16:15Z</time>
      </trkpt>
      <trkpt lat="44.08871" lon="6.99961">
        <ele>1386.7</ele>
        <time>2018-06-10T10:16:16Z</time>
      </trkpt>
      <trkpt lat="44.08869" lon="6.99959">
        <ele>1386.5</ele>
        <time>2018-06-10T10:16:18Z</time>
      </trkpt>
      <trkpt lat="44.08869" lon="6.99957">
        <ele>1386.3</ele>
        <time>2018-06-10T10:16:19Z</time>
      </trkpt>
      <trkpt lat="44.08867" lon="6.99955">
        <ele>1386.2</ele>
        <time>2018-06-10T10:16:20Z</time>
      </trkpt>
      <trkpt lat="44.08866" lon="6.99953">
        <ele>1386</ele>
        <time>2018-06-10T10:16:21Z</time>
      </trkpt>
      <trkpt lat="44.08865" lon="6.99949">
        <ele>1386</ele>
        <time>2018-06-10T10:16:23Z</time>
      </trkpt>
      <trkpt lat="44.08865" lon="6.99947">
        <ele>1386</ele>
        <time>2018-06-10T10:16:25Z</time>
      </trkpt>
      <trkpt lat="44.08863" lon="6.99944">
        <ele>1385.6</ele>
        <time>2018-06-10T10:17:01Z</time>
      </trkpt>
      <trkpt lat="44.08863" lon="6.99943">
        <ele>1385.3</ele>
        <time>2018-06-10T10:17:04Z</time>
      </trkpt>
      <trkpt lat="44.0886" lon="6.99935">
        <ele>1384.2</ele>
        <time>2018-06-10T10:20:42Z</time>
      </trkpt>
      <trkpt lat="44.0885" lon="6.99884">
        <ele>1377.5</ele>
        <time>2018-06-10T10:20:55Z</time>
      </trkpt>
      <trkpt lat="44.08848" lon="6.99869">
        <ele>1375.5</ele>
        <time>2018-06-10T10:20:57Z</time>
      </trkpt>
      <trkpt lat="44.08848" lon="6.99842">
        <ele>1372.2</ele>
        <time>2018-06-10T10:21:00Z</time>
      </trkpt>
      <trkpt lat="44.0885" lon="6.99832">
        <ele>1370.3</ele>
        <time>2018-06-10T10:21:01Z</time>
      </trkpt>
      <trkpt lat="44.08852" lon="6.99811">
        <ele>1367.9</ele>
        <time>2018-06-10T10:21:03Z</time>
      </trkpt>
      <trkpt lat="44.08853" lon="6.99789">
        <ele>1365.6</ele>
        <time>2018-06-10T10:21:05Z</time>
      </trkpt>
      <trkpt lat="44.08853" lon="6.99769">
        <ele>1363.7</ele>
        <time>2018-06-10T10:21:07Z</time>
      </trkpt>
      <trkpt lat="44.08851" lon="6.99736">
        <ele>1360.9</ele>
        <time>2018-06-10T10:21:10Z</time>
      </trkpt>
      <trkpt lat="44.0885" lon="6.99723">
        <ele>1359.9</ele>
        <time>2018-06-10T10:21:11Z</time>
      </trkpt>
      <trkpt lat="44.08847" lon="6.9971">
        <ele>1358.4</ele>
        <time>2018-06-10T10:21:12Z</time>
      </trkpt>
      <trkpt lat="44.08835" lon="6.99687">
        <ele>1355.5</ele>
        <time>2018-06-10T10:21:14Z</time>
      </trkpt>
      <trkpt lat="44.08819" lon="6.99668">
        <ele>1351.8</ele>
        <time>2018-06-10T10:21:16Z</time>
      </trkpt>
      <trkpt lat="44.0881" lon="6.99659">
        <ele>1349.4</ele>
        <time>2018-06-10T10:21:17Z</time>
      </trkpt>
      <trkpt lat="44.08802" lon="6.9965">
        <ele>1347</ele>
        <time>2018-06-10T10:21:18Z</time>
      </trkpt>
      <trkpt lat="44.08791" lon="6.99628">
        <ele>1344.4</ele>
        <time>2018-06-10T10:21:20Z</time>
      </trkpt>
      <trkpt lat="44.08782" lon="6.99604">
        <ele>1341.3</ele>
        <time>2018-06-10T10:21:22Z</time>
      </trkpt>
      <trkpt lat="44.08778" lon="6.99592">
        <ele>1339.5</ele>
        <time>2018-06-10T10:21:23Z</time>
      </trkpt>
      <trkpt lat="44.08776" lon="6.9958">
        <ele>1338.2</ele>
        <time>2018-06-10T10:21:24Z</time>
      </trkpt>
      <trkpt lat="44.08774" lon="6.99559">
        <ele>1335.6</ele>
        <time>2018-06-10T10:21:26Z</time>
      </trkpt>
      <trkpt lat="44.08774" lon="6.99545">
        <ele>1334.1</ele>
        <time>2018-06-10T10:21:28Z</time>
      </trkpt>
      <trkpt lat="44.08788" lon="6.99529">
        <ele>1333.4</ele>
        <time>2018-06-10T10:21:36Z</time>
      </trkpt>
      <trkpt lat="44.08803" lon="6.99526">
        <ele>1333.7</ele>
        <time>2018-06-10T10:21:45Z</time>
      </trkpt>
      <trkpt lat="44.08808" lon="6.99528">
        <ele>1334</ele>
        <time>2018-06-10T10:21:49Z</time>
      </trkpt>
      <trkpt lat="44.08809" lon="6.99529">
        <ele>1334</ele>
        <time>2018-06-10T10:21:50Z</time>
      </trkpt>
      <trkpt lat="44.08815" lon="6.99536">
        <ele>1334.6</ele>
        <time>2018-06-10T10:21:54Z</time>
      </trkpt>
      <trkpt lat="44.08817" lon="6.99539">
        <ele>1335.1</ele>
        <time>2018-06-10T10:21:56Z</time>
      </trkpt>
      <trkpt lat="44.08824" lon="6.99551">
        <ele>1336.6</ele>
        <time>2018-06-10T10:22:02Z</time>
      </trkpt>
      <trkpt lat="44.08832" lon="6.99565">
        <ele>1338.8</ele>
        <time>2018-06-10T10:22:08Z</time>
      </trkpt>
      <trkpt lat="44.08833" lon="6.99567">
        <ele>1339</ele>
        <time>2018-06-10T10:22:09Z</time>
      </trkpt>
      <trkpt lat="44.08841" lon="6.99571">
        <ele>1339.6</ele>
        <time>2018-06-10T10:22:13Z</time>
      </trkpt>
      <trkpt lat="44.08844" lon="6.99572">
        <ele>1339.8</ele>
        <time>2018-06-10T10:22:15Z</time>
      </trkpt>
      <trkpt lat="44.08856" lon="6.99568">
        <ele>1340.3</ele>
        <time>2018-06-10T10:22:20Z</time>
      </trkpt>
      <trkpt lat="44.08883" lon="6.99547">
        <ele>1341.4</ele>
        <time>2018-06-10T10:22:29Z</time>
      </trkpt>
      <trkpt lat="44.08929" lon="6.99505">
        <ele>1342.8</ele>
        <time>2018-06-10T10:22:42Z</time>
      </trkpt>
      <trkpt lat="44.08982" lon="6.99473">
        <ele>1343.7</ele>
        <time>2018-06-10T10:22:54Z</time>
      </trkpt>
      <trkpt lat="44.09023" lon="6.99457">
        <ele>1344.1</ele>
        <time>2018-06-10T10:23:02Z</time>
      </trkpt>
      <trkpt lat="44.09033" lon="6.9945">
        <ele>1344.3</ele>
        <time>2018-06-10T10:23:04Z</time>
      </trkpt>
      <trkpt lat="44.0906" lon="6.99444">
        <ele>1344.9</ele>
        <time>2018-06-10T10:23:08Z</time>
      </trkpt>
      <trkpt lat="44.09073" lon="6.99443">
        <ele>1345.3</ele>
        <time>2018-06-10T10:23:10Z</time>
      </trkpt>
      <trkpt lat="44.09092" lon="6.9944">
        <ele>1346.1</ele>
        <time>2018-06-10T10:23:13Z</time>
      </trkpt>
      <trkpt lat="44.09115" lon="6.99439">
        <ele>1347.2</ele>
        <time>2018-06-10T10:23:17Z</time>
      </trkpt>
      <trkpt lat="44.09141" lon="6.99438">
        <ele>1348.8</ele>
        <time>2018-06-10T10:23:22Z</time>
      </trkpt>
      <trkpt lat="44.09155" lon="6.9944">
        <ele>1349.8</ele>
        <time>2018-06-10T10:23:25Z</time>
      </trkpt>
      <trkpt lat="44.09175" lon="6.99422">
        <ele>1351.3</ele>
        <time>2018-06-10T10:23:32Z</time>
      </trkpt>
      <trkpt lat="44.09197" lon="6.99395">
        <ele>1353.8</ele>
        <time>2018-06-10T10:23:40Z</time>
      </trkpt>
      <trkpt lat="44.09208" lon="6.99394">
        <ele>1356</ele>
        <time>2018-06-10T10:23:51Z</time>
      </trkpt>
      <trkpt lat="44.09209" lon="6.99395">
        <ele>1356.1</ele>
        <time>2018-06-10T10:23:53Z</time>
      </trkpt>
      <trkpt lat="44.09211" lon="6.99405">
        <ele>1356.6</ele>
        <time>2018-06-10T10:24:04Z</time>
      </trkpt>
      <trkpt lat="44.09212" lon="6.99406">
        <ele>1356.7</ele>
        <time>2018-06-10T10:28:30Z</time>
      </trkpt>
      <trkpt lat="44.09216" lon="6.99413">
        <ele>1357.2</ele>
        <time>2018-06-10T10:28:38Z</time>
      </trkpt>
      <trkpt lat="44.09229" lon="6.99441">
        <ele>1360.3</ele>
        <time>2018-06-10T10:28:58Z</time>
      </trkpt>
      <trkpt lat="44.09229" lon="6.99442">
        <ele>1360.4</ele>
        <time>2018-06-10T10:29:00Z</time>
      </trkpt>
      <trkpt lat="44.09229" lon="6.99446">
        <ele>1360.9</ele>
        <time>2018-06-10T10:29:03Z</time>
      </trkpt>
      <trkpt lat="44.0923" lon="6.99449">
        <ele>1361.3</ele>
        <time>2018-06-10T10:29:05Z</time>
      </trkpt>
      <trkpt lat="44.09232" lon="6.99483">
        <ele>1364.7</ele>
        <time>2018-06-10T10:29:17Z</time>
      </trkpt>
      <trkpt lat="44.09235" lon="6.99512">
        <ele>1367.4</ele>
        <time>2018-06-10T10:29:29Z</time>
      </trkpt>
      <trkpt lat="44.09237" lon="6.9953">
        <ele>1369.4</ele>
        <time>2018-06-10T10:29:36Z</time>
      </trkpt>
      <trkpt lat="44.0924" lon="6.9955">
        <ele>1371.6</ele>
        <time>2018-06-10T10:29:44Z</time>
      </trkpt>
      <trkpt lat="44.09245" lon="6.99573">
        <ele>1373</ele>
        <time>2018-06-10T10:29:53Z</time>
      </trkpt>
      <trkpt lat="44.0925" lon="6.99584">
        <ele>1374.2</ele>
        <time>2018-06-10T10:29:59Z</time>
      </trkpt>
      <trkpt lat="44.09255" lon="6.99592">
        <ele>1375.6</ele>
        <time>2018-06-10T10:30:04Z</time>
      </trkpt>
      <trkpt lat="44.09261" lon="6.996">
        <ele>1377</ele>
        <time>2018-06-10T10:30:10Z</time>
      </trkpt>
      <trkpt lat="44.09267" lon="6.99606">
        <ele>1378.7</ele>
        <time>2018-06-10T10:30:16Z</time>
      </trkpt>
      <trkpt lat="44.09274" lon="6.99617">
        <ele>1380.6</ele>
        <time>2018-06-10T10:30:21Z</time>
      </trkpt>
      <trkpt lat="44.09269" lon="6.99625">
        <ele>1382</ele>
        <time>2018-06-10T10:30:35Z</time>
      </trkpt>
      <trkpt lat="44.09264" lon="6.99627">
        <ele>1382</ele>
        <time>2018-06-10T10:30:41Z</time>
      </trkpt>
      <trkpt lat="44.0926" lon="6.99632">
        <ele>1383.1</ele>
        <time>2018-06-10T10:30:49Z</time>
      </trkpt>
      <trkpt lat="44.09265" lon="6.9963">
        <ele>1382.8</ele>
        <time>2018-06-10T10:30:55Z</time>
      </trkpt>
      <trkpt lat="44.09271" lon="6.99634">
        <ele>1383.9</ele>
        <time>2018-06-10T10:31:02Z</time>
      </trkpt>
      <trkpt lat="44.09276" lon="6.99645">
        <ele>1387.3</ele>
        <time>2018-06-10T10:31:10Z</time>
      </trkpt>
      <trkpt lat="44.09276" lon="6.99657">
        <ele>1389.7</ele>
        <time>2018-06-10T10:31:20Z</time>
      </trkpt>
      <trkpt lat="44.09275" lon="6.99661">
        <ele>1390.9</ele>
        <time>2018-06-10T10:31:23Z</time>
      </trkpt>
      <trkpt lat="44.09272" lon="6.99665">
        <ele>1392.1</ele>
        <time>2018-06-10T10:31:27Z</time>
      </trkpt>
      <trkpt lat="44.09266" lon="6.99662">
        <ele>1392.4</ele>
        <time>2018-06-10T10:31:32Z</time>
      </trkpt>
      <trkpt lat="44.09261" lon="6.99661">
        <ele>1391.3</ele>
        <time>2018-06-10T10:31:36Z</time>
      </trkpt>
      <trkpt lat="44.0926" lon="6.9966">
        <ele>1391.5</ele>
        <time>2018-06-10T10:31:38Z</time>
      </trkpt>
      <trkpt lat="44.09256" lon="6.99658">
        <ele>1391.7</ele>
        <time>2018-06-10T10:31:42Z</time>
      </trkpt>
      <trkpt lat="44.09256" lon="6.99662">
        <ele>1393</ele>
        <time>2018-06-10T10:31:45Z</time>
      </trkpt>
      <trkpt lat="44.09258" lon="6.99671">
        <ele>1395.7</ele>
        <time>2018-06-10T10:31:52Z</time>
      </trkpt>
      <trkpt lat="44.09261" lon="6.99678">
        <ele>1396.9</ele>
        <time>2018-06-10T10:31:57Z</time>
      </trkpt>
      <trkpt lat="44.09262" lon="6.99679">
        <ele>1396.6</ele>
        <time>2018-06-10T10:31:58Z</time>
      </trkpt>
      <trkpt lat="44.09262" lon="6.9968">
        <ele>1398.2</ele>
        <time>2018-06-10T10:31:59Z</time>
      </trkpt>
      <trkpt lat="44.09267" lon="6.99689">
        <ele>1401.2</ele>
        <time>2018-06-10T10:32:07Z</time>
      </trkpt>
      <trkpt lat="44.09262" lon="6.99691">
        <ele>1401.4</ele>
        <time>2018-06-10T10:32:13Z</time>
      </trkpt>
      <trkpt lat="44.09256" lon="6.99688">
        <ele>1401.9</ele>
        <time>2018-06-10T10:32:20Z</time>
      </trkpt>
      <trkpt lat="44.09255" lon="6.99687">
        <ele>1400.2</ele>
        <time>2018-06-10T10:32:21Z</time>
      </trkpt>
      <trkpt lat="44.09249" lon="6.99684">
        <ele>1400.7</ele>
        <time>2018-06-10T10:32:28Z</time>
      </trkpt>
      <trkpt lat="44.09244" lon="6.99684">
        <ele>1401.3</ele>
        <time>2018-06-10T10:32:34Z</time>
      </trkpt>
      <trkpt lat="44.09238" lon="6.99686">
        <ele>1401.9</ele>
        <time>2018-06-10T10:32:39Z</time>
      </trkpt>
      <trkpt lat="44.09236" lon="6.99686">
        <ele>1402.3</ele>
        <time>2018-06-10T10:32:42Z</time>
      </trkpt>
      <trkpt lat="44.09231" lon="6.99686">
        <ele>1402.6</ele>
        <time>2018-06-10T10:32:48Z</time>
      </trkpt>
      <trkpt lat="44.09228" lon="6.99686">
        <ele>1403</ele>
        <time>2018-06-10T10:32:54Z</time>
      </trkpt>
      <trkpt lat="44.09227" lon="6.99688">
        <ele>1405.2</ele>
        <time>2018-06-10T10:32:59Z</time>
      </trkpt>
      <trkpt lat="44.09223" lon="6.99696">
        <ele>1407.4</ele>
        <time>2018-06-10T10:33:13Z</time>
      </trkpt>
      <trkpt lat="44.0922" lon="6.99697">
        <ele>1409.5</ele>
        <time>2018-06-10T10:33:19Z</time>
      </trkpt>
      <trkpt lat="44.0922" lon="6.99696">
        <ele>1407.7</ele>
        <time>2018-06-10T10:33:23Z</time>
      </trkpt>
      <trkpt lat="44.09222" lon="6.99694">
        <ele>1407.3</ele>
        <time>2018-06-10T10:33:29Z</time>
      </trkpt>
      <trkpt lat="44.09223" lon="6.99692">
        <ele>1407.3</ele>
        <time>2018-06-10T10:33:34Z</time>
      </trkpt>
      <trkpt lat="44.09222" lon="6.9969">
        <ele>1405.5</ele>
        <time>2018-06-10T10:33:40Z</time>
      </trkpt>
      <trkpt lat="44.09222" lon="6.99685">
        <ele>1403.8</ele>
        <time>2018-06-10T10:33:46Z</time>
      </trkpt>
      <trkpt lat="44.09217" lon="6.99679">
        <ele>1402.9</ele>
        <time>2018-06-10T10:33:52Z</time>
      </trkpt>
      <trkpt lat="44.09217" lon="6.99679">
        <ele>1402.9</ele>
        <time>2018-06-10T10:33:53Z</time>
      </trkpt>
      <trkpt lat="44.09211" lon="6.99679">
        <ele>1403.7</ele>
        <time>2018-06-10T10:34:00Z</time>
      </trkpt>
      <trkpt lat="44.09205" lon="6.9968">
        <ele>1404.4</ele>
        <time>2018-06-10T10:34:07Z</time>
      </trkpt>
      <trkpt lat="44.09201" lon="6.99679">
        <ele>1403.3</ele>
        <time>2018-06-10T10:34:13Z</time>
      </trkpt>
      <trkpt lat="44.09199" lon="6.9968">
        <ele>1405.1</ele>
        <time>2018-06-10T10:34:19Z</time>
      </trkpt>
      <trkpt lat="44.09197" lon="6.99681">
        <ele>1405.1</ele>
        <time>2018-06-10T10:34:24Z</time>
      </trkpt>
      <trkpt lat="44.09195" lon="6.99681">
        <ele>1405.4</ele>
        <time>2018-06-10T10:34:26Z</time>
      </trkpt>
      <trkpt lat="44.09194" lon="6.99681">
        <ele>1405.4</ele>
        <time>2018-06-10T10:34:29Z</time>
      </trkpt>
      <trkpt lat="44.09189" lon="6.99682">
        <ele>1405.9</ele>
        <time>2018-06-10T10:34:35Z</time>
      </trkpt>
      <trkpt lat="44.09185" lon="6.99686">
        <ele>1407.7</ele>
        <time>2018-06-10T10:34:42Z</time>
      </trkpt>
      <trkpt lat="44.0918" lon="6.99688">
        <ele>1409.7</ele>
        <time>2018-06-10T10:34:48Z</time>
      </trkpt>
      <trkpt lat="44.09177" lon="6.99689">
        <ele>1409.8</ele>
        <time>2018-06-10T10:34:52Z</time>
      </trkpt>
      <trkpt lat="44.09174" lon="6.99688">
        <ele>1410</ele>
        <time>2018-06-10T10:34:56Z</time>
      </trkpt>
      <trkpt lat="44.09168" lon="6.9969">
        <ele>1410.1</ele>
        <time>2018-06-10T10:35:03Z</time>
      </trkpt>
      <trkpt lat="44.09167" lon="6.99689">
        <ele>1410.1</ele>
        <time>2018-06-10T10:35:06Z</time>
      </trkpt>
      <trkpt lat="44.09164" lon="6.9969">
        <ele>1410.2</ele>
        <time>2018-06-10T10:35:11Z</time>
      </trkpt>
      <trkpt lat="44.09164" lon="6.99696">
        <ele>1411.9</ele>
        <time>2018-06-10T10:35:21Z</time>
      </trkpt>
      <trkpt lat="44.09168" lon="6.99699">
        <ele>1413.5</ele>
        <time>2018-06-10T10:35:28Z</time>
      </trkpt>
      <trkpt lat="44.09172" lon="6.99706">
        <ele>1416.3</ele>
        <time>2018-06-10T10:35:34Z</time>
      </trkpt>
      <trkpt lat="44.09177" lon="6.99713">
        <ele>1419.2</ele>
        <time>2018-06-10T10:35:41Z</time>
      </trkpt>
      <trkpt lat="44.09181" lon="6.99718">
        <ele>1420.3</ele>
        <time>2018-06-10T10:35:47Z</time>
      </trkpt>
      <trkpt lat="44.09187" lon="6.99723">
        <ele>1421.8</ele>
        <time>2018-06-10T10:35:54Z</time>
      </trkpt>
      <trkpt lat="44.09186" lon="6.99727">
        <ele>1423.5</ele>
        <time>2018-06-10T10:36:00Z</time>
      </trkpt>
      <trkpt lat="44.09184" lon="6.99726">
        <ele>1422</ele>
        <time>2018-06-10T10:36:02Z</time>
      </trkpt>
      <trkpt lat="44.09181" lon="6.99723">
        <ele>1422</ele>
        <time>2018-06-10T10:36:07Z</time>
      </trkpt>
      <trkpt lat="44.09174" lon="6.99721">
        <ele>1420.9</ele>
        <time>2018-06-10T10:36:17Z</time>
      </trkpt>
      <trkpt lat="44.09167" lon="6.99719">
        <ele>1421.2</ele>
        <time>2018-06-10T10:36:24Z</time>
      </trkpt>
      <trkpt lat="44.09162" lon="6.99719">
        <ele>1421.5</ele>
        <time>2018-06-10T10:36:29Z</time>
      </trkpt>
      <trkpt lat="44.09156" lon="6.9972">
        <ele>1421.6</ele>
        <time>2018-06-10T10:36:35Z</time>
      </trkpt>
      <trkpt lat="44.09152" lon="6.99722">
        <ele>1423.2</ele>
        <time>2018-06-10T10:36:38Z</time>
      </trkpt>
      <trkpt lat="44.0915" lon="6.99725">
        <ele>1423.2</ele>
        <time>2018-06-10T10:36:41Z</time>
      </trkpt>
      <trkpt lat="44.09146" lon="6.99729">
        <ele>1424.8</ele>
        <time>2018-06-10T10:36:47Z</time>
      </trkpt>
      <trkpt lat="44.09142" lon="6.99733">
        <ele>1426.3</ele>
        <time>2018-06-10T10:36:53Z</time>
      </trkpt>
      <trkpt lat="44.09137" lon="6.99736">
        <ele>1427.5</ele>
        <time>2018-06-10T10:36:59Z</time>
      </trkpt>
      <trkpt lat="44.09137" lon="6.99737">
        <ele>1427.5</ele>
        <time>2018-06-10T10:37:02Z</time>
      </trkpt>
      <trkpt lat="44.09135" lon="6.99739">
        <ele>1429.1</ele>
        <time>2018-06-10T10:37:05Z</time>
      </trkpt>
      <trkpt lat="44.09134" lon="6.9974">
        <ele>1428.8</ele>
        <time>2018-06-10T10:37:06Z</time>
      </trkpt>
      <trkpt lat="44.09116" lon="6.99752">
        <ele>1432.3</ele>
        <time>2018-06-10T10:37:19Z</time>
      </trkpt>
      <trkpt lat="44.09102" lon="6.99762">
        <ele>1433.6</ele>
        <time>2018-06-10T10:37:29Z</time>
      </trkpt>
      <trkpt lat="44.09084" lon="6.9977">
        <ele>1434</ele>
        <time>2018-06-10T10:37:42Z</time>
      </trkpt>
      <trkpt lat="44.09072" lon="6.99771">
        <ele>1431.4</ele>
        <time>2018-06-10T10:37:50Z</time>
      </trkpt>
      <trkpt lat="44.09049" lon="6.99776">
        <ele>1427.6</ele>
        <time>2018-06-10T10:38:03Z</time>
      </trkpt>
      <trkpt lat="44.09031" lon="6.998">
        <ele>1430.1</ele>
        <time>2018-06-10T10:38:19Z</time>
      </trkpt>
      <trkpt lat="44.0903" lon="6.99823">
        <ele>1435.6</ele>
        <time>2018-06-10T10:38:30Z</time>
      </trkpt>
      <trkpt lat="44.09028" lon="6.99838">
        <ele>1441.4</ele>
        <time>2018-06-10T10:38:39Z</time>
      </trkpt>
      <trkpt lat="44.09024" lon="6.99859">
        <ele>1444</ele>
        <time>2018-06-10T10:38:51Z</time>
      </trkpt>
      <trkpt lat="44.09023" lon="6.9986">
        <ele>1443.3</ele>
        <time>2018-06-10T10:38:52Z</time>
      </trkpt>
      <trkpt lat="44.09021" lon="6.99865">
        <ele>1444.3</ele>
        <time>2018-06-10T10:38:56Z</time>
      </trkpt>
      <trkpt lat="44.09018" lon="6.99874">
        <ele>1444.5</ele>
        <time>2018-06-10T10:39:02Z</time>
      </trkpt>
      <trkpt lat="44.09013" lon="6.99887">
        <ele>1443.1</ele>
        <time>2018-06-10T10:39:10Z</time>
      </trkpt>
      <trkpt lat="44.09012" lon="6.99891">
        <ele>1443.7</ele>
        <time>2018-06-10T10:39:12Z</time>
      </trkpt>
      <trkpt lat="44.09006" lon="6.99919">
        <ele>1442.4</ele>
        <time>2018-06-10T10:39:26Z</time>
      </trkpt>
      <trkpt lat="44.09007" lon="6.99925">
        <ele>1442.8</ele>
        <time>2018-06-10T10:39:29Z</time>
      </trkpt>
      <trkpt lat="44.09011" lon="6.99939">
        <ele>1445.2</ele>
        <time>2018-06-10T10:39:36Z</time>
      </trkpt>
      <trkpt lat="44.09021" lon="6.99958">
        <ele>1452.6</ele>
        <time>2018-06-10T10:39:49Z</time>
      </trkpt>
      <trkpt lat="44.09029" lon="6.99975">
        <ele>1455.9</ele>
        <time>2018-06-10T10:40:00Z</time>
      </trkpt>
      <trkpt lat="44.09037" lon="6.99986">
        <ele>1460.8</ele>
        <time>2018-06-10T10:40:09Z</time>
      </trkpt>
      <trkpt lat="44.09047" lon="6.99993">
        <ele>1464.8</ele>
        <time>2018-06-10T10:40:17Z</time>
      </trkpt>
      <trkpt lat="44.09054" lon="6.99999">
        <ele>1467.9</ele>
        <time>2018-06-10T10:40:23Z</time>
      </trkpt>
      <trkpt lat="44.09062" lon="7.00005">
        <ele>1472.8</ele>
        <time>2018-06-10T10:40:30Z</time>
      </trkpt>
      <trkpt lat="44.09071" lon="7.00008">
        <ele>1477.3</ele>
        <time>2018-06-10T10:40:36Z</time>
      </trkpt>
      <trkpt lat="44.09079" lon="7.00009">
        <ele>1482.3</ele>
        <time>2018-06-10T10:40:42Z</time>
      </trkpt>
      <trkpt lat="44.09088" lon="7.00017">
        <ele>1486</ele>
        <time>2018-06-10T10:40:51Z</time>
      </trkpt>
      <trkpt lat="44.09089" lon="7.00021">
        <ele>1487.8</ele>
        <time>2018-06-10T10:40:54Z</time>
      </trkpt>
      <trkpt lat="44.09082" lon="7.00038">
        <ele>1484.8</ele>
        <time>2018-06-10T10:41:00Z</time>
      </trkpt>
      <trkpt lat="44.09078" lon="7.00058">
        <ele>1480.2</ele>
        <time>2018-06-10T10:41:07Z</time>
      </trkpt>
      <trkpt lat="44.09082" lon="7.00067">
        <ele>1484.8</ele>
        <time>2018-06-10T10:41:12Z</time>
      </trkpt>
      <trkpt lat="44.09083" lon="7.00078">
        <ele>1484.6</ele>
        <time>2018-06-10T10:41:19Z</time>
      </trkpt>
      <trkpt lat="44.09083" lon="7.0008">
        <ele>1484.6</ele>
        <time>2018-06-10T10:41:20Z</time>
      </trkpt>
      <trkpt lat="44.09071" lon="7.00087">
        <ele>1474.1</ele>
        <time>2018-06-10T10:41:28Z</time>
      </trkpt>
      <trkpt lat="44.09069" lon="7.00104">
        <ele>1470.9</ele>
        <time>2018-06-10T10:41:36Z</time>
      </trkpt>
      <trkpt lat="44.09064" lon="7.00113">
        <ele>1467.8</ele>
        <time>2018-06-10T10:41:43Z</time>
      </trkpt>
      <trkpt lat="44.09059" lon="7.00116">
        <ele>1462.8</ele>
        <time>2018-06-10T10:41:46Z</time>
      </trkpt>
      <trkpt lat="44.09059" lon="7.00131">
        <ele>1461.8</ele>
        <time>2018-06-10T10:41:53Z</time>
      </trkpt>
      <trkpt lat="44.09065" lon="7.00152">
        <ele>1466.3</ele>
        <time>2018-06-10T10:42:01Z</time>
      </trkpt>
      <trkpt lat="44.09066" lon="7.00155">
        <ele>1466.3</ele>
        <time>2018-06-10T10:42:02Z</time>
      </trkpt>
      <trkpt lat="44.09067" lon="7.00171">
        <ele>1468.6</ele>
        <time>2018-06-10T10:42:10Z</time>
      </trkpt>
      <trkpt lat="44.09065" lon="7.00193">
        <ele>1466</ele>
        <time>2018-06-10T10:42:22Z</time>
      </trkpt>
      <trkpt lat="44.09065" lon="7.00195">
        <ele>1466</ele>
        <time>2018-06-10T10:42:23Z</time>
      </trkpt>
      <trkpt lat="44.09068" lon="7.00205">
        <ele>1468.6</ele>
        <time>2018-06-10T10:42:29Z</time>
      </trkpt>
      <trkpt lat="44.09069" lon="7.00206">
        <ele>1468.6</ele>
        <time>2018-06-10T10:42:30Z</time>
      </trkpt>
      <trkpt lat="44.09071" lon="7.00215">
        <ele>1471.2</ele>
        <time>2018-06-10T10:42:36Z</time>
      </trkpt>
      <trkpt lat="44.0907" lon="7.00217">
        <ele>1471</ele>
        <time>2018-06-10T10:42:37Z</time>
      </trkpt>
      <trkpt lat="44.09069" lon="7.0023">
        <ele>1467.8</ele>
        <time>2018-06-10T10:42:45Z</time>
      </trkpt>
      <trkpt lat="44.09067" lon="7.0024">
        <ele>1467.3</ele>
        <time>2018-06-10T10:42:50Z</time>
      </trkpt>
      <trkpt lat="44.09065" lon="7.00258">
        <ele>1463.8</ele>
        <time>2018-06-10T10:43:00Z</time>
      </trkpt>
      <trkpt lat="44.09063" lon="7.00277">
        <ele>1461.1</ele>
        <time>2018-06-10T10:43:09Z</time>
      </trkpt>
      <trkpt lat="44.09062" lon="7.00292">
        <ele>1461.1</ele>
        <time>2018-06-10T10:43:16Z</time>
      </trkpt>
      <trkpt lat="44.09063" lon="7.00302">
        <ele>1461.1</ele>
        <time>2018-06-10T10:43:21Z</time>
      </trkpt>
      <trkpt lat="44.09068" lon="7.0032">
        <ele>1465.4</ele>
        <time>2018-06-10T10:43:30Z</time>
      </trkpt>
      <trkpt lat="44.0907" lon="7.00327">
        <ele>1465.3</ele>
        <time>2018-06-10T10:43:37Z</time>
      </trkpt>
      <trkpt lat="44.09071" lon="7.00329">
        <ele>1467.5</ele>
        <time>2018-06-10T10:43:41Z</time>
      </trkpt>
      <trkpt lat="44.09079" lon="7.00343">
        <ele>1472.2</ele>
        <time>2018-06-10T10:43:51Z</time>
      </trkpt>
      <trkpt lat="44.09093" lon="7.00358">
        <ele>1483.7</ele>
        <time>2018-06-10T10:44:04Z</time>
      </trkpt>
      <trkpt lat="44.09105" lon="7.00371">
        <ele>1491.5</ele>
        <time>2018-06-10T10:44:15Z</time>
      </trkpt>
      <trkpt lat="44.09112" lon="7.00383">
        <ele>1494.4</ele>
        <time>2018-06-10T10:44:23Z</time>
      </trkpt>
      <trkpt lat="44.09119" lon="7.00396">
        <ele>1499.8</ele>
        <time>2018-06-10T10:44:31Z</time>
      </trkpt>
      <trkpt lat="44.09126" lon="7.00409">
        <ele>1500</ele>
        <time>2018-06-10T10:44:39Z</time>
      </trkpt>
      <trkpt lat="44.0913" lon="7.00414">
        <ele>1500.7</ele>
        <time>2018-06-10T10:44:42Z</time>
      </trkpt>
      <trkpt lat="44.09139" lon="7.00417">
        <ele>1506.4</ele>
        <time>2018-06-10T10:44:48Z</time>
      </trkpt>
      <trkpt lat="44.09145" lon="7.00426">
        <ele>1506.8</ele>
        <time>2018-06-10T10:44:54Z</time>
      </trkpt>
      <trkpt lat="44.09148" lon="7.00433">
        <ele>1507.3</ele>
        <time>2018-06-10T10:44:58Z</time>
      </trkpt>
      <trkpt lat="44.09153" lon="7.00444">
        <ele>1505</ele>
        <time>2018-06-10T10:45:04Z</time>
      </trkpt>
      <trkpt lat="44.09155" lon="7.00447">
        <ele>1506.5</ele>
        <time>2018-06-10T10:45:06Z</time>
      </trkpt>
      <trkpt lat="44.09165" lon="7.00459">
        <ele>1507.3</ele>
        <time>2018-06-10T10:45:15Z</time>
      </trkpt>
      <trkpt lat="44.09168" lon="7.00462">
        <ele>1507.8</ele>
        <time>2018-06-10T10:45:18Z</time>
      </trkpt>
      <trkpt lat="44.09177" lon="7.00473">
        <ele>1510.2</ele>
        <time>2018-06-10T10:45:25Z</time>
      </trkpt>
      <trkpt lat="44.09187" lon="7.00492">
        <ele>1509.6</ele>
        <time>2018-06-10T10:45:34Z</time>
      </trkpt>
      <trkpt lat="44.09199" lon="7.00503">
        <ele>1509.8</ele>
        <time>2018-06-10T10:45:43Z</time>
      </trkpt>
      <trkpt lat="44.09207" lon="7.00514">
        <ele>1511.4</ele>
        <time>2018-06-10T10:45:52Z</time>
      </trkpt>
      <trkpt lat="44.09215" lon="7.00528">
        <ele>1511.9</ele>
        <time>2018-06-10T10:46:01Z</time>
      </trkpt>
      <trkpt lat="44.09219" lon="7.00536">
        <ele>1510.7</ele>
        <time>2018-06-10T10:46:06Z</time>
      </trkpt>
      <trkpt lat="44.09223" lon="7.0054">
        <ele>1511</ele>
        <time>2018-06-10T10:46:09Z</time>
      </trkpt>
      <trkpt lat="44.09228" lon="7.00547">
        <ele>1511.9</ele>
        <time>2018-06-10T10:46:15Z</time>
      </trkpt>
      <trkpt lat="44.09233" lon="7.00556">
        <ele>1511</ele>
        <time>2018-06-10T10:46:21Z</time>
      </trkpt>
      <trkpt lat="44.09234" lon="7.00557">
        <ele>1512.8</ele>
        <time>2018-06-10T10:46:22Z</time>
      </trkpt>
      <trkpt lat="44.0924" lon="7.00562">
        <ele>1514.9</ele>
        <time>2018-06-10T10:46:27Z</time>
      </trkpt>
      <trkpt lat="44.09244" lon="7.00566">
        <ele>1515.5</ele>
        <time>2018-06-10T10:46:30Z</time>
      </trkpt>
      <trkpt lat="44.09245" lon="7.00567">
        <ele>1515.5</ele>
        <time>2018-06-10T10:46:31Z</time>
      </trkpt>
      <trkpt lat="44.09252" lon="7.00574">
        <ele>1519.3</ele>
        <time>2018-06-10T10:46:37Z</time>
      </trkpt>
      <trkpt lat="44.09258" lon="7.00583">
        <ele>1518.7</ele>
        <time>2018-06-10T10:46:43Z</time>
      </trkpt>
      <trkpt lat="44.09262" lon="7.00604">
        <ele>1516.2</ele>
        <time>2018-06-10T10:46:54Z</time>
      </trkpt>
      <trkpt lat="44.09262" lon="7.00605">
        <ele>1516.1</ele>
        <time>2018-06-10T10:46:57Z</time>
      </trkpt>
      <trkpt lat="44.09266" lon="7.0061">
        <ele>1516.8</ele>
        <time>2018-06-10T10:47:03Z</time>
      </trkpt>
      <trkpt lat="44.09287" lon="7.0063">
        <ele>1525.9</ele>
        <time>2018-06-10T10:47:20Z</time>
      </trkpt>
      <trkpt lat="44.09288" lon="7.00636">
        <ele>1523.8</ele>
        <time>2018-06-10T10:47:22Z</time>
      </trkpt>
      <trkpt lat="44.09287" lon="7.00668">
        <ele>1518.1</ele>
        <time>2018-06-10T10:47:36Z</time>
      </trkpt>
      <trkpt lat="44.09298" lon="7.00696">
        <ele>1519.3</ele>
        <time>2018-06-10T10:47:50Z</time>
      </trkpt>
      <trkpt lat="44.09306" lon="7.00709">
        <ele>1522.6</ele>
        <time>2018-06-10T10:47:58Z</time>
      </trkpt>
      <trkpt lat="44.09316" lon="7.00721">
        <ele>1526.3</ele>
        <time>2018-06-10T10:48:07Z</time>
      </trkpt>
      <trkpt lat="44.09323" lon="7.00724">
        <ele>1530.1</ele>
        <time>2018-06-10T10:48:13Z</time>
      </trkpt>
      <trkpt lat="44.09326" lon="7.00728">
        <ele>1530.9</ele>
        <time>2018-06-10T10:48:16Z</time>
      </trkpt>
      <trkpt lat="44.0933" lon="7.00731">
        <ele>1531.7</ele>
        <time>2018-06-10T10:48:19Z</time>
      </trkpt>
      <trkpt lat="44.09336" lon="7.00736">
        <ele>1534</ele>
        <time>2018-06-10T10:48:24Z</time>
      </trkpt>
      <trkpt lat="44.09341" lon="7.00741">
        <ele>1536.1</ele>
        <time>2018-06-10T10:48:28Z</time>
      </trkpt>
      <trkpt lat="44.09343" lon="7.00745">
        <ele>1535.6</ele>
        <time>2018-06-10T10:48:30Z</time>
      </trkpt>
      <trkpt lat="44.09352" lon="7.00753">
        <ele>1537.8</ele>
        <time>2018-06-10T10:48:36Z</time>
      </trkpt>
      <trkpt lat="44.09358" lon="7.0076">
        <ele>1539.4</ele>
        <time>2018-06-10T10:48:41Z</time>
      </trkpt>
      <trkpt lat="44.09366" lon="7.00781">
        <ele>1539.4</ele>
        <time>2018-06-10T10:48:53Z</time>
      </trkpt>
      <trkpt lat="44.09371" lon="7.00788">
        <ele>1539</ele>
        <time>2018-06-10T10:48:57Z</time>
      </trkpt>
      <trkpt lat="44.09374" lon="7.00791">
        <ele>1539.2</ele>
        <time>2018-06-10T10:48:59Z</time>
      </trkpt>
      <trkpt lat="44.09384" lon="7.00799">
        <ele>1541.3</ele>
        <time>2018-06-10T10:49:07Z</time>
      </trkpt>
      <trkpt lat="44.09392" lon="7.00808">
        <ele>1542.1</ele>
        <time>2018-06-10T10:49:15Z</time>
      </trkpt>
      <trkpt lat="44.09399" lon="7.00829">
        <ele>1540.6</ele>
        <time>2018-06-10T10:49:25Z</time>
      </trkpt>
      <trkpt lat="44.09411" lon="7.00851">
        <ele>1539.9</ele>
        <time>2018-06-10T10:49:37Z</time>
      </trkpt>
      <trkpt lat="44.09421" lon="7.0086">
        <ele>1541.5</ele>
        <time>2018-06-10T10:49:44Z</time>
      </trkpt>
      <trkpt lat="44.09427" lon="7.00868">
        <ele>1542.1</ele>
        <time>2018-06-10T10:49:50Z</time>
      </trkpt>
      <trkpt lat="44.09436" lon="7.00884">
        <ele>1543.3</ele>
        <time>2018-06-10T10:49:58Z</time>
      </trkpt>
      <trkpt lat="44.09445" lon="7.00899">
        <ele>1544.1</ele>
        <time>2018-06-10T10:50:07Z</time>
      </trkpt>
      <trkpt lat="44.09456" lon="7.00915">
        <ele>1547.2</ele>
        <time>2018-06-10T10:50:16Z</time>
      </trkpt>
      <trkpt lat="44.09465" lon="7.00927">
        <ele>1549</ele>
        <time>2018-06-10T10:50:24Z</time>
      </trkpt>
      <trkpt lat="44.09472" lon="7.00942">
        <ele>1549.2</ele>
        <time>2018-06-10T10:50:33Z</time>
      </trkpt>
      <trkpt lat="44.09473" lon="7.00943">
        <ele>1549.2</ele>
        <time>2018-06-10T10:50:34Z</time>
      </trkpt>
      <trkpt lat="44.09482" lon="7.00954">
        <ele>1551.8</ele>
        <time>2018-06-10T10:50:42Z</time>
      </trkpt>
      <trkpt lat="44.09491" lon="7.00956">
        <ele>1555.7</ele>
        <time>2018-06-10T10:50:48Z</time>
      </trkpt>
      <trkpt lat="44.09492" lon="7.00957">
        <ele>1557.1</ele>
        <time>2018-06-10T10:50:49Z</time>
      </trkpt>
      <trkpt lat="44.09496" lon="7.00962">
        <ele>1557.6</ele>
        <time>2018-06-10T10:50:53Z</time>
      </trkpt>
      <trkpt lat="44.09496" lon="7.00965">
        <ele>1557.6</ele>
        <time>2018-06-10T10:50:56Z</time>
      </trkpt>
      <trkpt lat="44.09495" lon="7.00971">
        <ele>1555.4</ele>
        <time>2018-06-10T10:51:00Z</time>
      </trkpt>
      <trkpt lat="44.09491" lon="7.00989">
        <ele>1551.7</ele>
        <time>2018-06-10T10:51:07Z</time>
      </trkpt>
      <trkpt lat="44.09491" lon="7.00992">
        <ele>1551.7</ele>
        <time>2018-06-10T10:51:08Z</time>
      </trkpt>
      <trkpt lat="44.09498" lon="7.01012">
        <ele>1552.3</ele>
        <time>2018-06-10T10:51:16Z</time>
      </trkpt>
      <trkpt lat="44.09501" lon="7.01019">
        <ele>1552.8</ele>
        <time>2018-06-10T10:51:20Z</time>
      </trkpt>
      <trkpt lat="44.09505" lon="7.01028">
        <ele>1554.3</ele>
        <time>2018-06-10T10:51:26Z</time>
      </trkpt>
      <trkpt lat="44.09506" lon="7.0103">
        <ele>1554.3</ele>
        <time>2018-06-10T10:51:27Z</time>
      </trkpt>
      <trkpt lat="44.0951" lon="7.01038">
        <ele>1554.3</ele>
        <time>2018-06-10T10:51:32Z</time>
      </trkpt>
      <trkpt lat="44.09517" lon="7.01053">
        <ele>1555.7</ele>
        <time>2018-06-10T10:51:41Z</time>
      </trkpt>
      <trkpt lat="44.09525" lon="7.01066">
        <ele>1556.9</ele>
        <time>2018-06-10T10:51:51Z</time>
      </trkpt>
      <trkpt lat="44.09529" lon="7.01071">
        <ele>1557.7</ele>
        <time>2018-06-10T10:51:55Z</time>
      </trkpt>
      <trkpt lat="44.0953" lon="7.01074">
        <ele>1558.5</ele>
        <time>2018-06-10T10:51:57Z</time>
      </trkpt>
      <trkpt lat="44.09534" lon="7.0108">
        <ele>1559.3</ele>
        <time>2018-06-10T10:52:01Z</time>
      </trkpt>
      <trkpt lat="44.09535" lon="7.01081">
        <ele>1559.3</ele>
        <time>2018-06-10T10:52:02Z</time>
      </trkpt>
      <trkpt lat="44.09541" lon="7.01087">
        <ele>1560.8</ele>
        <time>2018-06-10T10:52:08Z</time>
      </trkpt>
      <trkpt lat="44.09544" lon="7.01098">
        <ele>1561.2</ele>
        <time>2018-06-10T10:52:15Z</time>
      </trkpt>
      <trkpt lat="44.0955" lon="7.01112">
        <ele>1563.1</ele>
        <time>2018-06-10T10:52:23Z</time>
      </trkpt>
      <trkpt lat="44.09557" lon="7.01126">
        <ele>1565.2</ele>
        <time>2018-06-10T10:52:32Z</time>
      </trkpt>
      <trkpt lat="44.09561" lon="7.01141">
        <ele>1565.1</ele>
        <time>2018-06-10T10:52:40Z</time>
      </trkpt>
      <trkpt lat="44.09569" lon="7.01164">
        <ele>1565.2</ele>
        <time>2018-06-10T10:52:53Z</time>
      </trkpt>
      <trkpt lat="44.09569" lon="7.01168">
        <ele>1565.7</ele>
        <time>2018-06-10T10:52:55Z</time>
      </trkpt>
      <trkpt lat="44.09578" lon="7.01186">
        <ele>1566.3</ele>
        <time>2018-06-10T10:53:04Z</time>
      </trkpt>
      <trkpt lat="44.09586" lon="7.01198">
        <ele>1568.8</ele>
        <time>2018-06-10T10:53:11Z</time>
      </trkpt>
      <trkpt lat="44.09587" lon="7.012">
        <ele>1568.5</ele>
        <time>2018-06-10T10:53:12Z</time>
      </trkpt>
      <trkpt lat="44.09588" lon="7.01206">
        <ele>1569.2</ele>
        <time>2018-06-10T10:53:15Z</time>
      </trkpt>
      <trkpt lat="44.09594" lon="7.01214">
        <ele>1570.3</ele>
        <time>2018-06-10T10:53:22Z</time>
      </trkpt>
      <trkpt lat="44.09595" lon="7.01215">
        <ele>1570.3</ele>
        <time>2018-06-10T10:53:23Z</time>
      </trkpt>
      <trkpt lat="44.09599" lon="7.01221">
        <ele>1570.4</ele>
        <time>2018-06-10T10:53:28Z</time>
      </trkpt>
      <trkpt lat="44.096" lon="7.01222">
        <ele>1570.4</ele>
        <time>2018-06-10T10:53:29Z</time>
      </trkpt>
      <trkpt lat="44.09602" lon="7.01231">
        <ele>1570.6</ele>
        <time>2018-06-10T10:53:35Z</time>
      </trkpt>
      <trkpt lat="44.09604" lon="7.01233">
        <ele>1571.3</ele>
        <time>2018-06-10T10:53:37Z</time>
      </trkpt>
      <trkpt lat="44.09609" lon="7.0124">
        <ele>1572</ele>
        <time>2018-06-10T10:53:43Z</time>
      </trkpt>
      <trkpt lat="44.09613" lon="7.01248">
        <ele>1573.5</ele>
        <time>2018-06-10T10:53:49Z</time>
      </trkpt>
      <trkpt lat="44.09615" lon="7.01251">
        <ele>1573.1</ele>
        <time>2018-06-10T10:53:51Z</time>
      </trkpt>
      <trkpt lat="44.09616" lon="7.01254">
        <ele>1573.7</ele>
        <time>2018-06-10T10:53:53Z</time>
      </trkpt>
      <trkpt lat="44.0962" lon="7.01264">
        <ele>1573.9</ele>
        <time>2018-06-10T10:53:58Z</time>
      </trkpt>
      <trkpt lat="44.09627" lon="7.01278">
        <ele>1574.9</ele>
        <time>2018-06-10T10:54:07Z</time>
      </trkpt>
      <trkpt lat="44.09632" lon="7.0129">
        <ele>1576.4</ele>
        <time>2018-06-10T10:54:15Z</time>
      </trkpt>
      <trkpt lat="44.09635" lon="7.01299">
        <ele>1577.2</ele>
        <time>2018-06-10T10:54:21Z</time>
      </trkpt>
      <trkpt lat="44.09636" lon="7.01302">
        <ele>1577.2</ele>
        <time>2018-06-10T10:54:23Z</time>
      </trkpt>
      <trkpt lat="44.09639" lon="7.01306">
        <ele>1578.1</ele>
        <time>2018-06-10T10:54:26Z</time>
      </trkpt>
      <trkpt lat="44.09646" lon="7.01318">
        <ele>1579.9</ele>
        <time>2018-06-10T10:54:34Z</time>
      </trkpt>
      <trkpt lat="44.09651" lon="7.01326">
        <ele>1581.8</ele>
        <time>2018-06-10T10:54:41Z</time>
      </trkpt>
      <trkpt lat="44.09652" lon="7.01328">
        <ele>1581.8</ele>
        <time>2018-06-10T10:54:42Z</time>
      </trkpt>
      <trkpt lat="44.09659" lon="7.01341">
        <ele>1584.5</ele>
        <time>2018-06-10T10:54:50Z</time>
      </trkpt>
      <trkpt lat="44.09663" lon="7.0135">
        <ele>1585.3</ele>
        <time>2018-06-10T10:54:55Z</time>
      </trkpt>
      <trkpt lat="44.09664" lon="7.01352">
        <ele>1585.3</ele>
        <time>2018-06-10T10:54:57Z</time>
      </trkpt>
      <trkpt lat="44.09664" lon="7.01367">
        <ele>1585.3</ele>
        <time>2018-06-10T10:55:04Z</time>
      </trkpt>
      <trkpt lat="44.09665" lon="7.01369">
        <ele>1586.1</ele>
        <time>2018-06-10T10:55:05Z</time>
      </trkpt>
      <trkpt lat="44.09667" lon="7.01374">
        <ele>1586.1</ele>
        <time>2018-06-10T10:55:08Z</time>
      </trkpt>
      <trkpt lat="44.09669" lon="7.0138">
        <ele>1587.1</ele>
        <time>2018-06-10T10:55:11Z</time>
      </trkpt>
      <trkpt lat="44.09673" lon="7.01387">
        <ele>1588.1</ele>
        <time>2018-06-10T10:55:16Z</time>
      </trkpt>
      <trkpt lat="44.09675" lon="7.01394">
        <ele>1589.1</ele>
        <time>2018-06-10T10:55:20Z</time>
      </trkpt>
      <trkpt lat="44.09676" lon="7.01396">
        <ele>1589.1</ele>
        <time>2018-06-10T10:55:21Z</time>
      </trkpt>
      <trkpt lat="44.09677" lon="7.01397">
        <ele>1590</ele>
        <time>2018-06-10T10:55:22Z</time>
      </trkpt>
      <trkpt lat="44.09684" lon="7.01412">
        <ele>1591.5</ele>
        <time>2018-06-10T10:55:30Z</time>
      </trkpt>
      <trkpt lat="44.09685" lon="7.01417">
        <ele>1591.4</ele>
        <time>2018-06-10T10:55:32Z</time>
      </trkpt>
      <trkpt lat="44.09688" lon="7.01418">
        <ele>1592.1</ele>
        <time>2018-06-10T10:55:34Z</time>
      </trkpt>
      <trkpt lat="44.09689" lon="7.01419">
        <ele>1592.1</ele>
        <time>2018-06-10T10:55:36Z</time>
      </trkpt>
      <trkpt lat="44.09691" lon="7.01431">
        <ele>1592.6</ele>
        <time>2018-06-10T10:55:47Z</time>
      </trkpt>
      <trkpt lat="44.09691" lon="7.01435">
        <ele>1592.4</ele>
        <time>2018-06-10T10:55:51Z</time>
      </trkpt>
      <trkpt lat="44.09691" lon="7.01441">
        <ele>1592.3</ele>
        <time>2018-06-10T10:55:55Z</time>
      </trkpt>
      <trkpt lat="44.09692" lon="7.01448">
        <ele>1592.1</ele>
        <time>2018-06-10T10:55:59Z</time>
      </trkpt>
      <trkpt lat="44.09693" lon="7.01468">
        <ele>1592.8</ele>
        <time>2018-06-10T10:56:09Z</time>
      </trkpt>
      <trkpt lat="44.09694" lon="7.01471">
        <ele>1592.7</ele>
        <time>2018-06-10T10:56:11Z</time>
      </trkpt>
      <trkpt lat="44.09694" lon="7.01475">
        <ele>1592.7</ele>
        <time>2018-06-10T10:56:13Z</time>
      </trkpt>
      <trkpt lat="44.09698" lon="7.01488">
        <ele>1593.5</ele>
        <time>2018-06-10T10:56:21Z</time>
      </trkpt>
      <trkpt lat="44.097" lon="7.01493">
        <ele>1594.3</ele>
        <time>2018-06-10T10:56:25Z</time>
      </trkpt>
      <trkpt lat="44.09701" lon="7.015">
        <ele>1594.2</ele>
        <time>2018-06-10T10:56:29Z</time>
      </trkpt>
      <trkpt lat="44.09702" lon="7.01514">
        <ele>1594.9</ele>
        <time>2018-06-10T10:56:37Z</time>
      </trkpt>
      <trkpt lat="44.09709" lon="7.01534">
        <ele>1595.9</ele>
        <time>2018-06-10T10:56:47Z</time>
      </trkpt>
      <trkpt lat="44.0971" lon="7.01536">
        <ele>1595.9</ele>
        <time>2018-06-10T10:56:48Z</time>
      </trkpt>
      <trkpt lat="44.09714" lon="7.01543">
        <ele>1596.4</ele>
        <time>2018-06-10T10:56:52Z</time>
      </trkpt>
      <trkpt lat="44.09715" lon="7.01544">
        <ele>1597.1</ele>
        <time>2018-06-10T10:56:53Z</time>
      </trkpt>
      <trkpt lat="44.09719" lon="7.0156">
        <ele>1597.7</ele>
        <time>2018-06-10T10:57:01Z</time>
      </trkpt>
      <trkpt lat="44.09724" lon="7.01575">
        <ele>1599.1</ele>
        <time>2018-06-10T10:57:10Z</time>
      </trkpt>
      <trkpt lat="44.09726" lon="7.01585">
        <ele>1599.1</ele>
        <time>2018-06-10T10:57:16Z</time>
      </trkpt>
      <trkpt lat="44.0973" lon="7.01598">
        <ele>1600.5</ele>
        <time>2018-06-10T10:57:24Z</time>
      </trkpt>
      <trkpt lat="44.09737" lon="7.01616">
        <ele>1602.1</ele>
        <time>2018-06-10T10:57:35Z</time>
      </trkpt>
      <trkpt lat="44.09739" lon="7.01622">
        <ele>1602.8</ele>
        <time>2018-06-10T10:57:39Z</time>
      </trkpt>
      <trkpt lat="44.0974" lon="7.01625">
        <ele>1603</ele>
        <time>2018-06-10T10:57:41Z</time>
      </trkpt>
      <trkpt lat="44.09743" lon="7.01632">
        <ele>1603.8</ele>
        <time>2018-06-10T10:57:46Z</time>
      </trkpt>
      <trkpt lat="44.09744" lon="7.01637">
        <ele>1604</ele>
        <time>2018-06-10T10:57:49Z</time>
      </trkpt>
      <trkpt lat="44.09748" lon="7.01653">
        <ele>1605.7</ele>
        <time>2018-06-10T10:57:58Z</time>
      </trkpt>
      <trkpt lat="44.0975" lon="7.01663">
        <ele>1607.1</ele>
        <time>2018-06-10T10:58:04Z</time>
      </trkpt>
      <trkpt lat="44.09751" lon="7.01666">
        <ele>1608.1</ele>
        <time>2018-06-10T10:58:08Z</time>
      </trkpt>
      <trkpt lat="44.09753" lon="7.01669">
        <ele>1608.1</ele>
        <time>2018-06-10T10:58:14Z</time>
      </trkpt>
      <trkpt lat="44.09757" lon="7.01682">
        <ele>1610.6</ele>
        <time>2018-06-10T10:58:23Z</time>
      </trkpt>
      <trkpt lat="44.09765" lon="7.01687">
        <ele>1611.9</ele>
        <time>2018-06-10T10:58:29Z</time>
      </trkpt>
      <trkpt lat="44.09779" lon="7.01696">
        <ele>1615.3</ele>
        <time>2018-06-10T10:58:38Z</time>
      </trkpt>
      <trkpt lat="44.09789" lon="7.017">
        <ele>1617.7</ele>
        <time>2018-06-10T10:58:46Z</time>
      </trkpt>
      <trkpt lat="44.09793" lon="7.01704">
        <ele>1618.8</ele>
        <time>2018-06-10T10:58:50Z</time>
      </trkpt>
      <trkpt lat="44.09795" lon="7.01707">
        <ele>1619.9</ele>
        <time>2018-06-10T10:58:52Z</time>
      </trkpt>
      <trkpt lat="44.09801" lon="7.01711">
        <ele>1621.9</ele>
        <time>2018-06-10T10:58:59Z</time>
      </trkpt>
      <trkpt lat="44.09813" lon="7.01718">
        <ele>1626.2</ele>
        <time>2018-06-10T10:59:11Z</time>
      </trkpt>
      <trkpt lat="44.09816" lon="7.01721">
        <ele>1627</ele>
        <time>2018-06-10T10:59:15Z</time>
      </trkpt>
      <trkpt lat="44.09819" lon="7.01738">
        <ele>1628.8</ele>
        <time>2018-06-10T10:59:20Z</time>
      </trkpt>
      <trkpt lat="44.0983" lon="7.01758">
        <ele>1630.2</ele>
        <time>2018-06-10T10:59:28Z</time>
      </trkpt>
      <trkpt lat="44.09833" lon="7.0176">
        <ele>1630.6</ele>
        <time>2018-06-10T10:59:30Z</time>
      </trkpt>
      <trkpt lat="44.09835" lon="7.01762">
        <ele>1630.7</ele>
        <time>2018-06-10T10:59:31Z</time>
      </trkpt>
      <trkpt lat="44.09837" lon="7.0177">
        <ele>1631.4</ele>
        <time>2018-06-10T10:59:35Z</time>
      </trkpt>
      <trkpt lat="44.09837" lon="7.0177">
        <ele>1631.5</ele>
        <time>2018-06-10T10:59:37Z</time>
      </trkpt>
      <trkpt lat="44.09839" lon="7.01772">
        <ele>1631.8</ele>
        <time>2018-06-10T10:59:44Z</time>
      </trkpt>
      <trkpt lat="44.09847" lon="7.01776">
        <ele>1632.4</ele>
        <time>2018-06-10T10:59:57Z</time>
      </trkpt>
      <trkpt lat="44.09849" lon="7.01778">
        <ele>1632.5</ele>
        <time>2018-06-10T11:00:00Z</time>
      </trkpt>
      <trkpt lat="44.09861" lon="7.0178">
        <ele>1632.6</ele>
        <time>2018-06-10T11:00:17Z</time>
      </trkpt>
      <trkpt lat="44.09863" lon="7.01781">
        <ele>1632.7</ele>
        <time>2018-06-10T11:00:29Z</time>
      </trkpt>
      <trkpt lat="44.09871" lon="7.01785">
        <ele>1632.7</ele>
        <time>2018-06-10T11:00:38Z</time>
      </trkpt>
      <trkpt lat="44.09878" lon="7.01789">
        <ele>1632.6</ele>
        <time>2018-06-10T11:00:47Z</time>
      </trkpt>
      <trkpt lat="44.09892" lon="7.01798">
        <ele>1632.3</ele>
        <time>2018-06-10T11:01:02Z</time>
      </trkpt>
      <trkpt lat="44.09916" lon="7.01817">
        <ele>1631.8</ele>
        <time>2018-06-10T11:01:21Z</time>
      </trkpt>
      <trkpt lat="44.09928" lon="7.01824">
        <ele>1631.5</ele>
        <time>2018-06-10T11:01:31Z</time>
      </trkpt>
      <trkpt lat="44.09949" lon="7.0183">
        <ele>1630.7</ele>
        <time>2018-06-10T11:01:47Z</time>
      </trkpt>
      <trkpt lat="44.09958" lon="7.01841">
        <ele>1629.3</ele>
        <time>2018-06-10T11:01:57Z</time>
      </trkpt>
      <trkpt lat="44.09961" lon="7.01851">
        <ele>1628.2</ele>
        <time>2018-06-10T11:02:04Z</time>
      </trkpt>
      <trkpt lat="44.09966" lon="7.01865">
        <ele>1626.7</ele>
        <time>2018-06-10T11:02:14Z</time>
      </trkpt>
      <trkpt lat="44.0997" lon="7.01871">
        <ele>1625.8</ele>
        <time>2018-06-10T11:02:21Z</time>
      </trkpt>
      <trkpt lat="44.09974" lon="7.01873">
        <ele>1625.3</ele>
        <time>2018-06-10T11:02:24Z</time>
      </trkpt>
      <trkpt lat="44.09976" lon="7.01874">
        <ele>1625</ele>
        <time>2018-06-10T11:02:26Z</time>
      </trkpt>
      <trkpt lat="44.09982" lon="7.0188">
        <ele>1624.2</ele>
        <time>2018-06-10T11:02:32Z</time>
      </trkpt>
      <trkpt lat="44.1" lon="7.01892">
        <ele>1622.6</ele>
        <time>2018-06-10T11:02:49Z</time>
      </trkpt>
      <trkpt lat="44.10028" lon="7.01901">
        <ele>1622.6</ele>
        <time>2018-06-10T11:03:08Z</time>
      </trkpt>
      <trkpt lat="44.10038" lon="7.01904">
        <ele>1622.7</ele>
        <time>2018-06-10T11:03:16Z</time>
      </trkpt>
      <trkpt lat="44.10041" lon="7.01906">
        <ele>1622.8</ele>
        <time>2018-06-10T11:03:19Z</time>
      </trkpt>
      <trkpt lat="44.10046" lon="7.01917">
        <ele>1622.8</ele>
        <time>2018-06-10T11:03:30Z</time>
      </trkpt>
      <trkpt lat="44.10048" lon="7.01935">
        <ele>1621.9</ele>
        <time>2018-06-10T11:03:44Z</time>
      </trkpt>
      <trkpt lat="44.10049" lon="7.01937">
        <ele>1621.7</ele>
        <time>2018-06-10T11:03:46Z</time>
      </trkpt>
      <trkpt lat="44.10049" lon="7.01943">
        <ele>1621.5</ele>
        <time>2018-06-10T11:03:50Z</time>
      </trkpt>
      <trkpt lat="44.1005" lon="7.01954">
        <ele>1621.4</ele>
        <time>2018-06-10T11:04:00Z</time>
      </trkpt>
      <trkpt lat="44.1005" lon="7.01958">
        <ele>1621.4</ele>
        <time>2018-06-10T11:04:03Z</time>
      </trkpt>
      <trkpt lat="44.10054" lon="7.01972">
        <ele>1621.7</ele>
        <time>2018-06-10T11:04:14Z</time>
      </trkpt>
      <trkpt lat="44.1006" lon="7.01986">
        <ele>1621.7</ele>
        <time>2018-06-10T11:04:26Z</time>
      </trkpt>
      <trkpt lat="44.10064" lon="7.01997">
        <ele>1622</ele>
        <time>2018-06-10T11:04:33Z</time>
      </trkpt>
      <trkpt lat="44.10066" lon="7.02004">
        <ele>1622.2</ele>
        <time>2018-06-10T11:04:38Z</time>
      </trkpt>
      <trkpt lat="44.10068" lon="7.02007">
        <ele>1622.3</ele>
        <time>2018-06-10T11:04:40Z</time>
      </trkpt>
      <trkpt lat="44.10076" lon="7.0202">
        <ele>1623.2</ele>
        <time>2018-06-10T11:04:52Z</time>
      </trkpt>
      <trkpt lat="44.10086" lon="7.02039">
        <ele>1625.1</ele>
        <time>2018-06-10T11:05:07Z</time>
      </trkpt>
      <trkpt lat="44.10088" lon="7.02044">
        <ele>1625.3</ele>
        <time>2018-06-10T11:05:11Z</time>
      </trkpt>
      <trkpt lat="44.10091" lon="7.02051">
        <ele>1625.7</ele>
        <time>2018-06-10T11:05:16Z</time>
      </trkpt>
      <trkpt lat="44.10092" lon="7.02053">
        <ele>1625.8</ele>
        <time>2018-06-10T11:05:18Z</time>
      </trkpt>
      <trkpt lat="44.10096" lon="7.02064">
        <ele>1626.5</ele>
        <time>2018-06-10T11:05:26Z</time>
      </trkpt>
      <trkpt lat="44.10099" lon="7.02071">
        <ele>1626.8</ele>
        <time>2018-06-10T11:05:32Z</time>
      </trkpt>
      <trkpt lat="44.10112" lon="7.02083">
        <ele>1628.5</ele>
        <time>2018-06-10T11:05:45Z</time>
      </trkpt>
      <trkpt lat="44.10119" lon="7.02091">
        <ele>1629.8</ele>
        <time>2018-06-10T11:05:53Z</time>
      </trkpt>
      <trkpt lat="44.10129" lon="7.02097">
        <ele>1631</ele>
        <time>2018-06-10T11:06:03Z</time>
      </trkpt>
      <trkpt lat="44.10132" lon="7.02099">
        <ele>1631.2</ele>
        <time>2018-06-10T11:06:06Z</time>
      </trkpt>
      <trkpt lat="44.1014" lon="7.02108">
        <ele>1632.7</ele>
        <time>2018-06-10T11:06:19Z</time>
      </trkpt>
      <trkpt lat="44.10146" lon="7.02117">
        <ele>1634.5</ele>
        <time>2018-06-10T11:06:28Z</time>
      </trkpt>
      <trkpt lat="44.10157" lon="7.02123">
        <ele>1636.1</ele>
        <time>2018-06-10T11:06:39Z</time>
      </trkpt>
      <trkpt lat="44.10169" lon="7.02124">
        <ele>1638</ele>
        <time>2018-06-10T11:06:53Z</time>
      </trkpt>
      <trkpt lat="44.10174" lon="7.02128">
        <ele>1638.9</ele>
        <time>2018-06-10T11:06:59Z</time>
      </trkpt>
      <trkpt lat="44.10176" lon="7.0213">
        <ele>1639.4</ele>
        <time>2018-06-10T11:07:04Z</time>
      </trkpt>
      <trkpt lat="44.10179" lon="7.02131">
        <ele>1639.7</ele>
        <time>2018-06-10T11:07:08Z</time>
      </trkpt>
      <trkpt lat="44.10185" lon="7.02132">
        <ele>1640.5</ele>
        <time>2018-06-10T11:07:14Z</time>
      </trkpt>
      <trkpt lat="44.10189" lon="7.02127">
        <ele>1641.2</ele>
        <time>2018-06-10T11:07:18Z</time>
      </trkpt>
      <trkpt lat="44.10193" lon="7.0213">
        <ele>1651.4</ele>
        <time>2018-06-10T11:07:27Z</time>
      </trkpt>
      <trkpt lat="44.10191" lon="7.02134">
        <ele>1651.6</ele>
        <time>2018-06-10T11:07:32Z</time>
      </trkpt>
      <trkpt lat="44.10188" lon="7.02138">
        <ele>1651.9</ele>
        <time>2018-06-10T11:07:37Z</time>
      </trkpt>
      <trkpt lat="44.10183" lon="7.02142">
        <ele>1652.3</ele>
        <time>2018-06-10T11:07:42Z</time>
      </trkpt>
      <trkpt lat="44.10178" lon="7.02143">
        <ele>1652.7</ele>
        <time>2018-06-10T11:07:47Z</time>
      </trkpt>
      <trkpt lat="44.10168" lon="7.02141">
        <ele>1653.5</ele>
        <time>2018-06-10T11:07:59Z</time>
      </trkpt>
      <trkpt lat="44.10162" lon="7.0214">
        <ele>1653.8</ele>
        <time>2018-06-10T11:08:06Z</time>
      </trkpt>
      <trkpt lat="44.10162" lon="7.0214">
        <ele>1653.9</ele>
        <time>2018-06-10T11:08:08Z</time>
      </trkpt>
      <trkpt lat="44.10156" lon="7.02141">
        <ele>1654.3</ele>
        <time>2018-06-10T11:08:15Z</time>
      </trkpt>
      <trkpt lat="44.10146" lon="7.02139">
        <ele>1655.1</ele>
        <time>2018-06-10T11:08:23Z</time>
      </trkpt>
      <trkpt lat="44.1014" lon="7.02137">
        <ele>1655.5</ele>
        <time>2018-06-10T11:08:31Z</time>
      </trkpt>
      <trkpt lat="44.10132" lon="7.02139">
        <ele>1656.1</ele>
        <time>2018-06-10T11:08:40Z</time>
      </trkpt>
      <trkpt lat="44.10128" lon="7.0214">
        <ele>1656.4</ele>
        <time>2018-06-10T11:08:44Z</time>
      </trkpt>
      <trkpt lat="44.10125" lon="7.02141">
        <ele>1656.6</ele>
        <time>2018-06-10T11:08:47Z</time>
      </trkpt>
      <trkpt lat="44.10124" lon="7.02168">
        <ele>1658</ele>
        <time>2018-06-10T11:08:59Z</time>
      </trkpt>
      <trkpt lat="44.10122" lon="7.02179">
        <ele>1660.2</ele>
        <time>2018-06-10T11:09:06Z</time>
      </trkpt>
      <trkpt lat="44.10121" lon="7.02185">
        <ele>1661.3</ele>
        <time>2018-06-10T11:09:10Z</time>
      </trkpt>
      <trkpt lat="44.10119" lon="7.02191">
        <ele>1662.4</ele>
        <time>2018-06-10T11:09:15Z</time>
      </trkpt>
      <trkpt lat="44.10114" lon="7.02205">
        <ele>1663.6</ele>
        <time>2018-06-10T11:09:26Z</time>
      </trkpt>
      <trkpt lat="44.10105" lon="7.02217">
        <ele>1665.2</ele>
        <time>2018-06-10T11:09:40Z</time>
      </trkpt>
      <trkpt lat="44.10098" lon="7.02221">
        <ele>1665.8</ele>
        <time>2018-06-10T11:09:48Z</time>
      </trkpt>
      <trkpt lat="44.10095" lon="7.02225">
        <ele>1666.1</ele>
        <time>2018-06-10T11:09:55Z</time>
      </trkpt>
      <trkpt lat="44.10089" lon="7.02229">
        <ele>1666.4</ele>
        <time>2018-06-10T11:10:02Z</time>
      </trkpt>
      <trkpt lat="44.10085" lon="7.02233">
        <ele>1666.8</ele>
        <time>2018-06-10T11:10:09Z</time>
      </trkpt>
      <trkpt lat="44.10082" lon="7.02238">
        <ele>1667.2</ele>
        <time>2018-06-10T11:10:14Z</time>
      </trkpt>
      <trkpt lat="44.10077" lon="7.02244">
        <ele>1668.5</ele>
        <time>2018-06-10T11:10:23Z</time>
      </trkpt>
      <trkpt lat="44.1007" lon="7.02248">
        <ele>1669.5</ele>
        <time>2018-06-10T11:10:33Z</time>
      </trkpt>
      <trkpt lat="44.10065" lon="7.02251">
        <ele>1670.3</ele>
        <time>2018-06-10T11:10:42Z</time>
      </trkpt>
      <trkpt lat="44.1006" lon="7.02256">
        <ele>1671.2</ele>
        <time>2018-06-10T11:10:50Z</time>
      </trkpt>
      <trkpt lat="44.10056" lon="7.02261">
        <ele>1672</ele>
        <time>2018-06-10T11:10:58Z</time>
      </trkpt>
      <trkpt lat="44.10049" lon="7.02264">
        <ele>1672.6</ele>
        <time>2018-06-10T11:11:07Z</time>
      </trkpt>
      <trkpt lat="44.10045" lon="7.02268">
        <ele>1672.9</ele>
        <time>2018-06-10T11:11:13Z</time>
      </trkpt>
      <trkpt lat="44.10043" lon="7.0227">
        <ele>1673.5</ele>
        <time>2018-06-10T11:11:18Z</time>
      </trkpt>
      <trkpt lat="44.1004" lon="7.02276">
        <ele>1674.3</ele>
        <time>2018-06-10T11:11:25Z</time>
      </trkpt>
      <trkpt lat="44.10037" lon="7.02279">
        <ele>1674.9</ele>
        <time>2018-06-10T11:11:31Z</time>
      </trkpt>
      <trkpt lat="44.10036" lon="7.02282">
        <ele>1675.1</ele>
        <time>2018-06-10T11:11:36Z</time>
      </trkpt>
      <trkpt lat="44.10036" lon="7.02284">
        <ele>1675.2</ele>
        <time>2018-06-10T11:11:38Z</time>
      </trkpt>
      <trkpt lat="44.10036" lon="7.02288">
        <ele>1675.5</ele>
        <time>2018-06-10T11:11:43Z</time>
      </trkpt>
      <trkpt lat="44.10031" lon="7.02292">
        <ele>1676.2</ele>
        <time>2018-06-10T11:11:50Z</time>
      </trkpt>
      <trkpt lat="44.10025" lon="7.02286">
        <ele>1677.1</ele>
        <time>2018-06-10T11:11:55Z</time>
      </trkpt>
      <trkpt lat="44.1002" lon="7.0228">
        <ele>1676.4</ele>
        <time>2018-06-10T11:11:59Z</time>
      </trkpt>
      <trkpt lat="44.10016" lon="7.02274">
        <ele>1676.8</ele>
        <time>2018-06-10T11:12:03Z</time>
      </trkpt>
      <trkpt lat="44.10015" lon="7.02273">
        <ele>1677</ele>
        <time>2018-06-10T11:12:04Z</time>
      </trkpt>
      <trkpt lat="44.10003" lon="7.0227">
        <ele>1678.6</ele>
        <time>2018-06-10T11:12:15Z</time>
      </trkpt>
      <trkpt lat="44.09994" lon="7.02268">
        <ele>1679.4</ele>
        <time>2018-06-10T11:12:22Z</time>
      </trkpt>
      <trkpt lat="44.09986" lon="7.02267">
        <ele>1680.5</ele>
        <time>2018-06-10T11:12:28Z</time>
      </trkpt>
      <trkpt lat="44.09975" lon="7.02265">
        <ele>1682.1</ele>
        <time>2018-06-10T11:12:36Z</time>
      </trkpt>
      <trkpt lat="44.09969" lon="7.02267">
        <ele>1683.3</ele>
        <time>2018-06-10T11:12:41Z</time>
      </trkpt>
      <trkpt lat="44.09966" lon="7.02271">
        <ele>1683.9</ele>
        <time>2018-06-10T11:12:44Z</time>
      </trkpt>
      <trkpt lat="44.09965" lon="7.02272">
        <ele>1684.1</ele>
        <time>2018-06-10T11:12:45Z</time>
      </trkpt>
      <trkpt lat="44.09927" lon="7.02282">
        <ele>1687.3</ele>
        <time>2018-06-10T11:13:06Z</time>
      </trkpt>
      <trkpt lat="44.09924" lon="7.02277">
        <ele>1688</ele>
        <time>2018-06-10T11:13:11Z</time>
      </trkpt>
      <trkpt lat="44.09924" lon="7.02276">
        <ele>1688.1</ele>
        <time>2018-06-10T11:14:27Z</time>
      </trkpt>
      <trkpt lat="44.0992" lon="7.02267">
        <ele>1689.1</ele>
        <time>2018-06-10T11:14:36Z</time>
      </trkpt>
      <trkpt lat="44.09913" lon="7.02257">
        <ele>1690.5</ele>
        <time>2018-06-10T11:14:46Z</time>
      </trkpt>
      <trkpt lat="44.09907" lon="7.02251">
        <ele>1691.5</ele>
        <time>2018-06-10T11:14:54Z</time>
      </trkpt>
      <trkpt lat="44.09903" lon="7.02246">
        <ele>1692.2</ele>
        <time>2018-06-10T11:15:00Z</time>
      </trkpt>
      <trkpt lat="44.09899" lon="7.0224">
        <ele>1693.1</ele>
        <time>2018-06-10T11:15:06Z</time>
      </trkpt>
      <trkpt lat="44.09895" lon="7.0223">
        <ele>1694.1</ele>
        <time>2018-06-10T11:15:14Z</time>
      </trkpt>
      <trkpt lat="44.0989" lon="7.0222">
        <ele>1695.6</ele>
        <time>2018-06-10T11:15:23Z</time>
      </trkpt>
      <trkpt lat="44.09884" lon="7.02203">
        <ele>1698.1</ele>
        <time>2018-06-10T11:15:36Z</time>
      </trkpt>
      <trkpt lat="44.09882" lon="7.02197">
        <ele>1698.9</ele>
        <time>2018-06-10T11:15:41Z</time>
      </trkpt>
      <trkpt lat="44.0988" lon="7.02182">
        <ele>1700.6</ele>
        <time>2018-06-10T11:15:51Z</time>
      </trkpt>
      <trkpt lat="44.09873" lon="7.02167">
        <ele>1702.5</ele>
        <time>2018-06-10T11:16:04Z</time>
      </trkpt>
      <trkpt lat="44.09869" lon="7.02161">
        <ele>1703.7</ele>
        <time>2018-06-10T11:16:11Z</time>
      </trkpt>
      <trkpt lat="44.09865" lon="7.02158">
        <ele>1704.8</ele>
        <time>2018-06-10T11:16:17Z</time>
      </trkpt>
      <trkpt lat="44.09858" lon="7.02154">
        <ele>1706.4</ele>
        <time>2018-06-10T11:16:25Z</time>
      </trkpt>
      <trkpt lat="44.09853" lon="7.02154">
        <ele>1707.7</ele>
        <time>2018-06-10T11:16:31Z</time>
      </trkpt>
      <trkpt lat="44.09847" lon="7.02154">
        <ele>1708.7</ele>
        <time>2018-06-10T11:16:36Z</time>
      </trkpt>
      <trkpt lat="44.09846" lon="7.02154">
        <ele>1708.8</ele>
        <time>2018-06-10T11:16:37Z</time>
      </trkpt>
      <trkpt lat="44.0984" lon="7.02153">
        <ele>1709.6</ele>
        <time>2018-06-10T11:16:43Z</time>
      </trkpt>
      <trkpt lat="44.09832" lon="7.02154">
        <ele>1710.9</ele>
        <time>2018-06-10T11:16:50Z</time>
      </trkpt>
      <trkpt lat="44.09825" lon="7.02154">
        <ele>1712</ele>
        <time>2018-06-10T11:16:57Z</time>
      </trkpt>
      <trkpt lat="44.09818" lon="7.02155">
        <ele>1713.1</ele>
        <time>2018-06-10T11:17:04Z</time>
      </trkpt>
      <trkpt lat="44.09812" lon="7.02156">
        <ele>1713.9</ele>
        <time>2018-06-10T11:17:31Z</time>
      </trkpt>
      <trkpt lat="44.09803" lon="7.02161">
        <ele>1714.4</ele>
        <time>2018-06-10T11:17:46Z</time>
      </trkpt>
      <trkpt lat="44.098" lon="7.02164">
        <ele>1714.7</ele>
        <time>2018-06-10T11:17:50Z</time>
      </trkpt>
      <trkpt lat="44.09771" lon="7.0217">
        <ele>1717.5</ele>
        <time>2018-06-10T11:18:14Z</time>
      </trkpt>
      <trkpt lat="44.09759" lon="7.02167">
        <ele>1718.5</ele>
        <time>2018-06-10T11:18:25Z</time>
      </trkpt>
      <trkpt lat="44.09752" lon="7.02164">
        <ele>1718.5</ele>
        <time>2018-06-10T11:18:31Z</time>
      </trkpt>
      <trkpt lat="44.09745" lon="7.0216">
        <ele>1719.1</ele>
        <time>2018-06-10T11:18:39Z</time>
      </trkpt>
      <trkpt lat="44.09736" lon="7.02155">
        <ele>1720.6</ele>
        <time>2018-06-10T11:18:48Z</time>
      </trkpt>
      <trkpt lat="44.09735" lon="7.02155">
        <ele>1720.7</ele>
        <time>2018-06-10T11:18:49Z</time>
      </trkpt>
      <trkpt lat="44.09701" lon="7.0214">
        <ele>1725.5</ele>
        <time>2018-06-10T11:19:09Z</time>
      </trkpt>
      <trkpt lat="44.09691" lon="7.02136">
        <ele>1726.4</ele>
        <time>2018-06-10T11:19:15Z</time>
      </trkpt>
      <trkpt lat="44.09675" lon="7.02135">
        <ele>1727.5</ele>
        <time>2018-06-10T11:19:23Z</time>
      </trkpt>
      <trkpt lat="44.09657" lon="7.02133">
        <ele>1728.8</ele>
        <time>2018-06-10T11:19:33Z</time>
      </trkpt>
      <trkpt lat="44.09643" lon="7.02134">
        <ele>1729.9</ele>
        <time>2018-06-10T11:19:44Z</time>
      </trkpt>
      <trkpt lat="44.09637" lon="7.02132">
        <ele>1730.3</ele>
        <time>2018-06-10T11:19:50Z</time>
      </trkpt>
      <trkpt lat="44.09629" lon="7.02131">
        <ele>1731</ele>
        <time>2018-06-10T11:19:57Z</time>
      </trkpt>
      <trkpt lat="44.09621" lon="7.0213">
        <ele>1732</ele>
        <time>2018-06-10T11:20:06Z</time>
      </trkpt>
      <trkpt lat="44.09615" lon="7.02129">
        <ele>1732.6</ele>
        <time>2018-06-10T11:20:12Z</time>
      </trkpt>
      <trkpt lat="44.0961" lon="7.02128">
        <ele>1733.1</ele>
        <time>2018-06-10T11:20:17Z</time>
      </trkpt>
      <trkpt lat="44.09609" lon="7.02128">
        <ele>1733.2</ele>
        <time>2018-06-10T11:20:18Z</time>
      </trkpt>
      <trkpt lat="44.096" lon="7.02134">
        <ele>1734.5</ele>
        <time>2018-06-10T11:20:26Z</time>
      </trkpt>
      <trkpt lat="44.09592" lon="7.02144">
        <ele>1735.7</ele>
        <time>2018-06-10T11:20:36Z</time>
      </trkpt>
      <trkpt lat="44.09582" lon="7.02157">
        <ele>1738.1</ele>
        <time>2018-06-10T11:20:50Z</time>
      </trkpt>
      <trkpt lat="44.09548" lon="7.02217">
        <ele>1737</ele>
        <time>2018-06-10T11:21:20Z</time>
      </trkpt>
      <trkpt lat="44.09534" lon="7.02221">
        <ele>1738.6</ele>
        <time>2018-06-10T11:21:25Z</time>
      </trkpt>
      <trkpt lat="44.09485" lon="7.02228">
        <ele>1742.1</ele>
        <time>2018-06-10T11:21:46Z</time>
      </trkpt>
      <trkpt lat="44.09465" lon="7.0223">
        <ele>1743.8</ele>
        <time>2018-06-10T11:21:55Z</time>
      </trkpt>
      <trkpt lat="44.09452" lon="7.0223">
        <ele>1745.2</ele>
        <time>2018-06-10T11:22:02Z</time>
      </trkpt>
      <trkpt lat="44.09439" lon="7.02226">
        <ele>1747.2</ele>
        <time>2018-06-10T11:22:09Z</time>
      </trkpt>
      <trkpt lat="44.09413" lon="7.02203">
        <ele>1751.5</ele>
        <time>2018-06-10T11:22:26Z</time>
      </trkpt>
      <trkpt lat="44.09407" lon="7.0219">
        <ele>1753.2</ele>
        <time>2018-06-10T11:22:40Z</time>
      </trkpt>
      <trkpt lat="44.09405" lon="7.02184">
        <ele>1754.2</ele>
        <time>2018-06-10T11:22:45Z</time>
      </trkpt>
      <trkpt lat="44.09404" lon="7.02183">
        <ele>1754.4</ele>
        <time>2018-06-10T11:22:46Z</time>
      </trkpt>
      <trkpt lat="44.09401" lon="7.02177">
        <ele>1755.2</ele>
        <time>2018-06-10T11:22:53Z</time>
      </trkpt>
      <trkpt lat="44.09399" lon="7.02172">
        <ele>1755.8</ele>
        <time>2018-06-10T11:22:58Z</time>
      </trkpt>
      <trkpt lat="44.09397" lon="7.02165">
        <ele>1756.3</ele>
        <time>2018-06-10T11:23:04Z</time>
      </trkpt>
      <trkpt lat="44.09396" lon="7.02159">
        <ele>1757.1</ele>
        <time>2018-06-10T11:23:10Z</time>
      </trkpt>
      <trkpt lat="44.09394" lon="7.02152">
        <ele>1757.5</ele>
        <time>2018-06-10T11:23:17Z</time>
      </trkpt>
      <trkpt lat="44.09391" lon="7.02145">
        <ele>1758</ele>
        <time>2018-06-10T11:23:23Z</time>
      </trkpt>
      <trkpt lat="44.09389" lon="7.02138">
        <ele>1758.5</ele>
        <time>2018-06-10T11:23:29Z</time>
      </trkpt>
      <trkpt lat="44.09384" lon="7.02134">
        <ele>1759</ele>
        <time>2018-06-10T11:23:35Z</time>
      </trkpt>
      <trkpt lat="44.0938" lon="7.02131">
        <ele>1759.3</ele>
        <time>2018-06-10T11:23:40Z</time>
      </trkpt>
      <trkpt lat="44.09376" lon="7.02132">
        <ele>1759.5</ele>
        <time>2018-06-10T11:23:45Z</time>
      </trkpt>
      <trkpt lat="44.09371" lon="7.0213">
        <ele>1759.8</ele>
        <time>2018-06-10T11:23:51Z</time>
      </trkpt>
      <trkpt lat="44.09366" lon="7.02129">
        <ele>1760.5</ele>
        <time>2018-06-10T11:23:56Z</time>
      </trkpt>
      <trkpt lat="44.09361" lon="7.02129">
        <ele>1761.2</ele>
        <time>2018-06-10T11:24:01Z</time>
      </trkpt>
      <trkpt lat="44.09355" lon="7.02128">
        <ele>1761.4</ele>
        <time>2018-06-10T11:24:08Z</time>
      </trkpt>
      <trkpt lat="44.0935" lon="7.0213">
        <ele>1762.3</ele>
        <time>2018-06-10T11:24:14Z</time>
      </trkpt>
      <trkpt lat="44.09345" lon="7.02131">
        <ele>1762.7</ele>
        <time>2018-06-10T11:24:21Z</time>
      </trkpt>
      <trkpt lat="44.09341" lon="7.02129">
        <ele>1763.2</ele>
        <time>2018-06-10T11:24:27Z</time>
      </trkpt>
      <trkpt lat="44.09334" lon="7.02128">
        <ele>1764.8</ele>
        <time>2018-06-10T11:24:35Z</time>
      </trkpt>
      <trkpt lat="44.09325" lon="7.02125">
        <ele>1767.3</ele>
        <time>2018-06-10T11:24:45Z</time>
      </trkpt>
      <trkpt lat="44.09313" lon="7.0212">
        <ele>1769.8</ele>
        <time>2018-06-10T11:24:57Z</time>
      </trkpt>
      <trkpt lat="44.09304" lon="7.02114">
        <ele>1772.7</ele>
        <time>2018-06-10T11:25:06Z</time>
      </trkpt>
      <trkpt lat="44.09295" lon="7.02109">
        <ele>1775.4</ele>
        <time>2018-06-10T11:25:15Z</time>
      </trkpt>
      <trkpt lat="44.09288" lon="7.02105">
        <ele>1776.6</ele>
        <time>2018-06-10T11:25:23Z</time>
      </trkpt>
      <trkpt lat="44.09284" lon="7.02104">
        <ele>1777.4</ele>
        <time>2018-06-10T11:25:28Z</time>
      </trkpt>
      <trkpt lat="44.09279" lon="7.02104">
        <ele>1778.6</ele>
        <time>2018-06-10T11:25:34Z</time>
      </trkpt>
      <trkpt lat="44.09272" lon="7.02106">
        <ele>1780.6</ele>
        <time>2018-06-10T11:25:42Z</time>
      </trkpt>
      <trkpt lat="44.09259" lon="7.02107">
        <ele>1783.5</ele>
        <time>2018-06-10T11:25:52Z</time>
      </trkpt>
      <trkpt lat="44.09246" lon="7.02107">
        <ele>1786.2</ele>
        <time>2018-06-10T11:26:03Z</time>
      </trkpt>
      <trkpt lat="44.09245" lon="7.02106">
        <ele>1786.3</ele>
        <time>2018-06-10T11:26:04Z</time>
      </trkpt>
      <trkpt lat="44.09234" lon="7.02105">
        <ele>1788.4</ele>
        <time>2018-06-10T11:26:14Z</time>
      </trkpt>
      <trkpt lat="44.09219" lon="7.02102">
        <ele>1792.1</ele>
        <time>2018-06-10T11:26:28Z</time>
      </trkpt>
      <trkpt lat="44.09209" lon="7.02101">
        <ele>1794.3</ele>
        <time>2018-06-10T11:26:37Z</time>
      </trkpt>
      <trkpt lat="44.092" lon="7.02101">
        <ele>1796</ele>
        <time>2018-06-10T11:26:46Z</time>
      </trkpt>
      <trkpt lat="44.09194" lon="7.02099">
        <ele>1797.5</ele>
        <time>2018-06-10T11:26:54Z</time>
      </trkpt>
      <trkpt lat="44.09186" lon="7.02098">
        <ele>1799.2</ele>
        <time>2018-06-10T11:27:04Z</time>
      </trkpt>
      <trkpt lat="44.09173" lon="7.02097">
        <ele>1801.6</ele>
        <time>2018-06-10T11:27:12Z</time>
      </trkpt>
      <trkpt lat="44.09166" lon="7.02095">
        <ele>1803.1</ele>
        <time>2018-06-10T11:27:21Z</time>
      </trkpt>
      <trkpt lat="44.09161" lon="7.02096">
        <ele>1804</ele>
        <time>2018-06-10T11:27:30Z</time>
      </trkpt>
      <trkpt lat="44.09155" lon="7.021">
        <ele>1804.5</ele>
        <time>2018-06-10T11:27:38Z</time>
      </trkpt>
      <trkpt lat="44.09151" lon="7.02109">
        <ele>1804.9</ele>
        <time>2018-06-10T11:27:44Z</time>
      </trkpt>
      <trkpt lat="44.09149" lon="7.02119">
        <ele>1804.6</ele>
        <time>2018-06-10T11:27:51Z</time>
      </trkpt>
      <trkpt lat="44.09148" lon="7.02126">
        <ele>1804.2</ele>
        <time>2018-06-10T11:27:57Z</time>
      </trkpt>
      <trkpt lat="44.09145" lon="7.02132">
        <ele>1803.8</ele>
        <time>2018-06-10T11:28:03Z</time>
      </trkpt>
      <trkpt lat="44.09145" lon="7.02139">
        <ele>1803.6</ele>
        <time>2018-06-10T11:28:09Z</time>
      </trkpt>
      <trkpt lat="44.09141" lon="7.02145">
        <ele>1803.2</ele>
        <time>2018-06-10T11:28:15Z</time>
      </trkpt>
      <trkpt lat="44.09138" lon="7.0215">
        <ele>1802.7</ele>
        <time>2018-06-10T11:28:19Z</time>
      </trkpt>
      <trkpt lat="44.09135" lon="7.02154">
        <ele>1802.4</ele>
        <time>2018-06-10T11:28:22Z</time>
      </trkpt>
      <trkpt lat="44.0913" lon="7.02164">
        <ele>1801.3</ele>
        <time>2018-06-10T11:28:30Z</time>
      </trkpt>
      <trkpt lat="44.09127" lon="7.02172">
        <ele>1800.2</ele>
        <time>2018-06-10T11:28:36Z</time>
      </trkpt>
      <trkpt lat="44.09124" lon="7.02181">
        <ele>1799.3</ele>
        <time>2018-06-10T11:28:44Z</time>
      </trkpt>
      <trkpt lat="44.09119" lon="7.02191">
        <ele>1797.9</ele>
        <time>2018-06-10T11:28:53Z</time>
      </trkpt>
      <trkpt lat="44.09113" lon="7.02195">
        <ele>1798.7</ele>
        <time>2018-06-10T11:29:01Z</time>
      </trkpt>
      <trkpt lat="44.09106" lon="7.02193">
        <ele>1800</ele>
        <time>2018-06-10T11:29:09Z</time>
      </trkpt>
      <trkpt lat="44.09102" lon="7.02189">
        <ele>1801.2</ele>
        <time>2018-06-10T11:29:16Z</time>
      </trkpt>
      <trkpt lat="44.09097" lon="7.02187">
        <ele>1802.5</ele>
        <time>2018-06-10T11:29:23Z</time>
      </trkpt>
      <trkpt lat="44.09091" lon="7.02188">
        <ele>1803.4</ele>
        <time>2018-06-10T11:29:29Z</time>
      </trkpt>
      <trkpt lat="44.09085" lon="7.0219">
        <ele>1804.4</ele>
        <time>2018-06-10T11:29:35Z</time>
      </trkpt>
      <trkpt lat="44.09076" lon="7.02195">
        <ele>1805.8</ele>
        <time>2018-06-10T11:29:44Z</time>
      </trkpt>
      <trkpt lat="44.09064" lon="7.02202">
        <ele>1806.8</ele>
        <time>2018-06-10T11:29:53Z</time>
      </trkpt>
      <trkpt lat="44.09061" lon="7.02204">
        <ele>1807.1</ele>
        <time>2018-06-10T11:29:55Z</time>
      </trkpt>
      <trkpt lat="44.09057" lon="7.02206">
        <ele>1807.5</ele>
        <time>2018-06-10T11:29:59Z</time>
      </trkpt>
      <trkpt lat="44.09052" lon="7.02209">
        <ele>1807.7</ele>
        <time>2018-06-10T11:30:04Z</time>
      </trkpt>
      <trkpt lat="44.09045" lon="7.02214">
        <ele>1807.8</ele>
        <time>2018-06-10T11:30:12Z</time>
      </trkpt>
      <trkpt lat="44.0904" lon="7.02215">
        <ele>1808.5</ele>
        <time>2018-06-10T11:30:19Z</time>
      </trkpt>
      <trkpt lat="44.09039" lon="7.02215">
        <ele>1808.7</ele>
        <time>2018-06-10T11:30:21Z</time>
      </trkpt>
      <trkpt lat="44.09036" lon="7.02214">
        <ele>1809</ele>
        <time>2018-06-10T11:30:23Z</time>
      </trkpt>
      <trkpt lat="44.09031" lon="7.02212">
        <ele>1809.5</ele>
        <time>2018-06-10T11:30:27Z</time>
      </trkpt>
      <trkpt lat="44.09012" lon="7.02201">
        <ele>1811</ele>
        <time>2018-06-10T11:30:38Z</time>
      </trkpt>
      <trkpt lat="44.08996" lon="7.02185">
        <ele>1813</ele>
        <time>2018-06-10T11:30:50Z</time>
      </trkpt>
      <trkpt lat="44.0899" lon="7.0218">
        <ele>1813.3</ele>
        <time>2018-06-10T11:30:58Z</time>
      </trkpt>
      <trkpt lat="44.08987" lon="7.02179">
        <ele>1813.3</ele>
        <time>2018-06-10T11:58:27Z</time>
      </trkpt>
      <trkpt lat="44.08977" lon="7.02183">
        <ele>1812.9</ele>
        <time>2018-06-10T11:58:30Z</time>
      </trkpt>
      <trkpt lat="44.0897" lon="7.02186">
        <ele>1812</ele>
        <time>2018-06-10T11:58:32Z</time>
      </trkpt>
      <trkpt lat="44.08953" lon="7.02202">
        <ele>1807.2</ele>
        <time>2018-06-10T11:58:36Z</time>
      </trkpt>
      <trkpt lat="44.0895" lon="7.02231">
        <ele>1801.5</ele>
        <time>2018-06-10T11:58:40Z</time>
      </trkpt>
      <trkpt lat="44.08949" lon="7.02245">
        <ele>1798.5</ele>
        <time>2018-06-10T11:58:42Z</time>
      </trkpt>
      <trkpt lat="44.08941" lon="7.02253">
        <ele>1795</ele>
        <time>2018-06-10T11:58:44Z</time>
      </trkpt>
      <trkpt lat="44.08931" lon="7.02252">
        <ele>1792.2</ele>
        <time>2018-06-10T11:58:45Z</time>
      </trkpt>
      <trkpt lat="44.08922" lon="7.02252">
        <ele>1789.4</ele>
        <time>2018-06-10T11:58:46Z</time>
      </trkpt>
      <trkpt lat="44.08912" lon="7.02253">
        <ele>1786.5</ele>
        <time>2018-06-10T11:58:47Z</time>
      </trkpt>
      <trkpt lat="44.08903" lon="7.02254">
        <ele>1783.9</ele>
        <time>2018-06-10T11:58:48Z</time>
      </trkpt>
      <trkpt lat="44.08893" lon="7.02257">
        <ele>1781.6</ele>
        <time>2018-06-10T11:58:49Z</time>
      </trkpt>
      <trkpt lat="44.08885" lon="7.02263">
        <ele>1779.2</ele>
        <time>2018-06-10T11:58:50Z</time>
      </trkpt>
      <trkpt lat="44.08878" lon="7.02271">
        <ele>1777.8</ele>
        <time>2018-06-10T11:58:51Z</time>
      </trkpt>
      <trkpt lat="44.08873" lon="7.02277">
        <ele>1776.7</ele>
        <time>2018-06-10T11:58:52Z</time>
      </trkpt>
      <trkpt lat="44.08868" lon="7.02283">
        <ele>1775.6</ele>
        <time>2018-06-10T11:58:53Z</time>
      </trkpt>
      <trkpt lat="44.08855" lon="7.02288">
        <ele>1772.3</ele>
        <time>2018-06-10T11:58:55Z</time>
      </trkpt>
      <trkpt lat="44.08841" lon="7.02285">
        <ele>1769.1</ele>
        <time>2018-06-10T11:58:57Z</time>
      </trkpt>
      <trkpt lat="44.08834" lon="7.0228">
        <ele>1767.7</ele>
        <time>2018-06-10T11:58:58Z</time>
      </trkpt>
      <trkpt lat="44.08828" lon="7.02274">
        <ele>1768.2</ele>
        <time>2018-06-10T11:58:59Z</time>
      </trkpt>
      <trkpt lat="44.08822" lon="7.02267">
        <ele>1768</ele>
        <time>2018-06-10T11:59:00Z</time>
      </trkpt>
      <trkpt lat="44.08818" lon="7.02259">
        <ele>1768.8</ele>
        <time>2018-06-10T11:59:01Z</time>
      </trkpt>
      <trkpt lat="44.08814" lon="7.02252">
        <ele>1769.8</ele>
        <time>2018-06-10T11:59:02Z</time>
      </trkpt>
      <trkpt lat="44.08808" lon="7.02238">
        <ele>1770.9</ele>
        <time>2018-06-10T11:59:04Z</time>
      </trkpt>
      <trkpt lat="44.08792" lon="7.02217">
        <ele>1770.5</ele>
        <time>2018-06-10T11:59:08Z</time>
      </trkpt>
      <trkpt lat="44.08772" lon="7.02254">
        <ele>1763.6</ele>
        <time>2018-06-10T11:59:19Z</time>
      </trkpt>
      <trkpt lat="44.08765" lon="7.02267">
        <ele>1760.9</ele>
        <time>2018-06-10T11:59:21Z</time>
      </trkpt>
      <trkpt lat="44.08759" lon="7.02282">
        <ele>1758.4</ele>
        <time>2018-06-10T11:59:23Z</time>
      </trkpt>
      <trkpt lat="44.08754" lon="7.02294">
        <ele>1755.4</ele>
        <time>2018-06-10T11:59:25Z</time>
      </trkpt>
      <trkpt lat="44.08749" lon="7.02306">
        <ele>1752.3</ele>
        <time>2018-06-10T11:59:27Z</time>
      </trkpt>
      <trkpt lat="44.08746" lon="7.02317">
        <ele>1751.2</ele>
        <time>2018-06-10T11:59:29Z</time>
      </trkpt>
      <trkpt lat="44.08742" lon="7.0233">
        <ele>1749.2</ele>
        <time>2018-06-10T11:59:31Z</time>
      </trkpt>
      <trkpt lat="44.0874" lon="7.02336">
        <ele>1748.1</ele>
        <time>2018-06-10T11:59:32Z</time>
      </trkpt>
      <trkpt lat="44.08738" lon="7.02348">
        <ele>1746.2</ele>
        <time>2018-06-10T11:59:34Z</time>
      </trkpt>
      <trkpt lat="44.08735" lon="7.02352">
        <ele>1745.6</ele>
        <time>2018-06-10T11:59:35Z</time>
      </trkpt>
      <trkpt lat="44.08733" lon="7.02355">
        <ele>1745</ele>
        <time>2018-06-10T11:59:36Z</time>
      </trkpt>
      <trkpt lat="44.0873" lon="7.02358">
        <ele>1744.3</ele>
        <time>2018-06-10T11:59:37Z</time>
      </trkpt>
      <trkpt lat="44.08727" lon="7.0236">
        <ele>1743</ele>
        <time>2018-06-10T11:59:38Z</time>
      </trkpt>
      <trkpt lat="44.08724" lon="7.02363">
        <ele>1743</ele>
        <time>2018-06-10T11:59:39Z</time>
      </trkpt>
      <trkpt lat="44.08722" lon="7.02364">
        <ele>1743</ele>
        <time>2018-06-10T11:59:40Z</time>
      </trkpt>
      <trkpt lat="44.08719" lon="7.02364">
        <ele>1743</ele>
        <time>2018-06-10T11:59:41Z</time>
      </trkpt>
      <trkpt lat="44.08716" lon="7.02366">
        <ele>1743</ele>
        <time>2018-06-10T11:59:42Z</time>
      </trkpt>
      <trkpt lat="44.08712" lon="7.02368">
        <ele>1743</ele>
        <time>2018-06-10T11:59:43Z</time>
      </trkpt>
      <trkpt lat="44.08709" lon="7.0237">
        <ele>1743</ele>
        <time>2018-06-10T11:59:44Z</time>
      </trkpt>
      <trkpt lat="44.08706" lon="7.02373">
        <ele>1743</ele>
        <time>2018-06-10T11:59:45Z</time>
      </trkpt>
      <trkpt lat="44.08703" lon="7.02383">
        <ele>1743</ele>
        <time>2018-06-10T11:59:47Z</time>
      </trkpt>
      <trkpt lat="44.08701" lon="7.02388">
        <ele>1743</ele>
        <time>2018-06-10T11:59:48Z</time>
      </trkpt>
      <trkpt lat="44.08691" lon="7.02401">
        <ele>1738.4</ele>
        <time>2018-06-10T11:59:50Z</time>
      </trkpt>
      <trkpt lat="44.08681" lon="7.02418">
        <ele>1734</ele>
        <time>2018-06-10T11:59:52Z</time>
      </trkpt>
      <trkpt lat="44.08681" lon="7.02429">
        <ele>1732.3</ele>
        <time>2018-06-10T11:59:54Z</time>
      </trkpt>
      <trkpt lat="44.08681" lon="7.02436">
        <ele>1730.6</ele>
        <time>2018-06-10T11:59:55Z</time>
      </trkpt>
      <trkpt lat="44.08681" lon="7.02441">
        <ele>1729.8</ele>
        <time>2018-06-10T11:59:56Z</time>
      </trkpt>
      <trkpt lat="44.08679" lon="7.02444">
        <ele>1729.2</ele>
        <time>2018-06-10T11:59:57Z</time>
      </trkpt>
      <trkpt lat="44.08675" lon="7.02446">
        <ele>1729.1</ele>
        <time>2018-06-10T11:59:58Z</time>
      </trkpt>
      <trkpt lat="44.08671" lon="7.02448">
        <ele>1727.7</ele>
        <time>2018-06-10T11:59:59Z</time>
      </trkpt>
      <trkpt lat="44.08667" lon="7.02449">
        <ele>1727.6</ele>
        <time>2018-06-10T12:00:00Z</time>
      </trkpt>
      <trkpt lat="44.08661" lon="7.02451">
        <ele>1727.2</ele>
        <time>2018-06-10T12:00:01Z</time>
      </trkpt>
      <trkpt lat="44.08655" lon="7.02453">
        <ele>1726</ele>
        <time>2018-06-10T12:00:02Z</time>
      </trkpt>
      <trkpt lat="44.08649" lon="7.02453">
        <ele>1725.7</ele>
        <time>2018-06-10T12:00:03Z</time>
      </trkpt>
      <trkpt lat="44.08643" lon="7.02454">
        <ele>1725.4</ele>
        <time>2018-06-10T12:00:04Z</time>
      </trkpt>
      <trkpt lat="44.08636" lon="7.02456">
        <ele>1724.4</ele>
        <time>2018-06-10T12:00:05Z</time>
      </trkpt>
      <trkpt lat="44.0863" lon="7.02456">
        <ele>1724.1</ele>
        <time>2018-06-10T12:00:06Z</time>
      </trkpt>
      <trkpt lat="44.08615" lon="7.02455">
        <ele>1723.9</ele>
        <time>2018-06-10T12:00:08Z</time>
      </trkpt>
      <trkpt lat="44.08601" lon="7.02452">
        <ele>1723.1</ele>
        <time>2018-06-10T12:00:10Z</time>
      </trkpt>
      <trkpt lat="44.08573" lon="7.02482">
        <ele>1718.9</ele>
        <time>2018-06-10T12:00:15Z</time>
      </trkpt>
      <trkpt lat="44.08568" lon="7.02492">
        <ele>1717.6</ele>
        <time>2018-06-10T12:00:16Z</time>
      </trkpt>
      <trkpt lat="44.08562" lon="7.02513">
        <ele>1714.7</ele>
        <time>2018-06-10T12:00:18Z</time>
      </trkpt>
      <trkpt lat="44.08557" lon="7.02531">
        <ele>1711.1</ele>
        <time>2018-06-10T12:00:20Z</time>
      </trkpt>
      <trkpt lat="44.08555" lon="7.02539">
        <ele>1710.2</ele>
        <time>2018-06-10T12:00:21Z</time>
      </trkpt>
      <trkpt lat="44.08546" lon="7.02552">
        <ele>1709.4</ele>
        <time>2018-06-10T12:00:23Z</time>
      </trkpt>
      <trkpt lat="44.08541" lon="7.02558">
        <ele>1709.1</ele>
        <time>2018-06-10T12:00:24Z</time>
      </trkpt>
      <trkpt lat="44.08535" lon="7.02563">
        <ele>1708.7</ele>
        <time>2018-06-10T12:00:25Z</time>
      </trkpt>
      <trkpt lat="44.08517" lon="7.02568">
        <ele>1709.7</ele>
        <time>2018-06-10T12:00:28Z</time>
      </trkpt>
      <trkpt lat="44.08489" lon="7.02583">
        <ele>1710.1</ele>
        <time>2018-06-10T12:00:32Z</time>
      </trkpt>
      <trkpt lat="44.0846" lon="7.02595">
        <ele>1710.6</ele>
        <time>2018-06-10T12:00:36Z</time>
      </trkpt>
      <trkpt lat="44.08433" lon="7.02598">
        <ele>1711</ele>
        <time>2018-06-10T12:00:41Z</time>
      </trkpt>
      <trkpt lat="44.0843" lon="7.02602">
        <ele>1711</ele>
        <time>2018-06-10T12:00:42Z</time>
      </trkpt>
      <trkpt lat="44.08423" lon="7.02608">
        <ele>1711.2</ele>
        <time>2018-06-10T12:00:44Z</time>
      </trkpt>
      <trkpt lat="44.08407" lon="7.02609">
        <ele>1711.3</ele>
        <time>2018-06-10T12:00:47Z</time>
      </trkpt>
      <trkpt lat="44.08397" lon="7.02611">
        <ele>1710.5</ele>
        <time>2018-06-10T12:00:49Z</time>
      </trkpt>
      <trkpt lat="44.0839" lon="7.02614">
        <ele>1709.8</ele>
        <time>2018-06-10T12:00:50Z</time>
      </trkpt>
      <trkpt lat="44.08377" lon="7.02622">
        <ele>1708.8</ele>
        <time>2018-06-10T12:00:52Z</time>
      </trkpt>
      <trkpt lat="44.08365" lon="7.02627">
        <ele>1708.1</ele>
        <time>2018-06-10T12:00:54Z</time>
      </trkpt>
      <trkpt lat="44.08355" lon="7.0263">
        <ele>1706.8</ele>
        <time>2018-06-10T12:00:56Z</time>
      </trkpt>
      <trkpt lat="44.08336" lon="7.02627">
        <ele>1705.7</ele>
        <time>2018-06-10T12:00:59Z</time>
      </trkpt>
      <trkpt lat="44.08323" lon="7.02624">
        <ele>1704.4</ele>
        <time>2018-06-10T12:01:01Z</time>
      </trkpt>
      <trkpt lat="44.08317" lon="7.02623">
        <ele>1703.2</ele>
        <time>2018-06-10T12:01:02Z</time>
      </trkpt>
      <trkpt lat="44.0829" lon="7.02617">
        <ele>1701.8</ele>
        <time>2018-06-10T12:01:06Z</time>
      </trkpt>
      <trkpt lat="44.0828" lon="7.02612">
        <ele>1700.5</ele>
        <time>2018-06-10T12:01:08Z</time>
      </trkpt>
      <trkpt lat="44.08272" lon="7.02604">
        <ele>1701</ele>
        <time>2018-06-10T12:01:10Z</time>
      </trkpt>
      <trkpt lat="44.08254" lon="7.02586">
        <ele>1700.8</ele>
        <time>2018-06-10T12:01:14Z</time>
      </trkpt>
      <trkpt lat="44.08247" lon="7.02581">
        <ele>1700.7</ele>
        <time>2018-06-10T12:01:15Z</time>
      </trkpt>
      <trkpt lat="44.08239" lon="7.02576">
        <ele>1700.1</ele>
        <time>2018-06-10T12:01:16Z</time>
      </trkpt>
      <trkpt lat="44.08222" lon="7.02567">
        <ele>1699.7</ele>
        <time>2018-06-10T12:01:18Z</time>
      </trkpt>
      <trkpt lat="44.08195" lon="7.02556">
        <ele>1698.1</ele>
        <time>2018-06-10T12:01:21Z</time>
      </trkpt>
      <trkpt lat="44.08185" lon="7.02554">
        <ele>1697.2</ele>
        <time>2018-06-10T12:01:22Z</time>
      </trkpt>
      <trkpt lat="44.08176" lon="7.02552">
        <ele>1696.2</ele>
        <time>2018-06-10T12:01:23Z</time>
      </trkpt>
      <trkpt lat="44.08159" lon="7.02548">
        <ele>1695.4</ele>
        <time>2018-06-10T12:01:25Z</time>
      </trkpt>
      <trkpt lat="44.08143" lon="7.02556">
        <ele>1694</ele>
        <time>2018-06-10T12:01:27Z</time>
      </trkpt>
      <trkpt lat="44.08136" lon="7.02563">
        <ele>1693.3</ele>
        <time>2018-06-10T12:01:28Z</time>
      </trkpt>
      <trkpt lat="44.08129" lon="7.02569">
        <ele>1692.2</ele>
        <time>2018-06-10T12:01:29Z</time>
      </trkpt>
      <trkpt lat="44.08122" lon="7.02578">
        <ele>1691.3</ele>
        <time>2018-06-10T12:01:30Z</time>
      </trkpt>
      <trkpt lat="44.08112" lon="7.02614">
        <ele>1689.1</ele>
        <time>2018-06-10T12:01:34Z</time>
      </trkpt>
      <trkpt lat="44.08111" lon="7.02624">
        <ele>1688.3</ele>
        <time>2018-06-10T12:01:35Z</time>
      </trkpt>
      <trkpt lat="44.08112" lon="7.02634">
        <ele>1687.7</ele>
        <time>2018-06-10T12:01:36Z</time>
      </trkpt>
      <trkpt lat="44.08141" lon="7.0265">
        <ele>1685.2</ele>
        <time>2018-06-10T12:01:41Z</time>
      </trkpt>
      <trkpt lat="44.08156" lon="7.02651">
        <ele>1684.7</ele>
        <time>2018-06-10T12:01:44Z</time>
      </trkpt>
      <trkpt lat="44.0816" lon="7.0266">
        <ele>1683.7</ele>
        <time>2018-06-10T12:01:46Z</time>
      </trkpt>
      <trkpt lat="44.08161" lon="7.02668">
        <ele>1682.8</ele>
        <time>2018-06-10T12:01:47Z</time>
      </trkpt>
      <trkpt lat="44.08163" lon="7.02686">
        <ele>1681.2</ele>
        <time>2018-06-10T12:01:49Z</time>
      </trkpt>
      <trkpt lat="44.08164" lon="7.02696">
        <ele>1679.6</ele>
        <time>2018-06-10T12:01:50Z</time>
      </trkpt>
      <trkpt lat="44.08165" lon="7.02706">
        <ele>1678.4</ele>
        <time>2018-06-10T12:01:51Z</time>
      </trkpt>
      <trkpt lat="44.08167" lon="7.02715">
        <ele>1677.1</ele>
        <time>2018-06-10T12:01:52Z</time>
      </trkpt>
      <trkpt lat="44.0817" lon="7.02723">
        <ele>1675.7</ele>
        <time>2018-06-10T12:01:53Z</time>
      </trkpt>
      <trkpt lat="44.08176" lon="7.02742">
        <ele>1673</ele>
        <time>2018-06-10T12:01:55Z</time>
      </trkpt>
      <trkpt lat="44.08174" lon="7.02759">
        <ele>1672.2</ele>
        <time>2018-06-10T12:01:57Z</time>
      </trkpt>
      <trkpt lat="44.08172" lon="7.02766">
        <ele>1671.4</ele>
        <time>2018-06-10T12:01:58Z</time>
      </trkpt>
      <trkpt lat="44.08169" lon="7.02782">
        <ele>1670</ele>
        <time>2018-06-10T12:02:00Z</time>
      </trkpt>
      <trkpt lat="44.08166" lon="7.0279">
        <ele>1669.6</ele>
        <time>2018-06-10T12:02:01Z</time>
      </trkpt>
      <trkpt lat="44.08165" lon="7.02797">
        <ele>1669.1</ele>
        <time>2018-06-10T12:02:02Z</time>
      </trkpt>
      <trkpt lat="44.08164" lon="7.02806">
        <ele>1668.4</ele>
        <time>2018-06-10T12:02:03Z</time>
      </trkpt>
      <trkpt lat="44.08167" lon="7.02817">
        <ele>1667.4</ele>
        <time>2018-06-10T12:02:05Z</time>
      </trkpt>
      <trkpt lat="44.08174" lon="7.02824">
        <ele>1666.4</ele>
        <time>2018-06-10T12:02:07Z</time>
      </trkpt>
      <trkpt lat="44.08183" lon="7.02832">
        <ele>1665.1</ele>
        <time>2018-06-10T12:02:09Z</time>
      </trkpt>
      <trkpt lat="44.08187" lon="7.02846">
        <ele>1663.7</ele>
        <time>2018-06-10T12:02:11Z</time>
      </trkpt>
      <trkpt lat="44.08186" lon="7.02863">
        <ele>1662.3</ele>
        <time>2018-06-10T12:02:13Z</time>
      </trkpt>
      <trkpt lat="44.08185" lon="7.02873">
        <ele>1661.7</ele>
        <time>2018-06-10T12:02:14Z</time>
      </trkpt>
      <trkpt lat="44.08185" lon="7.02883">
        <ele>1660.6</ele>
        <time>2018-06-10T12:02:15Z</time>
      </trkpt>
      <trkpt lat="44.08184" lon="7.02891">
        <ele>1659.7</ele>
        <time>2018-06-10T12:02:16Z</time>
      </trkpt>
      <trkpt lat="44.08184" lon="7.02899">
        <ele>1659</ele>
        <time>2018-06-10T12:02:17Z</time>
      </trkpt>
      <trkpt lat="44.0819" lon="7.02909">
        <ele>1657.3</ele>
        <time>2018-06-10T12:02:19Z</time>
      </trkpt>
      <trkpt lat="44.082" lon="7.02912">
        <ele>1656.1</ele>
        <time>2018-06-10T12:02:21Z</time>
      </trkpt>
      <trkpt lat="44.08204" lon="7.02919">
        <ele>1654.9</ele>
        <time>2018-06-10T12:02:23Z</time>
      </trkpt>
      <trkpt lat="44.08204" lon="7.02926">
        <ele>1654.1</ele>
        <time>2018-06-10T12:02:24Z</time>
      </trkpt>
      <trkpt lat="44.08202" lon="7.02933">
        <ele>1653.4</ele>
        <time>2018-06-10T12:02:25Z</time>
      </trkpt>
      <trkpt lat="44.08199" lon="7.02939">
        <ele>1652.9</ele>
        <time>2018-06-10T12:02:26Z</time>
      </trkpt>
      <trkpt lat="44.08195" lon="7.02945">
        <ele>1652.7</ele>
        <time>2018-06-10T12:02:27Z</time>
      </trkpt>
      <trkpt lat="44.08194" lon="7.0295">
        <ele>1652.4</ele>
        <time>2018-06-10T12:02:28Z</time>
      </trkpt>
      <trkpt lat="44.08192" lon="7.02957">
        <ele>1651.9</ele>
        <time>2018-06-10T12:02:29Z</time>
      </trkpt>
      <trkpt lat="44.08191" lon="7.02965">
        <ele>1651.3</ele>
        <time>2018-06-10T12:02:30Z</time>
      </trkpt>
      <trkpt lat="44.08189" lon="7.02973">
        <ele>1650.8</ele>
        <time>2018-06-10T12:02:31Z</time>
      </trkpt>
      <trkpt lat="44.08186" lon="7.0298">
        <ele>1643.1</ele>
        <time>2018-06-10T12:02:32Z</time>
      </trkpt>
      <trkpt lat="44.08184" lon="7.02988">
        <ele>1641.6</ele>
        <time>2018-06-10T12:02:33Z</time>
      </trkpt>
      <trkpt lat="44.08181" lon="7.03005">
        <ele>1638.5</ele>
        <time>2018-06-10T12:02:35Z</time>
      </trkpt>
      <trkpt lat="44.08178" lon="7.03013">
        <ele>1637.4</ele>
        <time>2018-06-10T12:02:36Z</time>
      </trkpt>
      <trkpt lat="44.08175" lon="7.03027">
        <ele>1635.6</ele>
        <time>2018-06-10T12:02:38Z</time>
      </trkpt>
      <trkpt lat="44.08172" lon="7.03032">
        <ele>1634.7</ele>
        <time>2018-06-10T12:02:39Z</time>
      </trkpt>
      <trkpt lat="44.08168" lon="7.03036">
        <ele>1634.2</ele>
        <time>2018-06-10T12:02:40Z</time>
      </trkpt>
      <trkpt lat="44.08163" lon="7.03039">
        <ele>1633.6</ele>
        <time>2018-06-10T12:02:41Z</time>
      </trkpt>
      <trkpt lat="44.08158" lon="7.03043">
        <ele>1633</ele>
        <time>2018-06-10T12:02:42Z</time>
      </trkpt>
      <trkpt lat="44.08153" lon="7.03047">
        <ele>1632.3</ele>
        <time>2018-06-10T12:02:43Z</time>
      </trkpt>
      <trkpt lat="44.08148" lon="7.0305">
        <ele>1631.5</ele>
        <time>2018-06-10T12:02:44Z</time>
      </trkpt>
      <trkpt lat="44.08142" lon="7.03052">
        <ele>1630.7</ele>
        <time>2018-06-10T12:02:45Z</time>
      </trkpt>
      <trkpt lat="44.08138" lon="7.03055">
        <ele>1630.1</ele>
        <time>2018-06-10T12:02:46Z</time>
      </trkpt>
      <trkpt lat="44.08129" lon="7.03062">
        <ele>1627.6</ele>
        <time>2018-06-10T12:02:48Z</time>
      </trkpt>
      <trkpt lat="44.08123" lon="7.03066">
        <ele>1626.1</ele>
        <time>2018-06-10T12:02:49Z</time>
      </trkpt>
      <trkpt lat="44.08116" lon="7.03071">
        <ele>1624.8</ele>
        <time>2018-06-10T12:02:50Z</time>
      </trkpt>
      <trkpt lat="44.08102" lon="7.03078">
        <ele>1622.1</ele>
        <time>2018-06-10T12:02:52Z</time>
      </trkpt>
      <trkpt lat="44.08094" lon="7.03082">
        <ele>1620.8</ele>
        <time>2018-06-10T12:02:53Z</time>
      </trkpt>
      <trkpt lat="44.08085" lon="7.03086">
        <ele>1619.1</ele>
        <time>2018-06-10T12:02:55Z</time>
      </trkpt>
      <trkpt lat="44.08086" lon="7.03089">
        <ele>1618.7</ele>
        <time>2018-06-10T12:02:57Z</time>
      </trkpt>
      <trkpt lat="44.0809" lon="7.03091">
        <ele>1617.9</ele>
        <time>2018-06-10T12:02:58Z</time>
      </trkpt>
      <trkpt lat="44.08096" lon="7.03095">
        <ele>1616.8</ele>
        <time>2018-06-10T12:02:59Z</time>
      </trkpt>
      <trkpt lat="44.08103" lon="7.031">
        <ele>1614.6</ele>
        <time>2018-06-10T12:03:00Z</time>
      </trkpt>
      <trkpt lat="44.08111" lon="7.03106">
        <ele>1613.1</ele>
        <time>2018-06-10T12:03:01Z</time>
      </trkpt>
      <trkpt lat="44.08119" lon="7.03111">
        <ele>1612</ele>
        <time>2018-06-10T12:03:02Z</time>
      </trkpt>
      <trkpt lat="44.08127" lon="7.03114">
        <ele>1611.4</ele>
        <time>2018-06-10T12:03:03Z</time>
      </trkpt>
      <trkpt lat="44.08133" lon="7.03116">
        <ele>1610.8</ele>
        <time>2018-06-10T12:03:04Z</time>
      </trkpt>
      <trkpt lat="44.08136" lon="7.03121">
        <ele>1609.9</ele>
        <time>2018-06-10T12:03:05Z</time>
      </trkpt>
      <trkpt lat="44.08133" lon="7.0313">
        <ele>1607.7</ele>
        <time>2018-06-10T12:03:07Z</time>
      </trkpt>
      <trkpt lat="44.08123" lon="7.03135">
        <ele>1603.7</ele>
        <time>2018-06-10T12:03:09Z</time>
      </trkpt>
      <trkpt lat="44.08118" lon="7.03136">
        <ele>1601.4</ele>
        <time>2018-06-10T12:03:10Z</time>
      </trkpt>
      <trkpt lat="44.08114" lon="7.03139">
        <ele>1600.3</ele>
        <time>2018-06-10T12:03:11Z</time>
      </trkpt>
      <trkpt lat="44.08109" lon="7.03146">
        <ele>1598</ele>
        <time>2018-06-10T12:03:13Z</time>
      </trkpt>
      <trkpt lat="44.08099" lon="7.03151">
        <ele>1595</ele>
        <time>2018-06-10T12:03:15Z</time>
      </trkpt>
      <trkpt lat="44.08092" lon="7.03152">
        <ele>1593.4</ele>
        <time>2018-06-10T12:03:16Z</time>
      </trkpt>
      <trkpt lat="44.08086" lon="7.03154">
        <ele>1592.1</ele>
        <time>2018-06-10T12:03:17Z</time>
      </trkpt>
      <trkpt lat="44.08079" lon="7.03156">
        <ele>1590.9</ele>
        <time>2018-06-10T12:03:18Z</time>
      </trkpt>
      <trkpt lat="44.08072" lon="7.03159">
        <ele>1589.8</ele>
        <time>2018-06-10T12:03:19Z</time>
      </trkpt>
      <trkpt lat="44.08065" lon="7.03162">
        <ele>1588.8</ele>
        <time>2018-06-10T12:03:20Z</time>
      </trkpt>
      <trkpt lat="44.08059" lon="7.03165">
        <ele>1588</ele>
        <time>2018-06-10T12:03:21Z</time>
      </trkpt>
      <trkpt lat="44.08053" lon="7.03167">
        <ele>1587.2</ele>
        <time>2018-06-10T12:03:22Z</time>
      </trkpt>
      <trkpt lat="44.08048" lon="7.03172">
        <ele>1586.5</ele>
        <time>2018-06-10T12:03:23Z</time>
      </trkpt>
      <trkpt lat="44.08043" lon="7.03178">
        <ele>1585.7</ele>
        <time>2018-06-10T12:03:24Z</time>
      </trkpt>
      <trkpt lat="44.08036" lon="7.0319">
        <ele>1581.6</ele>
        <time>2018-06-10T12:03:26Z</time>
      </trkpt>
      <trkpt lat="44.08033" lon="7.03195">
        <ele>1579.9</ele>
        <time>2018-06-10T12:03:27Z</time>
      </trkpt>
      <trkpt lat="44.08032" lon="7.03201">
        <ele>1578.3</ele>
        <time>2018-06-10T12:03:28Z</time>
      </trkpt>
      <trkpt lat="44.08031" lon="7.03215">
        <ele>1575.6</ele>
        <time>2018-06-10T12:03:30Z</time>
      </trkpt>
      <trkpt lat="44.08027" lon="7.03226">
        <ele>1573.4</ele>
        <time>2018-06-10T12:03:32Z</time>
      </trkpt>
      <trkpt lat="44.08023" lon="7.03235">
        <ele>1570.5</ele>
        <time>2018-06-10T12:03:34Z</time>
      </trkpt>
      <trkpt lat="44.08031" lon="7.03238">
        <ele>1569</ele>
        <time>2018-06-10T12:03:36Z</time>
      </trkpt>
      <trkpt lat="44.08036" lon="7.03238">
        <ele>1568.2</ele>
        <time>2018-06-10T12:03:37Z</time>
      </trkpt>
      <trkpt lat="44.08039" lon="7.03239">
        <ele>1567.8</ele>
        <time>2018-06-10T12:03:38Z</time>
      </trkpt>
      <trkpt lat="44.08037" lon="7.03247">
        <ele>1566.9</ele>
        <time>2018-06-10T12:03:40Z</time>
      </trkpt>
      <trkpt lat="44.08033" lon="7.03253">
        <ele>1566.2</ele>
        <time>2018-06-10T12:03:41Z</time>
      </trkpt>
      <trkpt lat="44.08028" lon="7.03259">
        <ele>1565.4</ele>
        <time>2018-06-10T12:03:42Z</time>
      </trkpt>
      <trkpt lat="44.0802" lon="7.03269">
        <ele>1563.2</ele>
        <time>2018-06-10T12:03:44Z</time>
      </trkpt>
      <trkpt lat="44.08017" lon="7.03272">
        <ele>1562.6</ele>
        <time>2018-06-10T12:03:45Z</time>
      </trkpt>
      <trkpt lat="44.08011" lon="7.0328">
        <ele>1561.7</ele>
        <time>2018-06-10T12:03:47Z</time>
      </trkpt>
      <trkpt lat="44.08004" lon="7.03284">
        <ele>1560.9</ele>
        <time>2018-06-10T12:03:49Z</time>
      </trkpt>
      <trkpt lat="44.07997" lon="7.03289">
        <ele>1560.1</ele>
        <time>2018-06-10T12:03:51Z</time>
      </trkpt>
      <trkpt lat="44.07992" lon="7.03296">
        <ele>1558.7</ele>
        <time>2018-06-10T12:03:53Z</time>
      </trkpt>
      <trkpt lat="44.07991" lon="7.03305">
        <ele>1555.1</ele>
        <time>2018-06-10T12:03:55Z</time>
      </trkpt>
      <trkpt lat="44.07987" lon="7.03324">
        <ele>1552</ele>
        <time>2018-06-10T12:03:59Z</time>
      </trkpt>
      <trkpt lat="44.0798" lon="7.03343">
        <ele>1547.1</ele>
        <time>2018-06-10T12:04:02Z</time>
      </trkpt>
      <trkpt lat="44.07977" lon="7.0335">
        <ele>1545.7</ele>
        <time>2018-06-10T12:04:03Z</time>
      </trkpt>
      <trkpt lat="44.07976" lon="7.03357">
        <ele>1544.4</ele>
        <time>2018-06-10T12:04:04Z</time>
      </trkpt>
      <trkpt lat="44.07976" lon="7.03364">
        <ele>1542.9</ele>
        <time>2018-06-10T12:04:05Z</time>
      </trkpt>
      <trkpt lat="44.07976" lon="7.0337">
        <ele>1541.5</ele>
        <time>2018-06-10T12:04:06Z</time>
      </trkpt>
      <trkpt lat="44.07973" lon="7.03381">
        <ele>1539.4</ele>
        <time>2018-06-10T12:04:08Z</time>
      </trkpt>
      <trkpt lat="44.0797" lon="7.03403">
        <ele>1535.6</ele>
        <time>2018-06-10T12:04:11Z</time>
      </trkpt>
      <trkpt lat="44.07964" lon="7.03418">
        <ele>1532.6</ele>
        <time>2018-06-10T12:04:13Z</time>
      </trkpt>
      <trkpt lat="44.0796" lon="7.03425">
        <ele>1531.5</ele>
        <time>2018-06-10T12:04:14Z</time>
      </trkpt>
      <trkpt lat="44.07956" lon="7.03431">
        <ele>1531</ele>
        <time>2018-06-10T12:04:15Z</time>
      </trkpt>
      <trkpt lat="44.07952" lon="7.03436">
        <ele>1530.8</ele>
        <time>2018-06-10T12:04:16Z</time>
      </trkpt>
      <trkpt lat="44.07947" lon="7.03441">
        <ele>1530.8</ele>
        <time>2018-06-10T12:04:17Z</time>
      </trkpt>
      <trkpt lat="44.07939" lon="7.03451">
        <ele>1525.8</ele>
        <time>2018-06-10T12:04:19Z</time>
      </trkpt>
      <trkpt lat="44.0792" lon="7.03467">
        <ele>1524</ele>
        <time>2018-06-10T12:04:23Z</time>
      </trkpt>
      <trkpt lat="44.07917" lon="7.03475">
        <ele>1523.5</ele>
        <time>2018-06-10T12:04:25Z</time>
      </trkpt>
      <trkpt lat="44.07919" lon="7.03497">
        <ele>1522.7</ele>
        <time>2018-06-10T12:04:29Z</time>
      </trkpt>
      <trkpt lat="44.07928" lon="7.0354">
        <ele>1518.3</ele>
        <time>2018-06-10T12:04:34Z</time>
      </trkpt>
      <trkpt lat="44.07934" lon="7.03559">
        <ele>1515.3</ele>
        <time>2018-06-10T12:04:36Z</time>
      </trkpt>
      <trkpt lat="44.07936" lon="7.0357">
        <ele>1512.5</ele>
        <time>2018-06-10T12:04:37Z</time>
      </trkpt>
      <trkpt lat="44.07941" lon="7.03592">
        <ele>1506.7</ele>
        <time>2018-06-10T12:04:39Z</time>
      </trkpt>
      <trkpt lat="44.07948" lon="7.03611">
        <ele>1505.2</ele>
        <time>2018-06-10T12:04:41Z</time>
      </trkpt>
      <trkpt lat="44.07953" lon="7.03619">
        <ele>1505</ele>
        <time>2018-06-10T12:04:42Z</time>
      </trkpt>
      <trkpt lat="44.07959" lon="7.03626">
        <ele>1504.8</ele>
        <time>2018-06-10T12:04:43Z</time>
      </trkpt>
      <trkpt lat="44.07972" lon="7.03635">
        <ele>1502.9</ele>
        <time>2018-06-10T12:04:45Z</time>
      </trkpt>
      <trkpt lat="44.07986" lon="7.03635">
        <ele>1501.5</ele>
        <time>2018-06-10T12:04:47Z</time>
      </trkpt>
      <trkpt lat="44.07992" lon="7.03633">
        <ele>1500.6</ele>
        <time>2018-06-10T12:04:48Z</time>
      </trkpt>
      <trkpt lat="44.08003" lon="7.03633">
        <ele>1498.5</ele>
        <time>2018-06-10T12:04:50Z</time>
      </trkpt>
      <trkpt lat="44.08017" lon="7.03622">
        <ele>1495.7</ele>
        <time>2018-06-10T12:04:56Z</time>
      </trkpt>
      <trkpt lat="44.08019" lon="7.03609">
        <ele>1493.8</ele>
        <time>2018-06-10T12:04:59Z</time>
      </trkpt>
      <trkpt lat="44.08023" lon="7.0361">
        <ele>1493.3</ele>
        <time>2018-06-10T12:05:01Z</time>
      </trkpt>
      <trkpt lat="44.08028" lon="7.03609">
        <ele>1492.4</ele>
        <time>2018-06-10T12:05:03Z</time>
      </trkpt>
      <trkpt lat="44.08039" lon="7.03615">
        <ele>1489.6</ele>
        <time>2018-06-10T12:05:07Z</time>
      </trkpt>
      <trkpt lat="44.08044" lon="7.03615">
        <ele>1489.3</ele>
        <time>2018-06-10T12:05:09Z</time>
      </trkpt>
      <trkpt lat="44.08045" lon="7.03611">
        <ele>1489.2</ele>
        <time>2018-06-10T12:05:10Z</time>
      </trkpt>
      <trkpt lat="44.08048" lon="7.03609">
        <ele>1489.6</ele>
        <time>2018-06-10T12:05:12Z</time>
      </trkpt>
      <trkpt lat="44.0805" lon="7.03609">
        <ele>1489.8</ele>
        <time>2018-06-10T12:05:13Z</time>
      </trkpt>
      <trkpt lat="44.08055" lon="7.03604">
        <ele>1490.4</ele>
        <time>2018-06-10T12:05:15Z</time>
      </trkpt>
      <trkpt lat="44.08059" lon="7.03598">
        <ele>1490.4</ele>
        <time>2018-06-10T12:05:17Z</time>
      </trkpt>
      <trkpt lat="44.08062" lon="7.03601">
        <ele>1489.9</ele>
        <time>2018-06-10T12:05:19Z</time>
      </trkpt>
      <trkpt lat="44.08064" lon="7.03607">
        <ele>1489.4</ele>
        <time>2018-06-10T12:05:21Z</time>
      </trkpt>
      <trkpt lat="44.08065" lon="7.03611">
        <ele>1489.4</ele>
        <time>2018-06-10T12:05:22Z</time>
      </trkpt>
      <trkpt lat="44.08066" lon="7.03614">
        <ele>1489.3</ele>
        <time>2018-06-10T12:05:23Z</time>
      </trkpt>
      <trkpt lat="44.08069" lon="7.03621">
        <ele>1489.2</ele>
        <time>2018-06-10T12:05:25Z</time>
      </trkpt>
      <trkpt lat="44.08071" lon="7.03623">
        <ele>1489.1</ele>
        <time>2018-06-10T12:05:26Z</time>
      </trkpt>
      <trkpt lat="44.08073" lon="7.03624">
        <ele>1489</ele>
        <time>2018-06-10T12:05:27Z</time>
      </trkpt>
      <trkpt lat="44.08075" lon="7.03629">
        <ele>1488.9</ele>
        <time>2018-06-10T12:05:28Z</time>
      </trkpt>
      <trkpt lat="44.08075" lon="7.03635">
        <ele>1488.8</ele>
        <time>2018-06-10T12:05:29Z</time>
      </trkpt>
      <trkpt lat="44.08075" lon="7.03643">
        <ele>1488.5</ele>
        <time>2018-06-10T12:05:30Z</time>
      </trkpt>
      <trkpt lat="44.08074" lon="7.03652">
        <ele>1488.2</ele>
        <time>2018-06-10T12:05:31Z</time>
      </trkpt>
      <trkpt lat="44.08074" lon="7.03662">
        <ele>1487.6</ele>
        <time>2018-06-10T12:05:32Z</time>
      </trkpt>
      <trkpt lat="44.08075" lon="7.03674">
        <ele>1486.8</ele>
        <time>2018-06-10T12:05:33Z</time>
      </trkpt>
      <trkpt lat="44.08076" lon="7.03686">
        <ele>1485.8</ele>
        <time>2018-06-10T12:05:34Z</time>
      </trkpt>
      <trkpt lat="44.0808" lon="7.03712">
        <ele>1484.2</ele>
        <time>2018-06-10T12:05:36Z</time>
      </trkpt>
      <trkpt lat="44.08084" lon="7.03725">
        <ele>1482</ele>
        <time>2018-06-10T12:05:37Z</time>
      </trkpt>
      <trkpt lat="44.08086" lon="7.03737">
        <ele>1480.8</ele>
        <time>2018-06-10T12:05:38Z</time>
      </trkpt>
      <trkpt lat="44.0809" lon="7.0376">
        <ele>1477.7</ele>
        <time>2018-06-10T12:05:40Z</time>
      </trkpt>
      <trkpt lat="44.08092" lon="7.03784">
        <ele>1475.3</ele>
        <time>2018-06-10T12:05:42Z</time>
      </trkpt>
      <trkpt lat="44.08093" lon="7.03804">
        <ele>1472.4</ele>
        <time>2018-06-10T12:05:44Z</time>
      </trkpt>
      <trkpt lat="44.08093" lon="7.03811">
        <ele>1471.8</ele>
        <time>2018-06-10T12:05:45Z</time>
      </trkpt>
      <trkpt lat="44.08094" lon="7.03816">
        <ele>1471.1</ele>
        <time>2018-06-10T12:05:46Z</time>
      </trkpt>
      <trkpt lat="44.08095" lon="7.03818">
        <ele>1470.4</ele>
        <time>2018-06-10T12:05:47Z</time>
      </trkpt>
      <trkpt lat="44.08095" lon="7.03818">
        <ele>1470.3</ele>
        <time>2018-06-10T12:05:48Z</time>
      </trkpt>
      <trkpt lat="44.08095" lon="7.03819">
        <ele>1470.1</ele>
        <time>2018-06-10T12:05:49Z</time>
      </trkpt>
      <trkpt lat="44.08095" lon="7.03821">
        <ele>1469.4</ele>
        <time>2018-06-10T12:05:52Z</time>
      </trkpt>
      <trkpt lat="44.08095" lon="7.03834">
        <ele>1467.7</ele>
        <time>2018-06-10T12:06:06Z</time>
      </trkpt>
      <trkpt lat="44.08095" lon="7.03837">
        <ele>1467.5</ele>
        <time>2018-06-10T12:06:32Z</time>
      </trkpt>
      <trkpt lat="44.08093" lon="7.03836">
        <ele>1467.8</ele>
        <time>2018-06-10T12:06:38Z</time>
      </trkpt>
      <trkpt lat="44.08092" lon="7.0384">
        <ele>1467.2</ele>
        <time>2018-06-10T12:08:30Z</time>
      </trkpt>
      <trkpt lat="44.08094" lon="7.03844">
        <ele>1466.1</ele>
        <time>2018-06-10T12:08:35Z</time>
      </trkpt>
      <trkpt lat="44.08101" lon="7.03866">
        <ele>1463.1</ele>
        <time>2018-06-10T12:08:40Z</time>
      </trkpt>
      <trkpt lat="44.08118" lon="7.03871">
        <ele>1461.3</ele>
        <time>2018-06-10T12:08:45Z</time>
      </trkpt>
      <trkpt lat="44.08122" lon="7.03862">
        <ele>1462.4</ele>
        <time>2018-06-10T12:08:47Z</time>
      </trkpt>
      <trkpt lat="44.08122" lon="7.03853">
        <ele>1463.5</ele>
        <time>2018-06-10T12:08:49Z</time>
      </trkpt>
      <trkpt lat="44.08122" lon="7.03845">
        <ele>1464.6</ele>
        <time>2018-06-10T12:08:51Z</time>
      </trkpt>
      <trkpt lat="44.08123" lon="7.03835">
        <ele>1466.1</ele>
        <time>2018-06-10T12:08:54Z</time>
      </trkpt>
      <trkpt lat="44.0813" lon="7.03861">
        <ele>1462.1</ele>
        <time>2018-06-10T12:08:59Z</time>
      </trkpt>
      <trkpt lat="44.08135" lon="7.03901">
        <ele>1457.1</ele>
        <time>2018-06-10T12:09:03Z</time>
      </trkpt>
      <trkpt lat="44.08136" lon="7.03921">
        <ele>1455.1</ele>
        <time>2018-06-10T12:09:05Z</time>
      </trkpt>
      <trkpt lat="44.08135" lon="7.0393">
        <ele>1454.2</ele>
        <time>2018-06-10T12:09:06Z</time>
      </trkpt>
      <trkpt lat="44.08134" lon="7.03944">
        <ele>1452.5</ele>
        <time>2018-06-10T12:09:08Z</time>
      </trkpt>
      <trkpt lat="44.08134" lon="7.03953">
        <ele>1451.3</ele>
        <time>2018-06-10T12:09:10Z</time>
      </trkpt>
      <trkpt lat="44.08134" lon="7.03955">
        <ele>1451</ele>
        <time>2018-06-10T12:09:12Z</time>
      </trkpt>
      <trkpt lat="44.08134" lon="7.03955">
        <ele>1451</ele>
        <time>2018-06-10T12:09:13Z</time>
      </trkpt>
    </trkseg>
  </trk>
</gpx>